[[{"header":{"parameterUnit":"m.s-1","parameterCategory":1,"la1":30.6,"la2":29.2853,"lo1":-89.7004,"lo2":-87.6739,"dx":0.0162,"dy":0.0183,"nx":112,"ny":82,"refTime":"2022-11-03T12:00:00:Z","depth":0,"parameterNumber":2,"parameterNumberName":"U-component_of_WINDS"},"data":[0.0,0.0,0.0,0.0,0.0,0.0,0.0,0.0,0.0,0.0,0.0,0.0,0.0,0.0,0.0,0.0,0.0,0.0,0.0,0.0,0.0,0.0,0.0,0.0,0.0,0.0,0.0,0.0,0.0,0.0,0.0,0.0,0.0,0.0,0.0,0.0,0.0,0.0,0.0,0.0,0.0,0.0,0.0,0.0,0.0,0.0,0.0,0.0,0.0,0.0,0.0,0.0,0.0,0.0,0.0,0.0,0.0,0.0,0.0,0.0,0.0,0.0,0.0,0.0,0.0,0.0,0.0,0.0,0.0,0.0,0.0,0.0,0.0,0.0,0.0,0.0,0.0,0.0,0.0,0.0,0.0,0.0,0.0,0.0,0.0,0.0,0.0,0.0,0.0,0.0,-4.4105,-4.4692,-4.6573,-4.7159,-4.5623,-4.4758,-4.2372,-3.7853,0.0,0.0,0.0,0.0,0.0,0.0,0.0,0.0,0.0,0.0,0.0,0.0,0.0,0.0,0.0,0.0,0.0,0.0,0.0,0.0,0.0,0.0,0.0,0.0,0.0,0.0,0.0,0.0,0.0,0.0,0.0,0.0,0.0,0.0,0.0,0.0,0.0,0.0,0.0,0.0,0.0,0.0,0.0,0.0,0.0,0.0,0.0,0.0,0.0,0.0,0.0,0.0,0.0,0.0,0.0,0.0,0.0,0.0,0.0,0.0,0.0,0.0,0.0,0.0,0.0,0.0,0.0,0.0,0.0,0.0,0.0,0.0,0.0,0.0,0.0,0.0,0.0,0.0,0.0,0.0,0.0,0.0,0.0,0.0,0.0,0.0,0.0,0.0,0.0,0.0,0.0,0.0,0.0,0.0,0.0,0.0,0.0,0.0,0.0,0.0,0.0,0.0,0.0,0.0,-4.3078,-4.8469,-4.8783,-4.8005,-4.6524,-4.5122,-4.2581,-3.8512,0.0,0.0,0.0,0.0,0.0,0.0,0.0,0.0,0.0,0.0,0.0,0.0,0.0,0.0,0.0,0.0,0.0,0.0,0.0,0.0,0.0,0.0,0.0,0.0,0.0,0.0,0.0,0.0,0.0,0.0,0.0,0.0,0.0,0.0,0.0,0.0,0.0,0.0,0.0,0.0,0.0,0.0,0.0,0.0,0.0,0.0,0.0,0.0,0.0,0.0,0.0,0.0,0.0,0.0,0.0,0.0,0.0,0.0,0.0,0.0,0.0,0.0,0.0,0.0,0.0,0.0,0.0,0.0,0.0,0.0,0.0,0.0,0.0,0.0,0.0,0.0,0.0,0.0,0.0,0.0,0.0,0.0,0.0,0.0,0.0,0.0,0.0,0.0,0.0,0.0,0.0,0.0,0.0,0.0,0.0,0.0,0.0,0.0,0.0,0.0,0.0,0.0,0.0,-4.3509,-4.5897,-4.9507,-4.9914,-4.9014,-4.665,-4.5462,-4.315,-3.92,-3.6477,0.0,0.0,0.0,0.0,0.0,0.0,0.0,0.0,0.0,0.0,0.0,0.0,0.0,0.0,0.0,0.0,0.0,0.0,0.0,0.0,0.0,0.0,0.0,0.0,0.0,0.0,0.0,0.0,0.0,0.0,0.0,0.0,0.0,0.0,0.0,0.0,0.0,0.0,0.0,0.0,0.0,0.0,0.0,0.0,0.0,0.0,0.0,0.0,0.0,0.0,0.0,0.0,0.0,0.0,0.0,0.0,0.0,0.0,0.0,0.0,0.0,0.0,0.0,0.0,0.0,0.0,0.0,0.0,0.0,0.0,0.0,0.0,0.0,0.0,0.0,0.0,0.0,0.0,0.0,0.0,0.0,0.0,0.0,0.0,0.0,0.0,0.0,0.0,0.0,0.0,0.0,0.0,0.0,0.0,0.0,0.0,0.0,0.0,0.0,0.0,0.0,0.0,-4.7768,-4.9307,-5.0012,-5.0557,-4.9809,-4.7087,-4.5908,-4.3539,-3.9439,-3.6866,0.0,0.0,0.0,0.0,0.0,0.0,0.0,0.0,0.0,0.0,0.0,0.0,0.0,0.0,0.0,0.0,0.0,0.0,0.0,0.0,0.0,0.0,0.0,0.0,0.0,0.0,0.0,0.0,0.0,0.0,0.0,0.0,0.0,0.0,0.0,0.0,0.0,0.0,0.0,0.0,0.0,0.0,0.0,0.0,0.0,0.0,0.0,0.0,0.0,0.0,0.0,0.0,0.0,0.0,0.0,0.0,0.0,0.0,0.0,0.0,0.0,0.0,0.0,0.0,0.0,0.0,0.0,0.0,0.0,0.0,0.0,0.0,0.0,0.0,0.0,0.0,0.0,0.0,0.0,0.0,0.0,0.0,0.0,0.0,0.0,0.0,0.0,0.0,0.0,0.0,0.0,0.0,0.0,0.0,0.0,0.0,0.0,0.0,0.0,0.0,0.0,0.0,-4.8233,-5.1786,-5.0995,-5.0944,-5.0241,-4.8615,-4.6494,-4.3329,-3.8751,-3.6596,0.0,0.0,0.0,0.0,0.0,0.0,0.0,0.0,0.0,0.0,0.0,0.0,0.0,0.0,0.0,0.0,0.0,0.0,0.0,0.0,0.0,0.0,0.0,0.0,0.0,0.0,0.0,0.0,0.0,0.0,0.0,0.0,0.0,0.0,0.0,0.0,0.0,0.0,0.0,0.0,0.0,0.0,0.0,0.0,0.0,0.0,0.0,0.0,0.0,0.0,0.0,0.0,0.0,0.0,0.0,0.0,0.0,0.0,0.0,0.0,0.0,0.0,0.0,0.0,0.0,0.0,0.0,0.0,0.0,0.0,0.0,0.0,0.0,0.0,0.0,0.0,0.0,0.0,0.0,0.0,0.0,0.0,0.0,0.0,0.0,0.0,0.0,0.0,0.0,0.0,0.0,0.0,0.0,0.0,0.0,0.0,0.0,0.0,0.0,0.0,0.0,0.0,-4.8165,-5.0982,-5.0934,-5.1683,-5.1007,-4.8013,-4.6653,-4.3958,-3.932,0.0,0.0,0.0,0.0,0.0,0.0,0.0,0.0,0.0,0.0,0.0,0.0,0.0,0.0,0.0,0.0,0.0,0.0,0.0,0.0,0.0,0.0,0.0,0.0,0.0,0.0,0.0,0.0,0.0,0.0,0.0,0.0,0.0,0.0,0.0,0.0,0.0,0.0,0.0,0.0,0.0,0.0,0.0,0.0,0.0,0.0,0.0,0.0,0.0,0.0,0.0,0.0,0.0,0.0,0.0,0.0,0.0,0.0,0.0,0.0,0.0,0.0,0.0,0.0,0.0,0.0,0.0,0.0,0.0,0.0,0.0,0.0,0.0,0.0,0.0,0.0,0.0,0.0,0.0,0.0,0.0,0.0,0.0,0.0,0.0,0.0,0.0,0.0,0.0,0.0,0.0,0.0,0.0,0.0,0.0,0.0,0.0,0.0,0.0,0.0,0.0,0.0,-4.5093,-4.9327,-5.1823,-5.1556,-5.2216,-5.1381,-4.8203,-4.695,-4.4257,-3.9409,0.0,0.0,0.0,0.0,0.0,0.0,0.0,0.0,0.0,0.0,0.0,0.0,0.0,0.0,0.0,0.0,0.0,0.0,0.0,0.0,0.0,0.0,0.0,0.0,0.0,0.0,0.0,0.0,0.0,0.0,0.0,0.0,0.0,0.0,0.0,0.0,0.0,0.0,0.0,0.0,0.0,0.0,0.0,0.0,0.0,0.0,0.0,0.0,0.0,0.0,0.0,0.0,0.0,0.0,0.0,0.0,0.0,0.0,0.0,0.0,0.0,0.0,0.0,0.0,0.0,0.0,0.0,0.0,0.0,0.0,0.0,0.0,0.0,0.0,0.0,0.0,0.0,0.0,0.0,0.0,0.0,0.0,0.0,0.0,0.0,0.0,0.0,0.0,0.0,0.0,0.0,0.0,0.0,0.0,0.0,0.0,0.0,0.0,0.0,0.0,0.0,0.0,-4.6575,-5.2009,-5.49,-5.3101,-5.2375,-5.1256,-4.9434,-4.7489,-4.4077,0.0,0.0,0.0,0.0,0.0,0.0,0.0,0.0,0.0,0.0,0.0,0.0,0.0,0.0,0.0,0.0,0.0,0.0,0.0,0.0,0.0,0.0,0.0,0.0,0.0,0.0,0.0,0.0,0.0,0.0,0.0,0.0,0.0,0.0,0.0,0.0,0.0,0.0,0.0,0.0,0.0,0.0,0.0,0.0,0.0,0.0,0.0,0.0,0.0,0.0,0.0,0.0,0.0,0.0,0.0,0.0,0.0,0.0,0.0,0.0,0.0,0.0,0.0,0.0,0.0,0.0,0.0,0.0,0.0,0.0,0.0,0.0,0.0,0.0,0.0,0.0,0.0,0.0,0.0,0.0,0.0,0.0,0.0,0.0,0.0,0.0,0.0,0.0,0.0,0.0,0.0,0.0,0.0,0.0,0.0,0.0,0.0,0.0,0.0,0.0,0.0,0.0,0.0,-4.7367,-5.2376,-5.49,-5.3143,-5.3229,-5.2317,-4.9494,-4.8297,-4.5454,-4.0127,0.0,0.0,0.0,0.0,0.0,0.0,0.0,0.0,0.0,0.0,0.0,0.0,0.0,0.0,0.0,0.0,0.0,0.0,0.0,0.0,0.0,0.0,0.0,0.0,0.0,0.0,0.0,0.0,0.0,0.0,0.0,0.0,0.0,0.0,0.0,0.0,0.0,0.0,0.0,0.0,0.0,0.0,0.0,0.0,0.0,0.0,0.0,0.0,0.0,0.0,0.0,0.0,0.0,0.0,0.0,0.0,0.0,0.0,0.0,0.0,0.0,0.0,0.0,0.0,0.0,0.0,0.0,0.0,0.0,0.0,0.0,0.0,0.0,0.0,0.0,0.0,0.0,0.0,0.0,0.0,0.0,0.0,0.0,0.0,0.0,0.0,0.0,0.0,0.0,0.0,0.0,0.0,0.0,0.0,0.0,0.0,0.0,0.0,0.0,0.0,0.0,0.0,-4.8563,-5.3636,-5.625,-5.438,-5.4114,-5.2972,-5.0275,-4.9194,-4.6651,-4.1863,0.0,0.0,0.0,0.0,0.0,0.0,0.0,0.0,0.0,0.0,0.0,0.0,0.0,0.0,0.0,0.0,0.0,0.0,0.0,0.0,0.0,0.0,0.0,0.0,0.0,0.0,0.0,0.0,0.0,0.0,0.0,0.0,0.0,0.0,0.0,0.0,0.0,0.0,0.0,0.0,0.0,0.0,0.0,0.0,0.0,0.0,0.0,0.0,0.0,0.0,0.0,0.0,0.0,0.0,0.0,0.0,0.0,0.0,0.0,0.0,0.0,0.0,0.0,0.0,0.0,0.0,0.0,0.0,0.0,0.0,0.0,0.0,0.0,0.0,0.0,0.0,0.0,0.0,0.0,0.0,0.0,0.0,0.0,0.0,0.0,0.0,0.0,0.0,0.0,0.0,0.0,0.0,0.0,0.0,0.0,0.0,0.0,0.0,0.0,0.0,0.0,0.0,-4.9923,-5.5246,-5.8026,-5.6176,-5.4881,-5.3414,-5.152,-5.0212,-4.7818,-4.3917,0.0,0.0,0.0,0.0,0.0,0.0,0.0,0.0,0.0,0.0,0.0,0.0,0.0,0.0,0.0,0.0,0.0,0.0,0.0,0.0,0.0,0.0,0.0,0.0,0.0,0.0,0.0,0.0,0.0,0.0,0.0,0.0,0.0,0.0,0.0,0.0,0.0,0.0,0.0,0.0,0.0,0.0,0.0,0.0,0.0,0.0,0.0,0.0,0.0,0.0,0.0,0.0,0.0,0.0,0.0,0.0,0.0,0.0,0.0,0.0,-4.1847,-3.8406,0.0,0.0,0.0,0.0,0.0,0.0,0.0,0.0,0.0,0.0,0.0,0.0,0.0,0.0,0.0,0.0,0.0,0.0,0.0,0.0,0.0,0.0,0.0,0.0,0.0,0.0,0.0,0.0,0.0,0.0,0.0,0.0,0.0,0.0,0.0,0.0,0.0,0.0,0.0,0.0,-5.0619,-5.4939,-5.728,-5.6132,-5.5093,-5.4052,-5.2852,-5.1558,-4.9553,-4.6651,-4.4317,0.0,0.0,0.0,0.0,0.0,0.0,0.0,0.0,0.0,0.0,0.0,0.0,0.0,0.0,0.0,0.0,0.0,0.0,0.0,0.0,0.0,0.0,0.0,0.0,0.0,0.0,0.0,0.0,0.0,0.0,0.0,0.0,0.0,0.0,0.0,0.0,0.0,0.0,0.0,0.0,0.0,0.0,0.0,0.0,0.0,0.0,0.0,0.0,0.0,0.0,0.0,0.0,0.0,0.0,0.0,0.0,0.0,0.0,0.0,-4.6075,-4.3781,0.0,0.0,0.0,0.0,0.0,0.0,0.0,0.0,0.0,0.0,0.0,0.0,0.0,0.0,0.0,0.0,0.0,0.0,0.0,0.0,0.0,0.0,0.0,0.0,0.0,0.0,0.0,0.0,0.0,0.0,0.0,0.0,0.0,0.0,0.0,0.0,0.0,0.0,0.0,0.0,-5.1877,-5.5894,-5.8107,-5.7101,-5.5891,-5.4735,-5.3751,-5.2755,-5.1439,-4.9763,-4.689,0.0,0.0,0.0,0.0,0.0,0.0,0.0,0.0,0.0,0.0,0.0,0.0,0.0,0.0,0.0,0.0,0.0,0.0,0.0,0.0,0.0,0.0,0.0,0.0,0.0,0.0,0.0,0.0,0.0,0.0,0.0,0.0,0.0,0.0,0.0,0.0,0.0,0.0,0.0,0.0,0.0,0.0,0.0,0.0,0.0,0.0,0.0,0.0,0.0,0.0,0.0,0.0,0.0,-5.0338,-5.1589,-5.3145,-5.3044,-5.3754,-5.4803,-5.0306,-4.9596,-5.1217,-4.608,0.0,0.0,0.0,0.0,0.0,0.0,0.0,0.0,0.0,0.0,0.0,0.0,0.0,0.0,0.0,0.0,0.0,0.0,0.0,0.0,0.0,0.0,-4.9432,-4.986,-5.0611,-5.0076,-4.5908,0.0,0.0,0.0,0.0,0.0,0.0,0.0,0.0,0.0,0.0,0.0,-5.3346,-5.6986,-5.8934,-5.7978,-5.6495,-5.5292,-5.4421,-5.3743,-5.3144,-5.2576,-4.9374,-4.695,0.0,0.0,0.0,0.0,0.0,0.0,0.0,0.0,0.0,0.0,0.0,0.0,0.0,0.0,0.0,0.0,0.0,0.0,0.0,0.0,0.0,0.0,0.0,0.0,0.0,0.0,0.0,0.0,0.0,0.0,0.0,0.0,-4.2279,-4.1985,0.0,0.0,0.0,0.0,0.0,0.0,0.0,0.0,0.0,0.0,0.0,0.0,0.0,-4.8075,-4.9187,-5.1995,-5.416,-5.5649,-5.7036,-5.8829,-6.0892,-6.025,-6.0419,-6.1129,-5.9587,0.0,-5.3044,-5.1393,0.0,0.0,0.0,0.0,0.0,0.0,0.0,0.0,0.0,0.0,0.0,0.0,0.0,0.0,0.0,0.0,0.0,0.0,0.0,0.0,0.0,0.0,-5.5928,-5.5237,-5.4549,-5.3683,-5.2188,-4.8771,-4.5727,-4.4849,-4.5307,-4.5081,0.0,0.0,0.0,0.0,0.0,0.0,-5.4565,-5.6925,-5.79,-5.6927,-5.5876,-5.521,-5.5059,-5.4461,-5.4042,-5.3952,-5.2905,-5.069,-4.7189,-4.6082,0.0,0.0,0.0,0.0,0.0,0.0,0.0,0.0,0.0,0.0,0.0,0.0,0.0,0.0,0.0,0.0,0.0,0.0,0.0,0.0,0.0,0.0,0.0,0.0,0.0,0.0,0.0,0.0,0.0,-4.2185,-4.4834,-4.5227,-4.4482,-4.3444,0.0,0.0,0.0,0.0,0.0,0.0,0.0,0.0,0.0,-5.1904,-5.3431,-5.4862,-5.6336,-5.8117,-5.9543,-6.0588,-6.1231,-6.2279,-6.3599,-6.2888,-6.2719,-6.299,-6.2533,-6.057,-5.7496,-5.5293,-5.3408,-5.1765,0.0,0.0,0.0,0.0,-4.9593,-4.9493,-5.215,-5.3011,-5.2774,-5.2121,0.0,0.0,0.0,0.0,0.0,0.0,0.0,-5.2009,-5.4593,-5.5612,-5.6217,-5.7006,-5.6029,-5.4971,-5.5086,-5.3513,-5.1462,-4.9456,-4.9707,-4.9069,-4.5459,-4.6212,0.0,0.0,0.0,-5.386,-5.5604,-5.7165,-5.7714,-5.6735,-5.5769,-5.5179,-5.5179,-5.491,-5.476,-5.476,-5.4132,-5.2995,-5.1259,-4.9105,-4.6112,0.0,0.0,0.0,0.0,0.0,0.0,0.0,0.0,0.0,0.0,0.0,0.0,0.0,0.0,0.0,0.0,0.0,0.0,0.0,0.0,0.0,0.0,0.0,0.0,0.0,0.0,0.0,0.0,-4.4553,-4.7131,-4.7872,-4.8045,-4.7088,0.0,0.0,0.0,0.0,0.0,0.0,-5.1319,-5.2775,-5.4809,-5.758,-5.9316,-6.0806,-6.2084,-6.2658,-6.3341,-6.4072,-6.3869,-6.4275,-6.5155,-6.441,-6.4174,-6.4302,-6.4093,-6.3128,-6.1559,-5.8773,-5.7114,-5.6241,-5.4498,-5.3157,-5.2451,-5.4147,-5.4339,-5.4162,-5.6879,-5.7806,-5.768,-5.6663,-5.5895,-5.4957,-5.2914,0.0,0.0,0.0,0.0,-5.4394,-5.7111,-5.6959,-5.6474,-5.8004,-5.727,-5.642,-5.6984,-5.7356,-5.6809,-5.4209,-5.4287,-5.3428,-4.9323,-5.0419,0.0,-5.0386,-5.3467,-5.6087,-5.6669,-5.7701,-5.7856,-5.6623,-5.5993,-5.5598,-5.5448,-5.5448,-5.5359,-5.5209,-5.473,-5.4371,-5.4221,-5.1828,-4.9434,-4.713,0.0,0.0,0.0,0.0,0.0,0.0,0.0,0.0,0.0,0.0,0.0,0.0,0.0,0.0,0.0,0.0,0.0,0.0,0.0,0.0,0.0,0.0,0.0,0.0,0.0,0.0,0.0,0.0,0.0,-4.9015,-5.1158,0.0,0.0,0.0,0.0,-5.2125,-5.3797,-5.6053,-5.8878,-6.0178,-6.1789,-6.4055,-6.4288,-6.4436,-6.4502,-6.4483,-6.4857,-6.5561,-6.4884,-6.529,-6.6677,-6.5933,-6.5967,-6.6567,-6.569,-6.4866,-6.3983,-6.2166,-5.9689,-5.692,-5.663,-5.5625,-5.4626,-5.6779,-5.7541,-5.7839,-6.0092,-6.0887,-6.0887,-6.0788,-5.9363,-5.7608,-5.7442,-5.5951,0.0,0.0,-5.7475,-5.8038,-6.0291,-6.0106,-5.9311,-5.9078,-5.9002,-5.8907,-5.8672,-5.9385,-5.9916,-5.929,-5.9219,-5.858,-5.6492,0.0,-5.6349,-5.6249,-5.6481,-5.697,-5.7897,-5.8622,-5.8321,-5.6414,-5.6697,-5.6765,-5.6218,-5.6188,-5.5867,-5.5239,-5.5149,-5.485,-5.4251,-5.4042,-5.2426,-4.9209,-4.7758,0.0,0.0,0.0,0.0,0.0,0.0,0.0,0.0,0.0,0.0,0.0,0.0,0.0,0.0,0.0,0.0,0.0,0.0,0.0,0.0,0.0,0.0,0.0,0.0,0.0,0.0,0.0,0.0,-5.1214,-5.3204,0.0,-5.2244,-5.4822,-5.6657,-5.671,-5.9046,-6.0995,-6.2139,-6.2996,-6.4251,-6.6014,-6.6623,-6.7128,-6.7622,-6.7078,-6.6919,-6.7158,-6.6384,-6.6305,-6.6812,-6.6542,-6.6542,-6.6812,-6.6458,-6.5792,-6.4891,-6.384,-6.2065,-6.0017,-5.9818,-5.9398,-5.9033,-5.9797,-6.0015,-6.0026,-6.0986,-6.121,-6.1185,-6.1649,-6.1583,-6.1318,-6.1318,-6.0788,-6.0324,-6.1086,-6.1649,-6.2113,-6.2411,-6.2125,-6.1413,-6.0122,-5.987,-5.9839,-5.9707,-6.0487,-6.1413,-6.1896,-6.1457,-6.0543,-5.9069,-5.9993,-6.0456,-5.9032,-5.9422,-5.9814,-5.9505,-5.9044,-5.8251,-5.6921,-5.6974,-5.7004,-5.6795,-5.6765,-5.6675,-5.6436,-5.6647,-5.6364,-5.5529,-5.5648,-5.4698,-5.2486,-5.1977,-4.8775,0.0,0.0,0.0,0.0,0.0,0.0,0.0,0.0,0.0,0.0,0.0,0.0,0.0,0.0,0.0,0.0,0.0,0.0,0.0,0.0,0.0,0.0,0.0,0.0,0.0,-5.139,-5.3876,-5.3178,-5.5686,-5.6807,-5.5096,-5.8692,-6.1078,-6.0875,-6.3397,-6.4999,-6.509,-6.6075,-6.7088,-6.8048,-6.861,-6.912,-6.9586,-6.8536,-6.7999,-6.7975,-6.7195,-6.6812,-6.6812,-6.6812,-6.6948,-6.7184,-6.7184,-6.6829,-6.6196,-6.5724,-6.4529,-6.2985,-6.2197,-6.1873,-6.1907,-6.2174,-6.2149,-6.1974,-6.2024,-6.1941,-6.1914,-6.242,-6.2917,-6.3315,-6.3315,-6.3315,-6.3315,-6.3315,-6.3802,-6.4233,-6.3736,-6.3495,-6.3082,-6.1771,-6.1594,-6.1702,-6.1774,-6.2608,-6.3686,-6.4564,-6.3418,-6.2048,-6.1267,-6.2312,-6.2752,-6.0986,-6.1632,-6.166,-6.0028,-5.9638,-5.8958,-5.7581,-5.7633,-5.7693,-5.7453,-5.7316,-5.7342,-5.7604,-5.7362,-5.7064,-5.6718,-5.5925,-5.4819,-5.3533,-5.3533,-5.0601,-4.4717,0.0,0.0,0.0,0.0,0.0,0.0,0.0,0.0,0.0,0.0,0.0,0.0,0.0,0.0,0.0,0.0,0.0,0.0,0.0,0.0,0.0,0.0,0.0,-5.1455,-5.3957,-5.5616,-5.4905,-5.8665,-6.0523,-5.8405,-6.2746,-6.5409,-6.4809,-6.6809,-6.806,-6.8096,-6.9544,-7.0408,-7.0408,-7.0417,-7.0406,-7.0406,-6.8865,-6.8054,-6.8049,-6.727,-6.6846,-6.688,-6.688,-6.7252,-6.7929,-6.7929,-6.7929,-6.7929,-6.7895,-6.7049,-6.5519,-6.3624,-6.2889,-6.2956,-6.3726,-6.3826,-6.3572,-6.3358,-6.3348,-6.3348,-6.3348,-6.3382,-6.3382,-6.3382,-6.3382,-6.3382,-6.3382,-6.3835,-6.4365,-6.4365,-6.4399,-6.4376,-6.4031,-6.4211,-6.453,-6.4861,-6.5797,-6.6784,-6.7433,-6.5326,-6.3448,-6.3372,-6.3415,-6.315,-6.242,-6.2875,0.0,-5.9536,-6.0359,-6.0391,-5.8324,-5.868,-5.883,-5.8171,-5.778,-5.7894,-5.8701,-5.7469,-5.7056,-5.7801,-5.4971,-5.3091,-5.2336,-5.2187,-5.1199,-4.9299,0.0,0.0,0.0,0.0,0.0,0.0,0.0,0.0,0.0,0.0,0.0,0.0,0.0,0.0,0.0,0.0,0.0,0.0,0.0,0.0,0.0,-5.345,-5.6089,-5.5378,-5.7839,-5.9835,-6.0215,-6.2752,-6.4463,-6.445,-6.6223,-6.7558,-6.7891,-6.8511,-6.9134,-6.9708,-7.0174,-7.0656,-7.1205,-7.1195,-7.1207,-7.1207,-7.0234,-6.9701,-6.9666,-6.8848,-6.8493,-6.847,-6.847,-6.8571,-6.8774,-6.8774,-6.8774,-6.8707,-6.8132,-6.7354,-6.6365,-6.5169,-6.4337,-6.39,-6.4143,-6.4044,-6.3793,-6.3615,-6.3766,-6.4067,-6.4067,-6.4432,-6.4829,-6.4829,-6.4829,-6.4829,-6.4829,-6.5359,-6.5922,-6.5922,-6.5922,-6.5862,-6.5508,-6.5698,-6.5882,-6.5721,-6.6551,-6.7334,-6.7533,-6.6982,-6.6254,-6.5724,-6.5194,-6.4763,-6.4564,-6.4084,-6.3167,-6.1629,-6.1058,-6.0137,-5.8331,-5.8291,-5.8321,-5.8141,-5.8714,-5.9408,-6.0086,-6.0721,-6.0868,-6.0306,-5.9013,-5.7272,-5.514,-5.2247,-5.0272,0.0,0.0,0.0,0.0,0.0,0.0,0.0,0.0,0.0,0.0,0.0,0.0,0.0,0.0,0.0,0.0,0.0,0.0,0.0,0.0,0.0,0.0,-5.7476,-5.9844,-6.0047,-6.1574,-6.2946,-6.3742,-6.5543,-6.6884,-6.7367,-6.8418,-6.9263,-6.9658,-6.9995,-7.0375,-7.0842,-7.0878,-7.1042,-7.1463,-7.1494,-7.1675,-7.2001,-7.128,-7.1054,-7.1333,-7.0162,-6.9632,-6.9569,-6.9252,-6.9282,-6.9553,-6.9553,-6.9722,-7.0026,-6.9857,-6.918,-6.8098,0.0,0.0,0.0,0.0,-6.5462,-6.5444,-6.5347,-6.5537,-6.5902,-6.5801,-6.6022,-6.6353,-6.6353,-6.6353,-6.6353,-6.6353,-6.7082,-6.7811,-6.7512,-6.7645,-6.7771,-6.7239,-6.7029,-6.6964,-6.7108,-6.7636,-6.8175,-6.8473,-6.8274,0.0,-6.791,-6.7016,-6.6254,-6.5922,-6.5621,-6.4766,-6.296,-6.2429,-6.1514,-5.9561,-5.9368,-5.9585,-6.0008,-6.0507,0.0,0.0,0.0,-6.1769,-5.9502,-5.8765,0.0,0.0,0.0,-5.2097,-5.2546,-5.099,0.0,0.0,-4.7578,-4.68,0.0,0.0,0.0,0.0,0.0,0.0,0.0,0.0,0.0,0.0,0.0,0.0,0.0,0.0,0.0,0.0,-6.1163,-6.3125,-6.4512,-6.4941,-6.5342,-6.5997,-6.7361,-6.829,-6.8469,-6.9703,-7.0507,-7.0507,-7.1107,-7.1494,-7.1494,-7.1603,0.0,0.0,0.0,-7.211,-7.2834,-7.2207,-7.2225,-7.2869,-7.1315,-7.0551,-7.0532,-6.9714,-6.9755,-7.0432,-7.0432,-7.0872,-7.1616,-7.2157,-7.1515,-6.9992,-6.7895,-6.6677,-6.6196,-6.7084,-6.7544,-6.7732,-6.7699,0.0,0.0,-6.7704,-6.7658,-6.7658,-6.7658,-6.7612,-6.7566,-6.7566,-6.8539,-6.9401,-6.8837,-6.9103,-6.9434,-6.8937,-6.8274,-6.7943,-6.8639,-6.8804,-6.9003,-6.9666,-6.9268,-6.9003,-6.9666,-6.8606,-6.74,-6.6949,-6.7268,-6.6602,-6.3898,-6.4058,-6.3495,-6.1207,-6.1014,0.0,-6.261,-6.2453,-6.3094,-6.4915,-6.3797,-6.1389,-5.7673,-5.6707,-5.5761,-5.464,-5.4581,-5.5388,-5.7094,-5.7094,-5.7094,-5.6944,-5.0511,-4.9105,0.0,0.0,0.0,0.0,0.0,0.0,0.0,0.0,0.0,0.0,0.0,0.0,0.0,0.0,0.0,-6.0554,-6.2719,-6.4478,-6.5358,-6.6608,-6.7474,-6.7649,-6.8425,-6.946,-7.0724,-7.1131,-7.1304,-7.1304,-7.1431,-7.1494,-7.1494,-7.211,-7.2472,-7.2472,-7.3124,-7.3523,-7.3667,-7.3537,-7.353,-7.369,-7.266,0.0,-7.2042,-7.1246,-7.1278,-7.1954,-7.1954,-7.2394,-7.3037,-7.2597,-7.1515,-7.0094,-6.9045,-6.8571,-6.847,-6.8688,-6.8624,-6.8449,-6.8227,-6.8249,-6.8249,-6.8023,-6.7932,-6.7932,-6.7932,-6.775,0.0,-6.7566,-6.7844,-6.8142,-6.8572,-6.8374,-6.8307,-6.9334,-6.9003,-6.8672,-6.9434,-6.9566,-6.9633,-6.9765,-6.9666,-6.9633,-6.9765,-6.8606,-6.7976,-6.9003,-6.8274,-6.6962,-6.5218,-6.4626,-6.336,-6.0601,-6.0266,-6.0729,-6.1902,-6.2743,-6.3924,-6.5708,-6.4963,-6.379,-6.2202,-6.0085,-5.841,-5.7363,-5.6825,-5.6705,-5.7094,-5.7094,-5.7094,-5.7064,-5.5658,-5.5359,0.0,0.0,0.0,0.0,0.0,0.0,0.0,0.0,0.0,0.0,0.0,-5.5378,-5.8017,0.0,-6.1332,-6.3193,-6.441,-6.5556,-6.6718,-6.7545,-6.8194,-6.8603,-6.9636,-7.0676,-7.1431,-7.1494,-7.1494,-7.1494,-7.1893,-7.211,-7.211,-7.2871,-7.3305,-7.3305,-7.3704,-7.4102,-7.4468,-7.4468,-7.4699,-7.5079,-7.4257,-7.378,-7.3676,-7.2897,-7.2471,-7.2394,-7.2394,-7.2597,-7.2902,-7.2563,-7.1954,-7.121,-7.05,-6.9755,-6.9147,-6.9353,-6.9444,-6.9434,-6.931,-6.9353,-6.9398,-6.9031,-6.8892,-6.8892,-6.8892,-6.8798,-6.8705,-6.8705,-6.897,-6.9268,-6.9235,-6.9268,-6.9334,-6.9699,-6.9798,-6.9898,-7.0262,-7.0626,-7.0891,-7.0891,-7.0891,-7.1024,-7.1388,-7.0229,-6.9401,-6.9732,-6.9169,-6.8011,-6.6171,-6.5606,-6.4452,-6.1864,-6.1583,-6.2304,-6.3941,-6.5322,-6.6419,-6.729,-6.6635,-6.5545,-6.3969,-6.2405,-6.0805,-5.9153,-5.8441,-5.8112,-5.8112,-5.8441,-5.859,-5.859,-5.8949,-5.8381,0.0,0.0,0.0,0.0,0.0,0.0,0.0,-5.3619,-5.3923,-5.7408,-5.822,-5.9099,-6.167,-6.2618,-6.3666,-6.5595,-6.5899,-6.6432,-6.7827,-6.8132,-6.8524,-6.9347,-7.0541,-7.1336,-7.1463,-7.1494,-7.1567,-7.1712,-7.2327,-7.2762,-7.2943,-7.3704,-7.4106,-7.4106,-7.4283,-7.4682,-7.5334,-7.5334,-7.5659,-7.6275,-7.5513,-7.503,-7.4883,-7.4052,-7.3289,-7.2597,-7.2597,-7.2529,-7.2394,-7.2394,-7.2326,-7.2124,-7.1548,-7.0669,-6.9745,-7.0007,-7.0288,-7.0613,-7.0549,-7.0804,-7.0997,-7.0576,-7.0434,-7.0434,-7.0386,-7.0372,-7.0324,-7.0229,-7.0659,-7.0991,-7.0361,-7.0659,-7.0958,-7.0361,-7.0693,-7.1123,-7.1123,-7.1587,-7.2018,-7.2018,-7.2018,-7.2183,-7.278,-7.1918,-7.0958,-7.0494,-7.0063,-6.9091,-6.7193,-6.6628,-6.5629,-6.3592,-6.3222,-6.4015,-6.6217,-6.7932,-6.8904,-6.8904,-6.8021,-6.6709,-6.5002,-6.3849,-6.2447,-6.062,-5.9867,-5.9488,-5.9488,-6.0146,-6.0475,-6.0475,-6.1194,-6.0206,-5.5074,-5.3348,-5.2976,-5.4735,-5.4702,-5.5446,0.0,-6.0148,-5.981,-6.2279,-6.3294,-6.4038,-6.5019,-6.5256,-6.5628,-6.6542,-6.6677,-6.6969,-6.7896,-6.86,-6.9383,-7.0165,-7.0406,-7.0778,-7.1431,-7.1494,-7.182,-7.2509,-7.2653,-7.3016,-7.374,-7.4504,-7.4938,-7.4938,-7.5659,-7.6058,-7.6167,-7.6167,-7.6203,-7.6275,-7.5513,-7.503,-7.4883,-7.4052,-7.3563,-7.3375,-7.3375,-7.3003,-7.2394,-7.2394,-7.2022,-7.1413,-7.1345,-7.1616,-7.1954,-7.1334,-7.1571,-7.2112,-7.1904,-7.2389,-7.3147,-7.2821,-7.2727,-7.268,-7.2457,-7.2252,-7.2093,-7.1802,-7.1819,-7.1852,-7.1786,-7.1819,-7.1852,-7.1786,-7.1819,-7.1885,-7.1885,-7.1951,-7.2018,-7.2018,-7.2018,-7.2051,-7.2117,-7.1985,-7.2084,-7.2647,-7.1057,-6.9613,-6.8978,-6.7437,-6.5897,-6.4678,-6.3649,-6.4015,-6.6217,-6.8388,-6.9666,-6.9666,-6.8094,-6.7053,-6.6807,-6.4235,-6.277,-6.2503,-6.1418,-6.0894,-6.0894,-6.1553,-6.1882,-6.1882,-6.254,-6.2061,-6.0486,-5.8998,-5.7983,-5.981,-6.0351,-6.1095,-6.37,-6.3497,-6.3362,-6.5595,-6.5967,-6.5967,-6.6271,-6.6339,-6.644,-6.6779,-6.6812,-6.7243,-6.8524,-6.9015,-6.9672,-7.0911,-7.1474,-7.186,-7.2187,-7.2219,-7.2545,-7.3342,-7.3849,-7.4247,-7.4576,-7.537,-7.5587,-7.5083,-7.5877,-7.6275,-7.6275,-7.6746,-7.7217,-7.7688,-7.734,-7.6868,-7.6251,-7.5882,-7.4912,-7.3477,-7.3037,-7.2428,-7.1853,-7.2699,-7.2597,-7.1988,-7.2428,-7.2766,-7.2935,-7.2225,-7.2699,-7.3633,-7.34,-7.3905,-7.4559,-7.4079,-7.3982,-7.3934,-7.364,-7.3492,-7.3326,-7.2796,-7.2945,-7.3177,-7.2746,-7.2647,-7.2647,-7.2647,-7.2647,-7.2647,-7.2647,-7.2978,-7.3276,-7.3276,-7.3276,-7.3276,-7.3276,-7.2912,-7.2746,-7.3045,-7.1587,-6.9975,-6.8708,-6.7861,-6.7161,-6.643,-6.6547,-6.7186,-6.8548,-7.0156,-7.0891,-7.0461,-6.9711,-6.883,-6.77,-6.5496,-6.4035,-6.3402,-6.1866,-6.1104,-6.1104,-6.1762,-6.2301,-6.269,-6.3318,-6.3528,-6.2618,-6.2212,-6.1704,-6.3396,-6.4512,-6.5358,-6.5865,-6.573,-6.5967,-6.7557,-6.7489,-6.7117,-6.7117,-6.6948,-6.6812,-6.6812,-6.6812,-6.7366,-6.8943,-6.9412,-7.0133,-7.1661,-7.2545,-7.3124,-7.3342,-7.316,-7.3378,-7.4175,-7.4757,-7.5225,-7.5442,-7.5985,-7.613,-7.5768,-7.6348,-7.6746,-7.6963,-7.7543,-7.8122,-7.8702,-7.8702,-7.8166,-7.7158,-7.6489,-7.5298,-7.3747,-7.28,-7.2225,-7.1988,-7.3037,-7.3172,-7.2766,-7.3274,-7.3612,-7.3747,-7.3443,-7.3984,-7.4884,-7.5012,-7.5504,-7.6062,-7.567,-7.5472,-7.5322,-7.5071,-7.497,-7.4703,-7.3906,-7.4204,-7.4602,-7.3873,-7.384,-7.3939,-7.374,-7.3707,-7.3641,-7.3442,-7.3807,-7.4221,-7.4221,-7.4221,-7.4221,-7.4221,-7.374,-7.3343,-7.3144,-7.2183,-7.1045,-6.963,-6.9376,-6.9104,-6.8476,-6.9282,-7.0034,-7.0552,-7.1455,-7.1786,-7.1223,-7.1024,-7.0287,-6.8927,-6.6793,-6.5303,-6.4514,-6.2637,-6.1642,-6.1642,-6.2301,-6.2869,-6.3348,-6.4186,-6.4725,-5.9167,-6.0216,-6.1839,-6.4038,-6.5662,-6.6745,-6.6779,-6.732,-6.7827,-6.7895,-6.7895,-6.7861,-6.7861,-6.7286,-6.6812,-6.6812,-6.6812,-6.7366,-6.8943,-6.9869,-7.0947,-7.2492,-7.3378,-7.4175,-7.4938,-7.4323,-7.4211,-7.4974,-7.5083,-7.5442,-7.6203,-7.6275,-7.6637,-7.7398,-7.7434,-7.7833,-7.8629,-7.8666,-7.8666,-7.8702,-7.8702,-7.8166,-7.7116,-7.4703,-7.3929,-7.4492,-7.3037,-7.28,-7.3443,-7.3477,-7.3477,-7.3443,-7.3477,-7.395,-7.4661,-7.5337,-7.5642,-7.5777,-7.6555,-7.7299,-7.7908,-7.7908,-7.7678,-7.7379,-7.7162,-7.6858,-7.6435,-7.5499,-7.5728,-7.6092,-7.5397,-7.5728,-7.6026,-7.5363,-7.5198,-7.5032,-7.4354,-7.4188,-7.4221,-7.4221,-7.4221,-7.4221,-7.4221,-7.4188,-7.3906,-7.321,-7.3078,-7.3045,-7.2962,-7.2625,-7.1929,-7.0838,-7.1049,-7.133,-7.133,-7.1751,-7.1985,-7.1985,-7.1289,-7.0891,-7.081,-6.792,-6.6343,-6.6343,-6.4178,-6.3019,-6.3019,-6.3647,-6.3947,-6.4006,-6.5323,-6.5622,-6.2313,-6.3802,-6.5493,-6.776,-6.9079,-6.9789,-6.9789,-6.9992,-7.0026,-6.9519,-6.9045,-6.8538,-6.7996,-6.732,-6.6812,-6.6812,-6.6812,-6.7537,-6.968,-7.022,-7.116,-7.3251,-7.4178,-7.4793,-7.5047,-7.483,-7.5044,-7.5841,-7.5913,-7.6239,-7.7036,-7.7108,-7.7217,-7.747,-7.7507,-7.7869,-7.8702,-7.8702,-7.9245,-8.0295,-7.9719,-7.896,-7.7971,-7.6518,-7.5447,-7.4593,-7.4086,-7.3713,-7.351,-7.4018,-7.4221,-7.4289,-7.4762,-7.5439,-7.6217,-7.6927,-7.7536,-7.801,-7.828,-7.8855,-7.9464,-7.9263,-7.9129,-7.8926,-7.8463,-7.8255,-7.7932,-7.694,-7.7219,-7.7616,-7.6887,-7.6854,-7.6854,-7.6125,-7.5595,-7.5116,-7.4387,-7.4221,-7.4221,-7.4221,-7.4221,-7.4221,-7.4221,-7.4221,-7.427,-7.4502,-7.331,-7.2382,-7.2382,-7.2249,-7.239,-7.2998,-7.2766,-7.3102,-7.4549,-7.3902,-7.3641,-7.4138,-7.3045,-7.215,-7.1653,-6.9459,-6.7688,-6.6428,-6.4954,-6.3789,-6.3079,-6.3707,-6.4246,-6.4695,-6.5592,-6.6131,-6.4241,-6.5899,-6.7421,-6.9958,-7.0973,-7.1312,-7.1312,-7.1312,-7.1176,-7.0703,-6.9553,-6.8605,-6.8368,-6.7286,-6.6677,-6.7489,-6.7886,-6.8801,-7.0909,-7.1713,-7.2655,-7.4152,-7.5044,-7.5551,-7.5551,-7.5551,-7.5732,-7.6239,-7.6275,-7.6637,-7.747,-7.7507,-7.776,-7.834,-7.8086,-7.8303,-7.9136,-7.9136,-7.9788,-8.1056,-8.0211,-7.9467,-7.8743,-7.7632,-7.6474,-7.5405,-7.5134,-7.4728,-7.4322,-7.4796,-7.4999,-7.5067,-7.5845,-7.6454,-7.7029,-7.801,-7.8686,-7.916,-7.9397,-7.9803,-8.0158,-8.0006,-7.9904,-7.9699,-7.9198,-7.8988,-7.8664,-7.7669,-7.7947,-7.8345,-7.7616,-7.7616,-7.755,-7.6556,-7.596,-7.5363,-7.442,-7.442,-7.4619,-7.4619,-7.4767,-7.4867,-7.4602,-7.4387,-7.4387,-7.4851,-7.3674,-7.2978,-7.3475,-7.3541,-7.3906,-7.4833,-7.4303,-7.4436,-7.5827,-7.5098,-7.4818,-7.5231,-7.4403,-7.3674,-7.321,-7.1378,-6.9483,-6.7565,-6.6423,-6.5277,-6.4126,-6.4515,-6.5084,-6.5742,-6.64,-6.6819,-6.4783,-6.6373,-6.7726,-7.0601,-7.1312,-7.1312,-7.1312,-7.1312,-7.1278,-7.1176,-6.9383,-6.803,-6.8605,-6.7015,-6.6305,-6.8402,-6.9617,-7.0828,-7.2349,-7.396,-7.5048,-7.5161,-7.5841,-7.6275,-7.6275,-7.6275,-7.6311,-7.6348,-7.6348,-7.671,-7.7507,-7.7579,-7.834,-7.9897,-7.9136,-7.91,-7.9897,-7.9897,-8.0295,-8.102,-8.0249,-7.9791,-7.9437,-7.8023,-7.7205,-7.6927,-7.6149,-7.5811,-7.5743,-7.5709,-7.5709,-7.5777,-7.6589,-7.6961,-7.7198,-7.8653,-7.9228,-7.9397,-8.0073,-8.0276,-8.0209,-8.0242,-8.009,-7.975,-7.9593,-7.9246,-7.8783,-7.7835,-7.808,-7.8477,-7.7782,-7.808,-7.8212,-7.6755,-7.639,-7.5993,-7.4568,-7.4884,-7.533,-7.533,-7.586,-7.6092,-7.5397,-7.4752,-7.4255,-7.4221,-7.4221,-7.4668,-7.6026,-7.6192,-7.6225,-7.6258,-7.5628,-7.5231,-7.533,-7.5264,-7.5231,-7.533,-7.5264,-7.5231,-7.5231,-7.3541,-7.1682,-6.9753,-6.8582,-6.7378,-6.6162,-6.6101,-6.643,-6.7059,-6.7717,-6.7687,-6.6102,-6.8301,-7.0364,-7.1109,-7.1312,-7.1312,-7.1312,-7.1312,-7.0838,-6.9113,-6.7861,-6.6305,-6.3768,-6.4174,-6.4715,-6.4174,-6.6581,-6.9296,-7.1539,-7.2695,-7.4004,-7.5778,-7.6167,-7.6275,-7.6275,-7.6275,-7.6529,-7.7144,-7.7181,-7.7543,-7.834,-7.8955,-7.9752,-8.0766,-7.9426,-7.91,-7.9897,-7.9897,-8.0006,-8.0223,-8.1201,-8.0876,-7.955,-8.0281,-7.9534,-7.7705,-7.7502,-7.7096,-7.6555,-7.5946,-7.5709,-7.5777,-7.6589,-7.757,-7.8653,-7.9566,-8.0615,-8.1596,-8.1765,-8.1122,-8.0276,-8.0818,-8.0598,-8.0208,-8.0852,-8.0608,-8.0081,-7.9932,-8.0001,-8.0101,-7.9902,-7.9604,-7.9107,-7.8179,-7.755,-7.6887,-7.596,-7.5927,-7.6059,-7.6059,-7.6192,-7.6092,-7.5397,-7.5132,-7.4851,-7.4288,-7.4221,-7.4354,-7.4668,-7.4734,-7.4933,-7.5496,-7.49,-7.49,-7.596,-7.5065,-7.49,-7.5993,-7.5032,-7.452,-7.452,-7.3983,-7.2873,-7.0994,-7.0228,-6.9329,-6.814,-6.7668,-6.7567,-6.7747,-6.8435,-6.8645,-6.7523,-6.9519,-7.1312,-7.1312,-7.1312,-7.1041,-7.006,-6.9823,-6.9079,-6.6508,-6.5121,-6.3746,-6.1578,-6.2508,-6.3872,-6.4675,-6.7758,-7.0902,-7.327,-7.4288,-7.5192,-7.6208,-7.6275,-7.6275,-7.6275,-7.6601,-7.7,-7.747,-7.7507,-7.8014,-7.9173,-7.9643,-8.0259,-8.1092,-7.9897,-7.9281,-7.939,-7.939,-7.9752,-8.044,-8.1672,-8.1642,-8.0532,-8.141,-8.0593,-7.845,-7.8145,-7.757,-7.686,-7.642,-7.6217,-7.6352,-7.7773,-7.8855,-7.9735,-8.0784,-8.1697,-8.2408,-8.2408,-8.1866,-8.1224,-8.1629,-8.1494,-8.1222,-8.149,-8.1062,-8.0488,-8.0264,-8.0001,-7.9736,-7.9736,-7.9438,-7.8941,-7.8212,-7.7715,-7.7219,-7.6457,-7.6556,-7.6887,-7.7219,-7.702,-7.6655,-7.6291,-7.5927,-7.5595,-7.5165,-7.5098,-7.5098,-7.5098,-7.4568,-7.4387,-7.4785,-7.4487,-7.4502,-7.5297,-7.4933,-7.4999,-7.5794,-7.5397,-7.5098,-7.5098,-7.5098,-7.4272,-7.2335,-7.1496,-7.0506,-6.9318,-6.8424,-6.8286,-6.8854,-6.9243,-6.9572,-6.8741,-7.0195,-7.1312,-7.1312,-7.1312,-7.0703,-6.8436,-6.7827,-6.6846,-6.3599,-6.1806,-6.0672,-6.0138,-6.1248,-6.3307,-6.6551,-7.0213,-7.3373,-7.5576,-7.6661,-7.697,-7.6384,-7.6384,-7.6456,-7.6456,-7.7181,-7.7688,-7.7796,-7.7833,-7.8448,-7.9825,-8.0006,-8.0332,-8.0947,-8.0151,-7.9426,-7.8702,-7.8702,-7.9462,-8.0947,-8.1961,-8.2258,-8.1829,-8.1909,-8.102,-7.9393,-7.8499,-7.7739,-7.7063,-7.7063,-7.6995,-7.7096,-7.9228,-8.0175,-8.0513,-8.19,-8.2543,-8.2712,-8.2712,-8.2712,-8.2678,-8.2577,-8.2475,-8.2337,-8.2013,-8.1417,-8.0708,-8.0119,-7.9492,-7.8995,-7.8941,-7.8875,-7.8643,-7.8014,-7.7782,-7.7517,-7.6755,-7.7119,-7.7749,-7.8411,-7.8014,-7.7517,-7.745,-7.6887,-7.6424,-7.6324,-7.6324,-7.6324,-7.6324,-7.5231,-7.4469,-7.4469,-7.442,-7.4354,-7.4354,-7.48,-7.5132,-7.5132,-7.5695,-7.6026,-7.6026,-7.6125,-7.5391,-7.3749,-7.2469,-7.1284,-7.0204,-6.8818,-6.8704,-6.9842,-6.9842,-7.0269,-6.9045,-7.0195,-7.1312,-7.1312,-7.1312,-7.0703,-6.8436,-6.7421,-6.5628,-6.0791,-5.9099,-5.7715,-5.5246,-5.8493,-6.191,-6.3234,-6.8097,-7.2312,-7.4082,-7.5012,-7.5692,-7.6244,-7.6891,-7.7289,-7.7289,-7.8014,-7.8774,-7.9426,-7.9499,-7.9607,-7.9897,-8.0549,-8.0658,-8.0114,-7.9318,-7.8847,-7.8702,-7.8702,-7.9173,-8.0151,-8.2251,-8.2852,-8.2044,-8.2572,-8.2196,-8.1064,-7.959,-7.8483,-7.7807,-7.7807,-7.7435,-7.7063,-7.8686,-8.004,-8.119,-8.2069,-8.3186,-8.4234,-8.4234,-8.4234,-8.4133,-8.3524,-8.2915,-8.2592,-8.3436,-8.3195,-8.2516,-8.1888,-8.1624,-8.1469,-8.1282,-8.0763,-8.0266,-8.0167,-7.967,-7.9041,-7.8312,-7.8246,-7.8378,-7.8511,-7.8411,-7.8146,-7.7517,-7.7318,-7.702,-7.639,-7.6324,-7.6324,-7.6324,-7.6092,-7.5927,-7.5927,-7.543,-7.5098,-7.5098,-7.4686,-7.442,-7.442,-7.4469,-7.4535,-7.4535,-7.5132,-7.5345,-7.5006,-7.337,-7.2412,-7.2149,-6.9915,-6.8944,-6.9183,-6.9183,-6.975,-6.9113,-7.0195,-7.1312,-7.1312,-7.1312,-7.0331,-6.6474,-6.5358,-6.3396,-5.7374,-5.5852,-5.5144,-5.3642,-5.7052,-6.0843,-6.3195,-6.8081,-7.2228,-7.4254,-7.5221,-7.5864,-7.6242,-7.7,-7.7507,-7.7507,-7.8593,-7.9499,-7.9861,-8.0295,-8.0513,-8.0513,-8.0911,-8.0947,-8.0549,-7.9752,-7.9318,-7.9318,-7.9318,-7.9752,-8.0549,-8.2541,-8.3216,-8.2678,-8.2897,-8.2496,-8.1487,-7.9401,-7.8551,-7.8551,-7.8145,-7.801,-7.8213,-7.9667,-8.0682,-8.1426,-8.2543,-8.3422,-8.4099,-8.4505,-8.464,-8.4505,-8.3727,-8.3524,-8.3573,-8.3591,-8.3134,-8.2421,-8.1993,-8.1317,-8.0695,-8.0339,-8.0318,-8.0198,-7.9691,-7.9306,-7.8941,-7.861,-7.8511,-7.8511,-7.8511,-7.8511,-7.8411,-7.8047,-7.798,-7.7881,-7.7517,-7.745,-7.745,-7.745,-7.745,-7.7152,-7.639,-7.6026,-7.5662,-7.5297,-7.5017,-7.4619,-7.4255,-7.4221,-7.4221,-7.4221,-7.4553,-7.4701,-7.4701,-7.3275,-7.223,-7.161,-6.9782,-6.8757,-6.8465,-6.8465,-6.902,-6.9113,-7.0195,-7.1312,-7.1312,-7.1312,-6.9958,-6.4715,-6.3396,-6.1366,-5.4634,-5.3145,-5.2973,-5.2806,-5.5766,-5.9611,-6.3736,-6.8043,-7.1814,-7.4691,-7.5659,-7.6094,-7.6275,-7.7144,-7.776,-7.776,-7.9209,-8.0151,-8.0151,-8.0766,-8.1128,-8.1128,-8.1128,-8.1201,-8.1346,-8.0585,-8.0259,-8.0404,-8.0259,-8.0476,-8.1128,-8.2722,-8.34,-8.328,-8.3054,-8.2596,-8.1735,-7.9308,-7.8551,-7.9058,-7.8483,-7.8585,-7.9228,-8.0547,-8.1275,-8.1749,-8.2681,-8.3376,-8.3872,-8.422,-8.4505,-8.4471,-8.3786,-8.3919,-8.4215,-8.3428,-8.2701,-8.2042,-8.1725,-8.068,-7.957,-7.9222,-7.9648,-7.9974,-7.9161,-7.8742,-7.8511,-7.8511,-7.8511,-7.8511,-7.8511,-7.8511,-7.8511,-7.8511,-7.8511,-7.8511,-7.8511,-7.8511,-7.8511,-7.8511,-7.8511,-7.808,-7.692,-7.6655,-7.6324,-7.5761,-7.5595,-7.5264,-7.4668,-7.4635,-7.4619,-7.4453,-7.4453,-7.4387,-7.4221,-7.2992,-7.1842,-7.0599,-6.9406,-6.8421,-6.7777,-6.7777,-6.8233,-6.9113,-7.0195,-7.1312,-7.1312,-7.1312,-6.9958,-6.4715,-6.299,-6.0588,-5.3856,-5.1928,-5.142,-5.1383,-5.3818,-5.7595,-6.2896,-6.6348,-6.9917,-7.4468,-7.5155,-7.5478,-7.6203,-7.7651,-7.8593,-7.8593,-8.0042,-8.0984,-8.0984,-8.1056,-8.1128,-8.1128,-8.1128,-8.1418,-8.2143,-8.1418,-8.1346,-8.207,-8.1346,-8.1056,-8.1128,-8.2722,-8.3482,-8.3479,-8.3139,-8.2954,-8.2741,-8.0145,-7.9058,-7.9092,-7.9025,-7.9058,-7.9194,-8.0006,-8.1217,-8.25,-8.1749,-8.2921,-8.4755,-8.3924,-8.4065,-8.4529,-8.3971,-8.3687,-8.3592,-8.3471,-8.293,-8.2304,-8.2042,-8.1207,-8.0307,-7.9988,-8.0252,-8.0619,-8.0498,-7.9471,-7.8511,-7.8511,-7.8511,-7.8511,-7.8511,-7.8511,-7.8511,-7.8511,-7.8511,-7.8511,-7.8511,-7.8511,-7.8511,-7.8511,-7.8511,-7.8477,-7.8345,-7.7715,-7.7285,-7.7219,-7.6589,-7.6192,-7.6125,-7.6125,-7.5827,-7.5198,-7.5165,-7.4867,-7.4221,-7.2992,-7.1842,-7.0599,-6.9406,-6.8208,-6.7089,-6.7089,-6.7729,-6.9113,-7.0195,-7.1312,-7.1312,-7.0635,-6.8741,-6.3937,-6.1535,-5.8693,-5.2875,-5.1082,-5.0811,-5.1691,-5.3471,-5.657,-6.2023,-6.4951,-6.7909,-7.1712,-7.3088,-7.3957,-7.4754,-7.671,-7.8159,-7.8666,-8.0151,-8.1128,-8.1128,-8.1128,-8.1128,-8.1128,-8.1563,-8.1961,-8.2287,-8.1998,-8.1961,-8.2287,-8.1491,-8.1128,-8.1128,-8.2251,-8.3012,-8.3482,-8.3258,-8.3097,-8.2874,-8.081,-7.9888,-7.9735,-7.9295,-7.9363,-7.9803,-8.0073,-8.0596,-8.1266,-8.1923,-8.2421,-8.2835,-8.3447,-8.35,-8.317,-8.2513,-8.2259,-8.2292,-8.2834,-8.2411,-8.1731,-8.1628,-8.0829,-8.0032,-7.9719,-7.9495,-7.9604,-8.0498,-7.9571,-7.8511,-7.8511,-7.8511,-7.8511,-7.8511,-7.8511,-7.8511,-7.8511,-7.8511,-7.8511,-7.8511,-7.8511,-7.8511,-7.8511,-7.8511,-7.8511,-7.8511,-7.8246,-7.7914,-7.745,-7.7152,-7.6788,-7.6324,-7.6324,-7.6192,-7.5894,-7.5894,-7.5562,-7.4918,-7.439,-7.3311,-7.1647,-7.0487,-6.9232,-6.8058,-6.7335,-6.7274,-6.8977,-7.0212,-7.1328,-7.1289,-7.0381,-6.82,-6.3475,-6.0655,-5.7543,-5.23,-5.0608,-5.0405,-5.1454,-5.2739,-5.5364,-6.0574,-6.3208,-6.5941,-6.9837,-7.1512,-7.2726,-7.3776,-7.5804,-7.747,-7.8267,-8.0042,-8.1128,-8.1128,-8.1128,-8.1201,-8.1454,-8.2215,-8.265,-8.265,-8.265,-8.265,-8.265,-8.1853,-8.1346,-8.1128,-8.1925,-8.2613,-8.3157,-8.3148,-8.301,-8.2559,-8.1332,-8.0618,-8.0175,-7.9634,-7.9735,-8.0209,-8.0209,-8.0376,-8.0709,-8.163,-8.1874,-8.1848,-8.276,-8.2751,-8.2324,-8.1851,-8.1512,-8.1427,-8.2129,-8.1703,-8.1021,-8.1224,-8.0494,-7.9663,-7.9604,-7.9216,-7.9107,-8.0134,-7.9604,-7.8776,-7.8577,-7.8511,-7.8511,-7.8511,-7.8511,-7.8511,-7.8511,-7.8511,-7.8511,-7.8511,-7.8511,-7.8511,-7.8511,-7.8511,-7.8511,-7.8511,-7.8511,-7.8312,-7.7782,-7.7749,-7.7517,-7.6987,-7.6954,-7.6854,-7.6655,-7.6655,-7.6291,-7.5595,-7.5595,-7.459,-7.2507,-7.1624,-7.0433,-6.8817,-6.7968,-6.7968,-6.8707,-7.0243,-7.1393,-7.1331,-7.0789,-6.8882,-6.3634,-6.0655,-5.7543,-5.23,-5.0608,-5.0101,-5.0101,-5.121,-5.3663,-5.8387,-6.0857,-6.4153,-6.9618,-7.1042,-7.211,-7.374,-7.5334,-7.6637,-7.7434,-7.968,-8.1128,-8.1128,-8.1128,-8.1454,-8.2215,-8.3048,-8.3483,-8.3483,-8.3483,-8.3483,-8.3483,-8.2686,-8.1889,-8.1128,-8.1925,-8.2287,-8.2324,-8.2897,-8.269,-8.1822,-8.1644,-8.1063,-8.0209,-8.0175,-8.0175,-8.0209,-8.0209,-8.0755,-8.1461,-8.0542,-8.1282,-8.2597,-8.1664,-8.1799,-8.2427,-8.2595,-8.2045,-8.1326,-8.1545,-8.0951,-8.0344,-8.1088,-8.0392,-7.9503,-7.9888,-7.9766,-7.9549,-7.9637,-7.9637,-7.9351,-7.8676,-7.8511,-7.8511,-7.8511,-7.8511,-7.8511,-7.8511,-7.8511,-7.8511,-7.8511,-7.8511,-7.8511,-7.8511,-7.8511,-7.8511,-7.8511,-7.8511,-7.8511,-7.8511,-7.8511,-7.8511,-7.8511,-7.8511,-7.8179,-7.745,-7.7417,-7.7053,-7.6324,-7.6291,-7.5114,-7.2685,-7.2653,-7.1397,-6.8974,-6.8974,-7.0312,-6.5899,-6.7462,-6.8664,-6.7124,-6.6137,-6.4614,-6.0913,-5.7949,-5.5074,-5.1827,-5.0202,-4.9492,-4.9999,-5.0765,-5.3218,-5.8873,-6.0688,-6.3271,-6.8736,-7.0684,-7.2133,-7.3711,-7.6782,-7.91,-7.9897,-8.0658,-8.1128,-8.1128,-8.1128,-8.1454,-8.2251,-8.3048,-8.3483,-8.3483,-8.3483,-8.3229,-8.2686,-8.1889,-8.1346,-8.1128,-8.1382,-8.207,-8.312,-8.3331,-8.3406,-8.3375,-8.3306,-8.241,-8.0953,-8.0953,-8.0648,-8.0209,-8.0209,-8.0376,-8.069,-8.1048,-8.1088,-8.1031,-8.1391,-8.1217,-8.0902,-8.0984,-8.0816,-8.053,-8.061,-8.0426,-8.0192,-8.0276,-7.9867,-7.9503,-7.9922,-7.9455,-7.9007,-7.9504,-7.9637,-7.9571,-7.9339,-7.967,-7.9869,-7.9372,-7.9272,-7.9107,-7.861,-7.8511,-7.8511,-7.8511,-7.8511,-7.8511,-7.8511,-7.8511,-7.8511,-7.8511,-7.8511,-7.8511,-7.8511,-7.8511,-7.8511,-7.8511,-7.8511,-7.8411,-7.8179,-7.8179,-7.7815,-7.7086,-7.7053,-7.6419,-7.5168,-7.3483,-7.1428,-6.9004,-6.9004,-6.9414,-6.3396,-6.5417,-6.6754,-6.5323,-6.4412,-6.3093,-6.0098,-5.7148,-5.4296,-5.1758,-5.027,-4.956,-4.9999,-5.0649,-5.2675,-5.7638,-5.9459,-6.2117,-6.7547,-6.9665,-7.1717,-7.4474,-7.7543,-7.9752,-8.0585,-8.0947,-8.1128,-8.1128,-8.1382,-8.1889,-8.2686,-8.3519,-8.3953,-8.3953,-8.3664,-8.3084,-8.2324,-8.1491,-8.1128,-8.1128,-8.1128,-8.178,-8.3048,-8.3338,-8.3574,-8.3691,-8.4287,-8.3456,0.0,-8.1697,-8.1257,-8.0581,-8.031,-8.0209,-8.0276,-8.0853,-8.069,-8.0276,-8.0853,-8.069,-8.0209,-8.0209,-8.0209,-8.0209,-8.0209,-8.0209,-8.0158,-8.0006,-7.99,-7.9872,-8.0095,-7.9974,-7.9802,-7.9968,-8.0233,-8.0366,-8.0101,-8.0366,-8.0465,-7.9769,-7.9637,-7.9405,-7.8643,-7.8511,-7.8511,-7.8511,-7.8511,-7.8511,-7.8511,-7.8511,-7.8511,-7.8511,-7.8511,-7.8511,-7.8511,-7.8511,-7.8511,-7.8511,-7.8511,-7.8511,-7.8511,-7.8511,-7.8312,-7.7848,-7.7848,-7.7371,-7.6395,-7.3964,-7.172,-6.9722,-6.9722,-6.9946,0.0,-6.3565,-6.5303,-6.5057,-6.4598,-6.3411,-6.0463,-5.7567,0.0,-5.1894,-5.0676,-5.0202,-5.0304,-5.0913,-5.2401,-5.5546,-5.7877,-6.1086,-6.6426,-6.8573,-7.1359,-7.5991,-7.7834,-7.903,-8.0006,-8.0694,-8.1128,-8.1128,-8.1853,-8.265,-8.3446,-8.4243,-8.4678,-8.4678,-8.3917,-8.3084,-8.2324,-8.1491,-8.1128,-8.1128,-8.1128,-8.1563,-8.2396,-8.3084,-8.3244,-8.3085,-8.4582,-8.4122,-8.2408,-8.2408,-8.1968,-8.1224,-8.0479,-8.0209,-8.0209,-8.0209,-8.0209,-8.0209,-8.0209,-8.0209,-8.0209,-8.0209,-8.0209,-8.0209,-8.0209,-8.0209,-8.0209,-8.0209,-8.0306,-8.046,-8.0493,-8.1067,-8.1547,-8.0829,-8.126,-8.1591,-8.0929,-8.0796,-8.0631,-7.9836,-7.9736,-7.9504,-7.8676,-7.8577,-7.8577,-7.8544,-7.8511,-7.8511,-7.8511,-7.8511,-7.8511,-7.8511,-7.8511,-7.8511,-7.8511,-7.8511,-7.8511,-7.8511,-7.8511,-7.8511,-7.8511,-7.8511,-7.8511,-7.8511,-7.8511,-7.785,-7.6621,-7.4231,-7.2393,-7.1018,-7.1018,-7.1631,-5.619,0.0,-6.086,-5.9149,-5.9029,-5.886,0.0,-5.5245,-5.3653,-5.2334,-5.1454,-5.1319,-5.2469,-5.2841,-5.4499,-5.9235,-6.0876,-6.3239,-6.7969,-7.0972,-7.4322,-7.8562,-7.8819,-7.9464,-8.1527,-8.1346,-8.1128,-8.1128,-8.1853,-8.265,-8.3446,-8.4243,-8.4678,-8.4678,-8.3917,-8.3084,-8.2324,-8.1491,-8.1128,-8.1128,-8.1128,-8.1853,-8.3193,-8.2663,-8.2927,-8.3821,-8.4052,-8.3522,-8.2408,-8.2408,-8.1968,-8.1224,-8.0479,-8.0209,-8.0209,-8.0209,-8.0209,-8.0209,-8.0209,-8.0209,-8.0209,-8.0209,-8.0209,-8.0209,-8.0209,-8.0209,-8.0209,-8.0209,-8.009,-8.005,-8.0412,-8.0462,-8.0472,-8.0652,-8.126,-8.1757,-8.1558,-8.1989,-8.1989,-8.0697,-8.0896,-8.0697,-7.8842,-7.9007,-7.9173,-7.861,-7.8511,-7.8511,-7.8511,-7.8511,-7.8511,-7.8511,-7.8511,-7.8511,-7.8511,-7.8511,-7.8511,-7.8511,-7.8511,-7.8511,-7.8511,-7.8511,-7.8511,-7.8511,-7.8511,-7.785,-7.6621,-7.6021,-7.4529,-7.233,-7.233,-7.1982,-5.4093,-5.6711,-5.9238,-5.837,-5.8194,-5.8052,-5.7219,-5.5475,-5.3687,-5.2536,-5.1995,-5.1961,-5.2807,-5.3518,-5.5243,-5.9099,-6.1231,-6.4325,-6.9893,-7.4062,-7.7382,-7.9571,-8.0113,-8.0692,-8.1636,-8.1382,-8.1128,-8.1128,-8.1853,-8.265,-8.3446,-8.4243,-8.4859,-8.5221,-8.4098,-8.3084,-8.2324,-8.1491,-8.1128,-8.1128,-8.1454,-8.2069,-8.2848,-8.2668,-8.3111,-8.3984,-8.3866,-8.365,-8.3389,-8.2678,-8.2171,-8.1697,-8.0615,-8.0209,-8.0209,-8.0209,-8.0209,-8.0209,-8.0209,-8.0209,-8.0209,-8.0209,-8.0209,-8.0209,-8.0209,-8.0209,-8.0209,-8.0209,-8.0242,-8.0423,-8.0847,-8.0983,-8.1125,-8.1581,-8.2022,-8.2287,-8.2287,-8.2618,-8.2552,-8.1426,-8.1525,-8.1194,-7.9339,-7.9372,-7.9372,-7.8643,-7.8511,-7.8511,-7.8511,-7.8511,-7.8511,-7.8511,-7.8511,-7.8511,-7.8511,-7.8511,-7.8511,-7.8511,-7.8511,-7.8511,-7.8511,-7.8511,-7.8511,-7.8511,-7.8511,-7.785,-7.6621,-7.6621,-7.5295,-7.2798,-7.2798,-7.2109,-5.389,-5.6508,-5.9116,-5.9246,-5.8923,-5.8524,-5.8394,-5.632,-5.4059,-5.2739,-5.257,-5.2807,-5.3247,-5.4397,-5.6089,-5.866,-6.1535,-6.5595,-7.1643,-7.6162,-7.9096,-7.9655,-8.0942,-8.1636,-8.1309,-8.1165,-8.1128,-8.1128,-8.1961,-8.2758,-8.3446,-8.4388,-8.5185,-8.5873,-8.446,-8.3229,-8.2286,-8.1346,-8.0912,-8.0912,-8.1561,-8.1904,-8.1911,-8.2495,-8.3077,-8.3624,-8.3567,-8.384,-8.42,-8.2915,-8.234,-8.2103,-8.0716,-8.0209,-8.0209,-8.0209,-8.0209,-8.0209,-8.0209,-8.0209,-8.0209,-8.0209,-8.0209,-8.0209,-8.0209,-8.0209,-8.0209,-8.0209,-8.0444,-8.0808,-8.1249,-8.1717,-8.2123,-8.2608,-8.2817,-8.2883,-8.2883,-8.2883,-8.2684,-8.1923,-8.1889,-8.1492,-8.0034,-7.9869,-7.967,-7.8809,-7.8709,-7.8643,-7.8544,-7.8511,-7.8511,-7.8511,-7.8511,-7.8403,-7.8242,-7.8209,-7.8209,-7.8209,-7.8403,-7.8511,-7.8511,-7.8511,-7.8511,-7.8511,-7.8511,-7.7992,-7.6902,-7.6902,-7.5618,-7.3108,-7.3108,-7.2267,-5.5615,-5.8056,-5.9306,-5.6745,-5.6526,-5.6796,-5.6059,-5.4738,-5.3585,-5.3382,-5.3822,-5.5006,-5.7509,-5.8186,-5.9674,-6.3835,-6.6508,-6.9134,-7.225,-7.3798,-7.5936,-7.9432,-7.9427,-7.9929,-8.1925,-8.1491,-8.1128,-8.1128,-8.2468,-8.3374,-8.3483,-8.4895,-8.5764,-8.5909,-8.5004,-8.3762,-8.217,-8.07,-7.9985,-8.0021,-7.9949,-8.0274,-8.0922,-8.0862,-8.1562,-8.2866,-8.2682,-8.2664,-8.2746,-8.2509,-8.2035,-8.1359,-8.0513,-8.0209,-8.0209,-8.0209,-8.0209,-8.0209,-8.0209,-8.0209,-8.0209,-8.0209,-8.0209,-8.0209,-8.0209,-8.0209,-8.0209,-8.0209,-8.0073,-8.0087,-8.0512,-8.0983,-8.1412,-8.1846,-8.2453,-8.2883,-8.2883,-8.2883,-8.2684,-8.1923,-8.2287,-8.2254,-8.0796,-8.1061,-8.0995,-7.967,-7.9471,-7.9239,-7.861,-7.8511,-7.8511,-7.8511,-7.8511,-7.8046,-7.6958,-7.6902,-7.6902,-7.6902,-7.7938,-7.8511,-7.8511,-7.8511,-7.8511,-7.8511,-7.8511,-7.8403,-7.8209,-7.8209,-7.6902,-7.441,-7.441,-7.3169,-5.4126,-5.6021,-5.7659,-5.735,-5.8806,-6.0203,-5.9838,-5.8358,-5.6968,-5.6562,-5.6765,-5.7509,-5.9268,-6.0622,-6.2922,-6.7387,-6.935,-7.0944,-7.2829,-7.4568,-7.6474,-7.8807,-7.9539,-8.0316,-8.1527,-8.1309,-8.1273,-8.1708,-8.2432,-8.2972,-8.331,-8.456,-8.5213,-8.5107,-8.4316,-8.3295,-8.2116,-8.0005,-7.898,-7.9049,-7.9796,-8.0063,-7.9997,-8.072,-8.1579,-8.2544,-8.2445,-8.2644,-8.2949,-8.2577,-8.1968,-8.1224,-8.0479,-8.0209,-8.0209,-8.0209,-8.0209,-8.0209,-8.0209,-8.0209,-8.0209,-8.0209,-8.0209,-8.0209,-8.0209,-8.0209,-8.0209,-8.0209,-8.0006,-8.0019,-8.0814,-8.1083,-8.1346,-8.2177,-8.2651,-8.2883,-8.2883,-8.2585,-8.232,-8.2386,-8.2353,-8.2088,-8.1393,-8.1558,-8.1426,-8.0366,-7.9869,-7.9504,-7.9173,-7.8776,-7.8511,-7.8511,-7.8511,-7.7992,-7.6734,-7.6621,-7.6621,-7.6621,-7.7796,-7.8511,-7.8511,-7.8511,-7.8511,-7.8511,-7.8511,-7.8511,-7.8511,-7.8511,-7.7213,-7.4707,-7.4707,-7.3353,-5.3348,-5.4769,-5.6704,-5.8699,-6.0458,-6.1931,-6.2965,-6.1323,-5.9539,-5.9302,-5.9539,-6.0013,-6.0757,-6.3057,-6.5933,-6.9383,-7.0703,-7.1774,-7.3085,-7.5382,-7.7275,-7.8043,-7.9811,-8.1008,-8.1093,-8.1128,-8.1418,-8.2215,-8.2286,-8.2524,-8.3147,-8.3908,-8.4342,-8.4396,-8.3584,-8.2785,-8.2079,-7.9661,-7.841,-7.8384,-7.9522,-7.9796,-7.9287,-8.0638,-8.157,-8.2137,-8.2137,-8.2475,-8.2949,-8.2374,-8.1697,-8.0987,-8.0412,-8.0209,-8.0209,-8.0209,-8.0209,-8.0209,-8.0209,-8.0209,-8.0209,-8.0209,-8.0209,-8.0209,-8.0209,-8.0209,-8.0209,-8.0209,-7.9955,-7.9916,-8.078,-8.0896,-8.0971,-8.1912,-8.2254,-8.2386,-8.2386,-8.1923,-8.1691,-8.2287,-8.1923,-8.1591,-8.1757,-8.179,-8.1591,-8.1028,-8.0498,-8.0067,-7.9902,-7.9239,-7.8776,-7.8776,-7.8341,-7.7577,-7.6249,-7.5906,-7.5963,-7.6565,-7.7796,-7.8511,-7.8511,-7.8511,-7.8511,-7.8511,-7.8511,-7.8511,-7.8511,-7.8209,-7.6902,-7.4707,-7.441,-7.3046,-5.5716,-5.7103,-5.8121,-5.9648,-5.8121,-5.7316,-6.1345,-6.0091,-5.8423,-5.9742,-6.1163,-6.2381,-6.3125,-6.6237,-6.8808,-6.9113,-7.0364,-7.1624,-7.2416,-7.4698,-7.6574,-7.7393,-7.961,-8.1093,-8.1128,-8.1128,-8.1418,-8.2215,-8.2155,-8.2437,-8.3182,-8.3147,-8.3528,-8.4355,-8.3485,-8.2664,-8.1934,-8.015,-7.8924,-7.821,-7.8211,-7.8545,-7.9158,-7.9937,-8.0716,-8.1359,-8.1359,-8.1393,-8.1426,-8.1393,-8.0919,-8.0276,-8.0209,-8.0209,-8.0209,-8.0209,-8.0209,-8.0209,-8.0209,-8.0209,-8.0209,-8.0209,-8.0209,-8.0209,-8.0209,-8.0209,-8.0209,-8.0209,-7.9853,-7.9474,-7.9522,-7.9635,-7.9736,-7.9836,-8.0366,-8.0863,-8.0863,-8.0796,-8.0763,-8.0829,-8.0796,-8.0995,-8.1658,-8.179,-8.179,-8.1724,-8.1658,-8.1393,-8.0697,-8.0001,-7.9483,-7.9483,-7.7859,-7.6192,-7.4944,-7.3749,-7.4051,-7.6451,-7.7796,-7.8511,-7.8511,-7.8511,-7.8511,-7.8511,-7.8511,-7.8511,-7.8511,-7.7324,-7.6021,-7.4648,-7.3476,-7.2204,-5.3687,-5.5581,-5.7679,-5.9607,-5.9641,-5.9851,-6.2425,-6.3255,-6.3599,-6.4174,-6.4749,-6.5222,-6.5527,-6.7523,-6.9248,-6.9688,-7.0635,-7.1401,-7.1732,-7.38,-7.5666,-7.6556,-7.8292,-7.9872,-8.0985,-8.0584,-8.1014,-8.2903,-8.3006,-8.3001,-8.3069,-8.3593,-8.3478,-8.2686,-8.2313,-8.1812,-8.1172,-7.9407,-7.8653,-7.8867,-7.8258,-7.8382,-7.9126,-7.987,-8.0581,-8.1291,-8.1291,-8.1291,-8.1291,-8.1291,-8.0851,-8.0209,-8.0209,-8.0209,-8.0209,-8.0209,-8.0209,-8.0209,-8.0209,-8.0209,-8.0209,-8.0209,-8.0209,-8.0209,-8.0209,-8.0209,-8.0158,-8.0006,-7.9699,-7.9522,-7.9957,-7.9868,-7.9736,-8.0167,-8.0498,-8.0697,-8.0697,-8.0332,-8.0167,-8.0598,-8.0332,-8.0399,-8.1591,-8.179,-8.1956,-8.2419,-8.1691,-8.0995,-8.073,-8.0067,-7.9384,-7.892,-7.6839,-7.5368,-7.5207,-7.4017,-7.3886,-7.5127,-7.6525,-7.7687,-7.8457,-7.808,-7.7848,-7.7848,-7.7384,-7.698,-7.6638,-7.6164,-7.5112,-7.3537,-7.3046,-7.2109,-5.3788,-5.5412,-5.7746,-6.0216,-6.0689,-6.1231,-6.3632,-6.5358,-6.6677,-6.7387,-6.732,-6.7218,-6.7489,-6.8402,-6.935,-7.006,-7.0804,-7.1312,-7.1312,-7.3576,-7.5499,-7.6116,-7.8014,-7.9757,-8.0985,-8.051,-8.1083,-8.3337,-8.3224,-8.3029,-8.3016,-8.3305,-8.2909,-8.1651,-8.1304,-8.1123,-8.1059,-7.8987,-7.853,-7.9614,-7.853,-7.8517,-7.9464,-7.9972,-8.0479,-8.0953,-8.0953,-8.0953,-8.0953,-8.0953,-8.0648,-8.0209,-8.0209,-8.0209,-8.0209,-8.0209,-8.0209,-8.0209,-8.0209,-8.0209,-8.0209,-8.0209,-8.0209,-8.0209,-8.0209,-8.0209,-8.0158,-7.9904,-7.9596,-7.9522,-7.9919,-7.9595,-7.9405,-7.9902,-8.0001,-8.0001,-8.0001,-7.9637,-7.9405,-7.9902,-7.9604,-7.967,-8.0896,-8.1293,-8.1624,-8.2121,-8.1525,-8.0962,-8.073,-8.0067,-7.9176,-7.8004,-7.6156,-7.5147,-7.5506,-7.3955,-7.358,-7.4898,-7.5556,-7.6473,-7.7762,-7.7351,-7.7053,-7.7053,-7.6556,-7.6202,-7.6136,-7.5297,-7.4363,-7.3415,-7.258,-7.1728,-5.6968,-5.734,-5.8626,-6.1637,-6.0723,-6.0283,-6.4715,-6.5696,-6.6373,-6.8639,-6.847,-6.8166,-6.8944,-6.9113,-6.935,-7.006,-7.0804,-7.1312,-7.1312,-7.4133,-7.6232,-7.6232,-7.9094,-8.1056,-8.1128,-8.1056,-8.178,-8.3374,-8.2619,-8.2347,-8.2972,-8.213,-8.1603,-8.1603,-8.069,-8.072,-8.1796,-7.9308,-7.8817,-8.0384,-7.8769,-7.8788,-8.0209,-8.0209,-8.0209,-8.0209,-8.0209,-8.0209,-8.0209,-8.0209,-8.0209,-8.0209,-8.0209,-8.0209,-8.0209,-8.0209,-8.0209,-8.0209,-8.0209,-8.0209,-8.0209,-8.0209,-8.0209,-8.0209,-8.0209,-8.0209,-8.0158,-7.9904,-7.9596,-7.9336,-7.8988,-7.8724,-7.8511,-7.8511,-7.8511,-7.8511,-7.8511,-7.8511,-7.8511,-7.8511,-7.8511,-7.8742,-7.945,-8.02,-8.0697,-8.0697,-8.1293,-8.1525,-8.0763,-8.0067,-7.887,-7.6831,-7.614,-7.5714,-7.5538,-7.3195,-7.2998,-7.6115,-7.5081,-7.4973,-7.6239,-7.6291,-7.6291,-7.6291,-7.6291,-7.6655,-7.7331,-7.4815,-7.3954,-7.4589,-7.2109,-7.0889,-5.3721,-5.6494,-5.9674,-6.0554,-6.3463,-6.6305,-6.7083,-6.7252,-6.776,-6.9485,-6.9688,-6.9417,-6.9147,-6.9519,-6.9925,-7.0161,-7.0804,-7.1312,-7.1312,-7.4133,-7.6232,-7.6232,-7.8562,-8.0399,-8.1021,-8.0546,-8.1119,-8.3337,-8.3224,-8.3065,-8.3016,-8.2766,-8.1991,-8.0641,-8.0326,-8.0446,-8.0945,-8.0167,-8.0029,-8.0552,-8.0534,-8.0443,-8.0209,-8.0209,-8.0479,-8.0919,-8.0412,-8.0479,-8.0919,-8.0412,-8.0209,-8.0209,-8.0209,-8.0209,-8.0209,-8.0209,-8.0209,-8.0209,-8.0209,-8.0209,-8.0209,-8.0209,-8.0209,-8.0209,-8.0209,-8.0209,-8.0107,-7.9647,-7.944,-7.9284,-7.8724,-7.8564,-7.8511,-7.8511,-7.8511,-7.8511,-7.8511,-7.8511,-7.8511,-7.8511,-7.8511,-7.8742,-7.945,-7.9802,-8.0101,-8.0598,-8.0432,-8.02,-7.9968,-7.9306,-7.8978,-7.9408,-7.6792,-7.5554,-7.6724,-7.4058,-7.3034,-7.4713,-7.446,-7.487,-7.6258,-7.5827,-7.5595,-7.5595,-7.5065,-7.4771,-7.4582,-7.3458,-7.2791,-7.2579,-7.1453,-7.0889,-5.7065,-5.9836,-6.2566,-6.4133,-6.5933,-6.7489,-6.8199,-6.8605,-6.9147,-7.0364,-7.0398,-7.0229,-7.0398,-7.0297,-7.0364,-7.0973,-7.121,-7.1312,-7.1312,-7.3835,-7.5666,-7.5666,-7.7772,-7.9601,-8.0509,-8.0099,-8.0782,-8.3301,-8.3149,-8.295,-8.3016,-8.2641,-8.1745,-8.0259,-8.0209,-8.0185,-8.0061,-7.9981,-7.9981,-8.0105,-8.0463,-8.0433,-8.0209,-8.0513,-8.0716,-8.0818,-8.0378,-8.0445,-8.0818,-8.0378,-8.0209,-8.0209,-8.0209,-8.0209,-8.0209,-8.0209,-8.0209,-8.0209,-8.0209,-8.0209,-8.0209,-8.0209,-8.0209,-8.0209,-8.0209,-8.0209,-8.0107,-7.9544,-7.9388,-7.9232,-7.8651,-7.8511,-7.8511,-7.8511,-7.8511,-7.8511,-7.8511,-7.8511,-7.8511,-7.8511,-7.8511,-7.8676,-7.9107,-7.9438,-7.967,-7.9802,-7.9471,-7.9173,-7.9173,-7.9041,-7.9173,-7.9769,-7.7739,-7.6532,-7.6928,-7.5002,-7.3918,-7.4169,-7.4221,-7.4568,-7.543,-7.5065,-7.4884,-7.4884,-7.4453,-7.4196,-7.4122,-7.3131,-7.2535,-7.245,-7.1362,-7.0889,-6.4295,-6.5384,-6.6103,-6.9938,-6.7929,-6.573,-6.847,-6.962,-7.0331,-7.1142,-7.0804,-7.077,-7.2056,-7.1244,-7.0804,-7.209,-7.1751,-7.1312,-7.1312,-7.3313,-7.4818,-7.4818,-7.6949,-7.8764,-7.9669,-7.9754,-8.0706,-8.315,-8.2577,-8.2306,-8.2839,-8.2037,-8.116,-8.0259,-8.0209,-7.9926,-7.9316,-7.9308,-7.9308,-7.9316,-7.9411,-7.97,-8.0209,-8.0885,-8.0818,-8.0209,-8.0276,-8.0242,-8.0209,-8.0209,-8.0209,-8.0209,-8.0209,-8.0209,-8.0209,-8.0209,-8.0209,-8.0209,-8.0209,-8.0209,-8.0209,-8.0209,-8.0209,-8.0209,-8.0209,-8.0209,-8.0107,-7.9544,-7.9388,-7.9232,-7.8651,-7.8511,-7.8511,-7.8511,-7.8511,-7.8511,-7.8511,-7.8511,-7.8511,-7.8511,-7.8511,-7.8511,-7.8511,-7.9074,-7.9306,-7.861,-7.8511,-7.8511,-7.8511,-7.9107,-7.9218,-7.8515,-7.842,-7.7803,-7.636,-7.5625,-7.4941,-7.4352,-7.4255,-7.4255,-7.4321,-7.4255,-7.4255,-7.4321,-7.4255,-7.4619,-7.5363,-7.3499,-7.2943,-7.3579,-7.1711,-7.0889,-6.4393,-6.426,-6.4782,-6.7167,-6.7963,-6.8301,-6.8944,-6.9214,-6.9722,-7.1041,-7.165,-7.1853,-7.1582,-7.1751,-7.1853,-7.1582,-7.1413,-7.1312,-7.1312,-7.3313,-7.4818,-7.4818,-7.6949,-7.8728,-7.9492,-7.9684,-8.0452,-8.205,-8.215,-8.2057,-8.1922,-8.1698,-8.116,-8.0259,-8.0209,-7.9926,-7.9316,-8.0471,-8.0471,-7.935,-8.1091,-8.1312,-8.0209,-8.0344,-8.0344,-8.0242,-8.0784,-8.0716,-8.0209,-8.0209,-8.0209,-8.0209,-8.0209,-8.0209,-8.0209,-8.0209,-8.0209,-8.0209,-8.0209,-8.0209,-8.0209,-8.0209,-8.0209,-8.0209,-8.0209,-8.0209,-8.0107,-7.9544,-7.9388,-7.9232,-7.8651,-7.8511,-7.8511,-7.8511,-7.8511,-7.8511,-7.8511,-7.8511,-7.8511,-7.8511,-7.8511,-7.8511,-7.8511,-7.8643,-7.8709,-7.8544,-7.8511,-7.8511,-7.8511,-7.8676,-7.8496,-7.7916,-7.6516,-7.5586,-7.5699,-7.4156,-7.3738,-7.4996,-7.4553,-7.4487,-7.505,-7.452,-7.4487,-7.5032,-7.452,-7.48,-7.6092,-7.3723,-7.2943,-7.3579,-7.1711,-7.0889,-6.6144,-6.6328,-6.5616,-6.7421,-6.8504,-6.9113,-6.9113,-6.9113,-6.9519,-7.1007,-7.1887,-7.2293,-7.1921,-7.2157,-7.2259,-7.1887,-7.1548,-7.1312,-7.1312,-7.2948,-7.4182,-7.4182,-7.5898,-7.7411,-7.8267,-7.8469,-7.9283,-8.1094,-8.0961,-8.1024,-8.1582,-8.116,-8.074,-8.0209,-8.0209,-8.0053,-7.9741,-8.0526,-8.0526,-7.9741,-8.0936,-8.1065,-8.0209,-8.0209,-8.0209,-8.0209,-8.0615,-8.0547,-8.0209,-8.0209,-8.0209,-8.0209,-8.0209,-8.0209,-8.0209,-8.0209,-8.0209,-8.0209,-8.0209,-8.0209,-8.0209,-8.0209,-8.0209,-8.0209,-8.0209,-8.0209,-8.0107,-7.9544,-7.9388,-7.9232,-7.8651,-7.8511,-7.8511,-7.8511,-7.8511,-7.8511,-7.8511,-7.8511,-7.8511,-7.8511,-7.8246,-7.8113,-7.8444,-7.8511,-7.8511,-7.8511,-7.8511,-7.8511,-7.8511,-7.7992,-7.7487,-7.7196,-7.6012,-7.5147,-7.4965,-7.5,-7.5127,-7.5261,-7.5231,-7.5231,-7.5264,-7.4619,-7.442,-7.4785,-7.4701,-7.5065,-7.5827,-7.398,-7.3259,-7.3579,-7.1711,-7.0889,-6.6417,-6.7908,-6.7038,-6.8768,-6.9282,-6.9282,-6.9282,-6.9282,-6.9688,-7.1041,-7.1988,-7.2496,-7.2259,-7.2428,-7.2496,-7.2259,-7.1718,-7.1312,-7.1312,-7.2563,-7.3477,-7.3477,-7.4796,-7.6075,-7.6976,-7.7099,-7.7975,-8.0089,-7.9689,-7.9787,-8.0919,-8.0516,-8.0173,-8.0006,-8.0141,-8.0209,-8.0209,-8.031,-8.031,-8.0209,-8.0209,-8.0209,-8.0209,-8.0209,-8.0209,-8.0209,-8.0209,-8.0209,-8.0209,-8.0209,-8.0209,-8.0209,-8.0209,-8.0209,-8.0209,-8.0209,-8.0209,-8.0209,-8.0209,-8.0209,-8.0209,-8.0209,-8.0209,-8.0209,-8.0209,-8.0209,-8.0107,-7.9544,-7.9388,-7.9232,-7.8651,-7.8511,-7.8511,-7.8511,-7.8511,-7.8511,-7.8511,-7.8511,-7.8511,-7.8511,-7.7914,-7.7616,-7.8212,-7.8345,-7.8378,-7.8511,-7.8511,-7.8511,-7.8511,-7.7379,-7.6508,-7.6306,-7.5768,-7.512,-7.4332,-7.6096,-7.6799,-7.5544,-7.5993,-7.5993,-7.5297,-7.4619,-7.4288,-7.442,-7.5017,-7.536,-7.5535,-7.4221,-7.3552,-7.3442,-7.1709,-7.0889,-6.0195,-6.3415,-6.7118,-6.9166,-6.9881,-7.0026,-7.0026,-7.0026,-7.0297,-7.1142,-7.2394,-7.2969,-7.1684,-7.2496,-7.2935,-7.165,-7.1379,-7.1312,-7.1312,-7.2563,-7.3477,-7.3477,-7.4796,-7.6028,-7.6849,-7.7033,-7.7423,-7.8292,-7.9024,-7.9203,-7.8555,-7.9714,-8.0008,-7.9261,-7.987,-8.0209,-8.0209,-8.0818,-8.0818,-8.0209,-8.0209,-8.0209,-8.0209,-8.0209,-8.0209,-8.0209,-8.0209,-8.0209,-8.0209,-8.0209,-8.0209,-8.0209,-8.0209,-8.0209,-8.0209,-8.0209,-8.0209,-8.0209,-8.0209,-8.0209,-8.0209,-8.0209,-8.0209,-8.0209,-8.0209,-8.0209,-8.0107,-7.9544,-7.9388,-7.9232,-7.8651,-7.8511,-7.8511,-7.8511,-7.8511,-7.8511,-7.8511,-7.8511,-7.8511,-7.8511,-7.7914,-7.745,-7.755,-7.755,-7.7782,-7.8411,-7.8511,-7.8511,-7.8511,-7.7379,-7.6192,-7.5061,-7.4324,-7.3823,-7.3713,-7.5,-7.5919,-7.6121,-7.6258,-7.5993,-7.5297,-7.4619,-7.452,-7.5132,-7.5231,-7.5688,-7.6424,-7.4525,-7.339,-7.2861,-7.1507,-7.0889,-6.0203,-6.4144,-6.7713,-6.9548,-7.0128,-7.0195,-7.0195,-7.0195,-7.0398,-7.1142,-7.2157,-7.2563,-7.1515,-7.2157,-7.2529,-7.1481,-7.1312,-7.1312,-7.1312,-7.2563,-7.3477,-7.3477,-7.4796,-7.5845,-7.6183,-7.6305,-7.659,-7.7348,-7.7772,-7.8049,-7.7991,-7.8686,-7.9061,-7.9092,-7.9431,-8.0175,-8.1426,-8.1325,-8.1122,-8.0784,-8.0412,-8.0209,-8.0209,-8.0209,-8.0209,-8.0209,-8.0209,-8.0209,-8.0209,-8.0209,-8.0209,-8.0209,-8.0209,-8.0209,-8.0209,-8.0209,-8.0209,-8.0209,-8.0209,-8.0209,-8.0209,-8.0209,-8.0209,-8.0209,-8.0209,-8.0209,-8.0107,-7.9544,-7.9388,-7.9232,-7.8651,-7.8511,-7.8511,-7.8511,-7.8511,-7.8511,-7.8511,-7.8511,-7.8279,-7.745,-7.702,-7.6655,-7.6291,-7.6887,-7.7517,-7.7848,-7.8246,-7.8511,-7.8511,-7.679,-7.5295,-7.4767,-7.3769,-7.312,-7.3074,-7.4918,-7.6016,-7.5776,-7.649,-7.6424,-7.533,-7.533,-7.5186,-7.4817,-7.4817,-7.5201,-7.595,-7.4084,-7.3043,-7.2736,-7.1503,-7.0889,-5.9896,-6.3269,-6.5661,-6.8574,-6.935,-6.9519,-7.0297,-7.0466,-7.0635,-7.121,-7.1751,-7.1954,-7.1413,-7.1921,-7.2157,-7.1447,-7.1312,-7.1312,-7.1312,-7.2563,-7.3477,-7.3477,-7.4796,-7.5709,-7.5709,-7.5709,-7.5946,-7.6555,-7.6829,-7.7114,-7.7416,-7.7813,-7.8235,-7.8517,-7.872,-7.987,-8.2103,-8.1765,-8.1494,-8.1291,-8.0547,-8.0209,-8.0209,-8.0209,-8.0209,-8.0209,-8.0209,-8.0209,-8.0209,-8.0209,-8.0209,-8.0209,-8.0209,-8.0209,-8.0209,-8.0209,-8.0209,-8.0209,-8.0209,-8.0209,-8.0209,-8.0209,-8.0209,-8.0209,-8.0209,-8.0209,-8.0107,-7.9544,-7.9388,-7.9232,-7.8651,-7.8511,-7.8511,-7.8511,-7.8511,-7.8477,-7.8279,-7.8246,-7.7815,-7.6324,-7.6059,-7.5927,-7.5595,-7.6424,-7.7252,-7.7649,-7.8179,-7.8511,-7.8511,-7.6565,-7.5061,-7.4707,-7.3954,-7.3333,-7.2885,-7.5266,-7.6376,-7.5345,-7.6622,-7.6788,-7.533,-7.5927,-7.5779,-7.471,-7.4379,-7.4397,-7.4818,-7.3439,-7.2643,-7.2267,-7.1311,-7.0889,-5.639,-5.7443,-5.877,-6.5352,-6.6981,-6.7726,-7.0601,-7.1244,-7.1278,-7.1312,-7.1345,-7.1345,-7.1312,-7.1921,-7.2157,-7.1447,-7.1312,-7.1312,-7.1312,-7.2563,-7.3477,-7.3477,-7.4796,-7.5709,-7.5709,-7.5709,-7.5709,-7.5743,-7.6599,-7.6691,-7.5859,-7.7318,-7.7822,-7.7043,-7.7671,-7.9092,-8.1325,-8.2002,-8.2002,-8.1291,-8.0547,-8.0209,-8.0209,-8.0209,-8.0209,-8.0209,-8.0209,-8.0209,-8.0209,-8.0209,-8.0209,-8.0209,-8.0209,-8.0209,-8.0209,-8.0209,-8.0209,-8.0209,-8.0209,-8.0209,-8.0209,-8.0209,-8.0209,-8.0209,-8.0209,-8.0209,-8.0107,-7.9544,-7.9388,-7.9232,-7.8651,-7.8511,-7.8511,-7.8511,-7.8511,-7.8345,-7.7616,-7.7484,-7.7053,-7.5628,-7.533,-7.5529,-7.6159,-7.6324,-7.6854,-7.8246,-7.8511,-7.8511,-7.8511,-7.7324,-7.6021,-7.4826,-7.5125,-7.4847,-7.366,-7.5917,-7.6769,-7.5363,-7.6622,-7.6788,-7.533,-7.5927,-7.6009,-7.5455,-7.4238,-7.3418,-7.2923,-7.286,-7.2141,-7.1018,-7.0889,-7.0889,-5.3908,-5.5625,-5.7535,-6.1486,-6.4309,-6.6508,-6.8064,-6.9925,-7.1312,-7.1312,-7.1312,-7.1312,-7.1312,-7.1548,-7.1616,-7.1345,-7.1312,-7.1312,-7.1312,-7.2157,-7.2969,-7.3443,-7.395,-7.4661,-7.5608,-7.527,-7.5202,-7.5676,-7.6007,-7.6054,-7.5709,-7.6245,-7.67,-7.6893,-7.7164,-7.8348,-8.0547,-8.1325,-8.1562,-8.1291,-8.0547,-8.0209,-8.0209,-8.0209,-8.0209,-8.0209,-8.0209,-8.0209,-8.0209,-8.0209,-8.0209,-8.0209,-8.0209,-8.0209,-8.0141,-7.9667,-7.9498,-7.9498,-7.9498,-7.9498,-7.9566,-8.004,-8.0209,-8.0209,-8.0209,-8.0107,-7.9853,-7.9492,-7.9232,-7.8988,-7.8617,-7.8511,-7.8511,-7.8511,-7.8511,-7.8312,-7.7583,-7.7053,-7.6556,-7.6026,-7.5198,-7.48,-7.5529,-7.6026,-7.6655,-7.7649,-7.8212,-7.8511,-7.8511,-7.7379,-7.6135,-7.4826,-7.5624,-7.5338,-7.3154,-7.5256,-7.6092,-7.4668,-7.5496,-7.5595,-7.4602,-7.6159,-7.595,-7.3664,-7.4061,-7.38,-7.2798,-7.1982,-7.1311,-7.0889,-7.0889,-7.0889,-5.098,-5.2654,-5.4902,-5.8465,-6.0858,-6.326,-6.6779,-6.8741,-7.0094,-7.1109,-7.1312,-7.1312,-7.1312,-7.1312,-7.1312,-7.1312,-7.1515,-7.1582,-7.1345,-7.1954,-7.2665,-7.3409,-7.3477,-7.3984,-7.5202,-7.4897,-7.4796,-7.5303,-7.5574,-7.5709,-7.5709,-7.5709,-7.6082,-7.686,-7.7367,-7.8348,-7.9837,-8.0784,-8.1156,-8.0919,-8.0412,-8.0209,-8.0209,-8.0209,-8.0209,-8.0209,-8.0209,-8.0209,-8.0209,-8.0209,-8.0209,-8.0175,-7.9938,-7.9837,-7.9735,-7.8991,-7.872,-7.872,-7.872,-7.8889,-7.9194,-7.9667,-8.0006,-8.0209,-8.0209,-8.0006,-7.975,-7.9492,-7.9146,-7.883,-7.8564,-7.8511,-7.8511,-7.8511,-7.8511,-7.8378,-7.7881,-7.702,-7.6225,-7.6026,-7.4999,-7.4453,-7.5132,-7.586,-7.6556,-7.7318,-7.8047,-7.8511,-7.8511,-7.7741,-7.6621,-7.4885,-7.6192,-7.6079,-7.3154,-7.5028,-7.5794,-7.4652,-7.4999,-7.5165,-7.49,-7.6123,-7.5677,-7.3349,-7.3791,-7.3476,-7.2172,-7.1311,-7.0889,-7.0919,-7.1311,-7.1567,0.0,0.0,0.0,-5.6156,-5.663,-5.7983,-6.6711,-6.7624,-6.7523,-7.0567,-7.1176,-7.121,-7.1312,-7.1345,-7.1345,-7.1345,-7.1954,-7.2157,-7.1447,-7.1954,-7.2665,-7.3375,-7.3443,-7.3747,-7.4525,-7.4627,-7.4627,-7.4661,-7.5303,-7.5709,-7.5709,-7.5709,-7.6082,-7.686,-7.8314,-7.9092,-7.9126,-8.0547,-8.0885,-8.0209,-8.0209,-8.0209,-8.0209,-8.0209,-8.0209,-8.0209,-8.0209,-8.0209,-8.0209,-8.0209,-8.0209,-8.0141,-7.9397,-7.9126,-7.9025,-7.8247,-7.7942,-7.7942,-7.7942,-7.845,-7.9058,-7.9092,-7.96,-8.0175,-8.0175,-8.0006,-7.975,-7.9492,-7.9146,-7.883,-7.8564,-7.8511,-7.8511,-7.8511,-7.8511,-7.8511,-7.8511,-7.7384,-7.6125,-7.543,-7.4752,-7.4453,-7.5132,-7.5827,-7.6523,-7.7318,-7.8014,-7.8511,-7.8511,-7.8511,-7.7522,-7.5002,-7.6958,-7.7227,-7.3961,-7.5288,-7.6026,-7.533,-7.5264,-7.5529,-7.6225,-7.5767,-7.5192,-7.4644,-7.3445,-7.2141,-7.0889,-7.0889,-7.0889,-7.0889,-7.2204,-7.2736,-4.6482,0.0,0.0,0.0,0.0,0.0,-5.8727,-6.1197,-6.3835,-6.732,-6.8064,-6.8707,-7.0906,-7.1751,-7.209,-7.209,-7.2259,-7.2326,-7.2124,-7.2259,-7.2462,-7.2665,-7.2699,-7.3206,-7.4492,-7.4627,-7.483,0.0,-7.5574,-7.5709,-7.5709,-7.5709,-7.6082,-7.686,-7.7807,-7.8551,-7.9092,-8.004,-8.0412,-8.0209,-8.0209,-8.0209,-8.0209,-8.0209,-8.0209,-8.0209,-8.0209,-8.0209,-8.0209,-8.0209,-8.0209,-8.0141,-7.9397,-7.9126,-7.8957,-7.7671,-7.7198,-7.7198,-7.7198,-7.7333,-7.7671,-7.8754,-7.9261,-7.9498,-8.004,-8.0006,-7.975,-7.9492,-7.9146,-7.883,-7.8564,-7.8511,-7.8511,-7.8511,-7.8511,-7.8511,-7.8511,-7.7782,-7.6887,-7.6159,-7.5032,-7.4453,-7.5132,-7.543,-7.5993,-7.7219,-7.7583,-7.7914,-7.8444,-7.8511,-7.7883,-7.6249,-7.7522,-7.7555,-7.5193,-7.5808,-7.6026,-7.533,-7.4818,-7.4619,-7.4767,-7.4755,-7.4229,-7.3164,-7.2918,-7.2141,-7.0889,-7.0889,-7.0889,-7.0889,-7.2204,-7.233,-4.6908,-4.78,-4.912,-4.9661,0.0,0.0,-5.8017,-6.0182,-6.2719,-6.7658,-6.8707,-6.9214,-7.1007,-7.165,-7.2157,-7.2766,-7.2868,-7.2868,-7.2868,-7.2597,-7.2496,-7.28,-7.2597,-7.2732,-7.3612,-7.4255,-7.4661,-7.4762,-7.5337,-7.5709,-7.5709,-7.5709,-7.6217,-7.7299,-7.7773,-7.8483,-7.9566,-8.0006,-8.0209,-8.0209,-8.0209,-8.0209,-8.0209,-8.0209,-8.0209,-8.0209,-8.0209,-8.0209,-8.0209,-8.0209,-8.0209,-8.0141,-7.9397,-7.8923,-7.8517,-7.7333,-7.669,-7.6386,-7.6386,-7.6826,-7.7502,-7.8348,-7.9058,-7.9634,-8.0073,-8.0006,-7.975,-7.9492,-7.9074,-7.8724,-7.8511,-7.8511,-7.8511,-7.8511,-7.8511,-7.8511,-7.8511,-7.7682,-7.6821,-7.639,-7.5397,-7.4719,-7.4851,-7.5116,-7.5662,-7.6788,-7.7219,-7.7682,-7.8444,-7.8511,-7.7992,-7.6734,-7.7741,-7.7828,-7.6094,-7.6165,-7.6125,-7.5728,-7.4734,-7.4354,-7.4686,-7.4232,-7.3683,-7.3006,-7.2576,-7.1867,-7.0889,-7.0889,-7.1148,-7.1728,-7.2984,-7.2922,-4.8409,-4.868,-4.9695,-5.1588,-5.1217,0.0,-6.0148,-6.1129,-6.2212,-6.8436,-6.9755,-6.9925,-7.0263,-7.0398,-7.0872,-7.2157,-7.28,-7.324,-7.3578,-7.3071,-7.2834,-7.3308,-7.2868,-7.2529,-7.2529,-7.3781,-7.4356,-7.3781,-7.4965,-7.5709,-7.5709,-7.5709,-7.642,-7.7942,-7.7976,-7.8686,-8.0175,-8.0209,-8.0209,-8.0209,-8.0209,-8.0209,-8.0209,-8.0209,-8.0209,-8.0209,-8.0209,-8.0209,-8.0209,-8.0209,-8.0209,-8.0141,-7.9397,-7.8653,-7.7908,-7.7164,-7.6386,-7.5709,-7.5709,-7.6589,-7.7773,-7.7942,-7.8889,-7.9972,-8.0141,-8.0006,-7.975,-7.944,-7.8969,-7.8511,-7.8511,-7.8511,-7.8511,-7.8511,-7.8511,-7.8511,-7.8411,-7.7351,-7.639,-7.6225,-7.5628,-7.4933,-7.4321,-7.48,-7.5529,-7.6192,-7.6954,-7.7682,-7.8444,-7.8511,-7.8046,-7.6902,-7.7796,-7.8046,-7.6902,-7.6601,-7.639,-7.6324,-7.5032,-7.4586,-7.5132,-7.4037,-7.3481,-7.3713,-7.2482,-7.1499,-7.0889,-7.0889,-7.1503,-7.2643,-7.4051,-7.393,-5.0202,-5.0202,-5.0608,-4.9864,-5.1251,0.0,-5.1995,-5.3484,-5.5919,-5.8998,-6.0114,-6.1264,-6.37,-6.4613,-6.5121,-6.5425,-6.847,-7.165,-7.4052,-7.4255,-7.3781,-7.2732,-7.3003,-7.3274,-7.3274,-7.4086,-7.4796,-7.5236,-7.554,-7.5709,-7.5709,-7.5709,-7.642,-7.7942,-7.7976,-7.8686,-8.0175,-8.0209,-8.0209,-8.0209,-8.0209,-8.0209,-8.0209,-8.0209,-8.0209,-8.0209,-8.0209,-8.0209,-8.0209,-8.0209,-8.0209,-8.0141,-7.9397,-7.8653,-7.7908,-7.7164,-7.6386,-7.5709,-7.5709,-7.5879,-7.6352,-7.757,-7.8179,-7.8653,-7.9837,-8.0006,-7.9699,-7.9146,-7.8777,-7.8511,-7.8511,-7.8511,-7.8511,-7.8511,-7.8511,-7.8345,-7.7749,-7.7417,-7.6854,-7.5695,-7.49,-7.4387,-7.4255,-7.48,-7.5529,-7.6192,-7.6954,-7.7682,-7.8444,-7.8511,-7.8403,-7.8155,-7.835,-7.8403,-7.8155,-7.7523,-7.6954,-7.6357,-7.5529,-7.4867,-7.4453,-7.3743,-7.3673,-7.4259,-7.318,-7.2019,-7.0889,-7.0889,-7.1018,-7.1311,-7.3659,-7.3476,-5.1285,-5.0913,-5.1217,-5.1251,-5.2097,0.0,0.0,-5.4059,-5.5547,-5.8896,-5.9268,-5.9573,-6.1501,-6.2144,-6.2516,-6.2888,-6.6711,-6.962,-6.962,-7.2496,-7.4356,-7.3612,-7.3477,-7.3477,-7.3477,-7.4153,-7.4931,-7.5642,-7.5709,-7.5709,-7.5709,-7.5709,-7.642,-7.7942,-7.7976,-7.8686,-8.0175,-8.0209,-8.0209,-8.0209,-8.0209,-8.0209,-8.0209,-8.0209,-8.0209,-8.0209,-8.0209,-8.0209,-8.0209,-8.0209,-8.0209,-8.0175,-7.9803,-7.8957,-7.7942,-7.757,-7.669,-7.5709,-7.5709,-7.5946,-7.6487,-7.7604,-7.8247,-7.8754,-7.987,-7.9904,-7.9492,-7.9041,-7.8724,-7.8511,-7.8511,-7.8511,-7.8511,-7.8511,-7.8511,-7.8312,-7.7583,-7.7119,-7.6556,-7.5496,-7.4719,-7.4354,-7.4719,-7.5083,-7.5628,-7.6689,-7.7185,-7.7682,-7.8444,-7.8511,-7.8511,-7.8511,-7.8511,-7.8511,-7.8511,-7.7848,-7.7119,-7.6357,-7.5662,-7.4933,-7.4255,-7.3957,-7.3684,-7.3475,-7.266,-7.1653,-7.044,-7.0739,-7.1212,-7.1855,-7.3169,-7.3415,-5.2807,-5.2097,-5.23,-5.3281,-5.3247,-5.3585,0.0,0.0,0.0,-5.9505,-5.937,-5.8761,-5.9268,0.0,0.0,0.0,0.0,0.0,0.0,-6.8741,0.0,-7.2665,-7.3274,-7.3409,-7.2699,-7.3206,-7.4153,-7.5574,-7.5033,-7.4931,-7.5676,-7.5709,-7.642,-7.7942,-7.7976,-7.8686,-8.0175,-8.0209,-8.0209,-8.0209,-8.0209,-8.0209,-8.0209,-8.0209,-8.0209,-8.0209,-8.0209,-8.0209,-8.0209,-8.0209,-8.0209,-8.0209,-8.0209,-7.9295,-7.7976,-7.7976,-7.7029,-7.5709,-7.5709,-7.6115,-7.6792,-7.7536,-7.8332,-7.9128,-7.982,-7.9699,-7.9232,-7.8936,-7.8671,-7.8511,-7.8511,-7.8511,-7.8511,-7.8511,-7.8511,-7.8279,-7.7384,-7.6722,-7.6059,-7.5231,-7.4619,-7.4453,-7.5132,-7.5397,-7.5927,-7.7219,-7.755,-7.7848,-7.8444,-7.8511,-7.8511,-7.8511,-7.8511,-7.8511,-7.8511,-7.798,-7.7318,-7.6556,-7.586,-7.5132,-7.4453,-7.442,-7.3808,-7.2653,-7.2288,-7.1475,-7.0171,-7.0649,-7.1507,-7.2614,-7.2737,-7.3353,-5.6359,-5.5209,-5.4938,-5.3788,-5.4431,-5.4735,-5.2469,0.0,-5.2672,-5.2503,0.0,-5.301,-5.2469,0.0,0.0,0.0,0.0,0.0,-5.8795,-6.2753,-6.573,-6.573,-7.0906,-7.3206,-6.9925,-6.9688,-7.1379,-7.5405,-7.2665,-7.2225,-7.554,-7.5709,-7.642,-7.7942,-7.7976,-7.8686,-8.0175,-8.0209,-8.0209,-8.0209,-8.0209,-8.0209,-8.0209,-8.0209,-8.0209,-8.0209,-8.0209,-8.0209,-8.0209,-8.0209,-8.0209,-8.0209,-8.0209,-7.9295,-7.7976,-7.7976,-7.7029,-7.5709,-7.5709,-7.5743,-7.598,-7.6758,-7.7828,-7.8825,-7.9309,-7.9232,-7.8883,-7.8617,-7.8511,-7.8511,-7.8511,-7.8511,-7.8511,-7.8511,-7.8511,-7.8146,-7.6755,-7.6357,-7.5927,-7.4568,-7.4288,-7.4453,-7.5132,-7.5794,-7.6457,-7.7285,-7.798,-7.8444,-7.8511,-7.8511,-7.8511,-7.8511,-7.8511,-7.8511,-7.8511,-7.8444,-7.808,-7.7351,-7.6589,-7.5894,-7.5165,-7.5216,-7.4384,-7.2653,-7.3084,-7.2548,-7.0799,-7.0859,-7.1265,-7.1937,-7.2521,-7.286,-5.5919,-5.5987,-5.6528,-5.46,-5.5243,-5.5683,-5.3145,-5.2097,-5.1826,-5.2435,0.0,0.0,0.0,0.0,0.0,0.0,-5.4871,0.0,0.0,0.0,-6.3632,0.0,0.0,0.0,0.0,-6.9485,-7.1379,-7.5405,-7.2259,-7.1785,-7.5506,-7.5709,-7.6217,-7.7333,-7.7773,-7.8483,-7.9566,-8.0006,-8.0209,-8.0209,-8.0209,-8.0209,-8.0209,-8.0209,-8.0209,-8.0209,-8.0209,-8.0209,-8.0209,-8.0209,-8.0209,-8.0209,-8.0209,-7.9295,-7.7976,-7.7976,-7.7029,-7.5709,-7.5709,-7.5709,-7.5912,-7.713,-7.8098,-7.8775,-7.9257,-7.9179,-7.883,-7.8564,-7.8511,-7.8511,-7.8511,-7.8511,-7.8511,-7.8511,-7.8511,-7.8113,-7.6622,-7.6324,-7.5894,-7.4436,-7.4221,-7.4453,-7.5132,-7.586,-7.6556,-7.7318,-7.8047,-7.8511,-7.8511,-7.8511,-7.8511,-7.8511,-7.8511,-7.8511,-7.8511,-7.8511,-7.8212,-7.745,-7.6324,-7.5397,-7.4719,-7.4686,-7.4024,-7.2653,-7.288,-7.2501,-7.1404,-7.18,-7.2706,-7.3987,-7.2429,-7.2518,-5.7205,-5.7611,-5.8152,-5.531,-5.5243,-5.5412,-5.3585,-5.2164,-5.1589,-5.2909,-5.23,0.0,0.0,0.0,0.0,0.0,0.0,-5.3653,0.0,0.0,0.0,0.0,0.0,0.0,0.0,0.0,0.0,0.0,0.0,-7.0703,-7.5439,-7.5709,-7.6082,-7.686,-7.7604,-7.8348,-7.9092,-7.9837,-8.0209,-8.0209,-8.0209,-8.0209,-8.0209,-8.0209,-8.0209,-8.0209,-8.0209,-8.0209,-8.0209,-8.0209,-8.0209,-8.0209,-8.0209,-7.9295,-7.7976,-7.7976,-7.7029,-7.5709,-7.5709,-7.5709,-7.5946,-7.7502,-7.815,-7.8404,-7.9139,-7.9094,-7.8777,-7.8564,-7.8511,-7.8511,-7.8511,-7.8511,-7.8511,-7.8511,-7.8378,-7.7881,-7.6589,-7.6159,-7.5662,-7.4403,-7.4221,-7.4387,-7.4951,-7.5728,-7.6556,-7.7318,-7.8047,-7.8511,-7.8511,-7.8511,-7.8511,-7.8511,-7.8511,-7.8511,-7.8511,-7.8511,-7.8113,-7.7185,-7.6125,-7.5132,-7.4255,-7.4221,-7.3737,-7.2825,-7.3016,-7.2827,-7.2269,-7.3012,-7.4039,-7.5281,-7.2645,-7.258,-6.2279,-6.1129,-6.0148,-5.5683,-5.4093,-5.3382,-5.2536,-5.1758,-5.142,-5.2198,-5.23,-5.1826,-5.0405,-5.0135,0.0,0.0,0.0,0.0,0.0,0.0,0.0,0.0,0.0,0.0,0.0,0.0,0.0,0.0,0.0,0.0,-7.5303,-7.5709,-7.6082,-7.686,-7.7604,-7.8348,-7.9092,-7.9837,-8.0209,-8.0209,-8.0209,-8.0209,-8.0209,-8.0209,-8.0209,-8.0209,-8.0209,-8.0209,-8.0209,-8.0209,-8.0209,-8.0209,-8.0209,-7.9295,-7.7976,-7.7976,-7.7029,-7.5709,-7.5709,-7.5709,-7.5946,-7.7502,-7.763,-7.7446,-7.8953,-7.8969,-7.8511,-7.8511,-7.8511,-7.8511,-7.8511,-7.8511,-7.8511,-7.8511,-7.798,-7.7252,-7.6457,-7.5794,-7.5098,-7.4354,-7.4221,-7.4221,-7.4255,-7.5363,-7.6556,-7.7318,-7.8047,-7.8511,-7.8511,-7.8511,-7.8511,-7.8511,-7.8511,-7.8511,-7.8511,-7.8511,-7.7914,-7.6424,-7.6291,-7.5628,-7.4288,-7.4221,-7.3957,-7.3393,-7.4018,-7.4052,-7.3548,-7.4301,-7.4648,-7.4676,-7.3322,-7.3476,-6.5358,-6.5696,-6.5155,-5.9607,-5.8051,-5.69,-5.3145,-5.2536,-5.2503,-5.1725,-5.2773,-5.3213,-5.1217,-5.0845,0.0,0.0,0.0,0.0,0.0,0.0,0.0,0.0,0.0,0.0,0.0,0.0,0.0,0.0,0.0,0.0,-7.5439,-7.5709,-7.5811,-7.6082,-7.686,-7.7638,-7.8348,-7.9092,-7.9735,-8.0209,-8.0209,-8.0209,-8.0209,-8.0209,-8.0209,-8.0209,-8.0209,-8.0209,-8.0209,-8.0209,-8.0209,-8.0209,-8.0209,-7.96,-7.8686,-7.8179,-7.7029,-7.5709,-7.5709,-7.5614,-7.5658,-7.714,-7.7296,-7.7107,-7.8607,-7.8777,-7.8511,-7.8511,-7.8511,-7.8511,-7.8511,-7.8511,-7.8511,-7.8511,-7.7947,-7.7219,-7.6457,-7.5761,-7.5065,-7.4354,-7.4221,-7.4387,-7.48,-7.5695,-7.639,-7.6655,-7.7749,-7.8511,-7.8511,-7.8511,-7.8511,-7.8511,-7.8511,-7.8511,-7.8511,-7.8511,-7.7881,-7.639,-7.6324,-7.5662,-7.4288,-7.4221,-7.3957,-7.3415,-7.404,-7.4531,-7.4847,-7.561,-7.6395,-7.7157,-7.5061,-7.3809,-6.8233,-6.8741,-6.8233,-6.3024,-6.1704,-6.0486,-5.575,-5.5277,-5.5581,-5.4566,-5.4499,-5.4803,-5.548,-5.2976,0.0,0.0,0.0,0.0,0.0,-4.7767,0.0,0.0,0.0,0.0,0.0,0.0,0.0,0.0,0.0,0.0,0.0,-7.5709,-7.5709,-7.5709,-7.6487,-7.7232,-7.7976,-7.872,-7.9464,-8.0209,-8.0209,-8.0209,-8.0209,-8.0209,-8.0209,-8.0209,-8.0209,-8.0209,-8.0209,-8.0209,-8.0209,-8.0209,-8.0209,-7.9769,-7.9058,-7.8585,-7.7604,-7.6521,-7.6391,-7.6245,-7.6252,-7.7363,-7.7462,-7.7285,-7.8569,-7.8724,-7.8577,-7.8842,-7.8709,-7.8577,-7.8842,-7.8709,-7.8511,-7.8511,-7.7749,-7.6887,-7.6424,-7.5562,-7.4785,-7.4321,-7.4221,-7.4453,-7.5132,-7.586,-7.639,-7.6655,-7.7749,-7.8511,-7.8511,-7.8511,-7.8511,-7.8511,-7.8511,-7.8511,-7.8511,-7.8511,-7.7881,-7.639,-7.6324,-7.5662,-7.4288,-7.4221,-7.4163,-7.4069,-7.4755,-7.544,-7.6191,-7.6909,-7.7687,-7.8457,-7.5906,-7.4231]},{"header":{"parameterUnit":"m.s-1","parameterCategory":1,"la1":30.6,"la2":29.2853,"lo1":-89.7004,"lo2":-87.6739,"dx":0.0162,"dy":0.0183,"nx":112,"ny":82,"refTime":"2022-11-03T12:00:00:Z","depth":0,"parameterNumber":3,"parameterNumberName":"V-component_of_WINDS"},"data":[0.0,0.0,0.0,0.0,0.0,0.0,0.0,0.0,0.0,0.0,0.0,0.0,0.0,0.0,0.0,0.0,0.0,0.0,0.0,0.0,0.0,0.0,0.0,0.0,0.0,0.0,0.0,0.0,0.0,0.0,0.0,0.0,0.0,0.0,0.0,0.0,0.0,0.0,0.0,0.0,0.0,0.0,0.0,0.0,0.0,0.0,0.0,0.0,0.0,0.0,0.0,0.0,0.0,0.0,0.0,0.0,0.0,0.0,0.0,0.0,0.0,0.0,0.0,0.0,0.0,0.0,0.0,0.0,0.0,0.0,0.0,0.0,0.0,0.0,0.0,0.0,0.0,0.0,0.0,0.0,0.0,0.0,0.0,0.0,0.0,0.0,0.0,0.0,0.0,0.0,3.0171,3.1585,3.4778,3.7094,3.7693,3.739,3.5554,3.1763,0.0,0.0,0.0,0.0,0.0,0.0,0.0,0.0,0.0,0.0,0.0,0.0,0.0,0.0,0.0,0.0,0.0,0.0,0.0,0.0,0.0,0.0,0.0,0.0,0.0,0.0,0.0,0.0,0.0,0.0,0.0,0.0,0.0,0.0,0.0,0.0,0.0,0.0,0.0,0.0,0.0,0.0,0.0,0.0,0.0,0.0,0.0,0.0,0.0,0.0,0.0,0.0,0.0,0.0,0.0,0.0,0.0,0.0,0.0,0.0,0.0,0.0,0.0,0.0,0.0,0.0,0.0,0.0,0.0,0.0,0.0,0.0,0.0,0.0,0.0,0.0,0.0,0.0,0.0,0.0,0.0,0.0,0.0,0.0,0.0,0.0,0.0,0.0,0.0,0.0,0.0,0.0,0.0,0.0,0.0,0.0,0.0,0.0,0.0,0.0,0.0,0.0,0.0,0.0,2.7908,3.2924,3.4797,3.5928,3.6512,3.6949,3.573,3.2315,0.0,0.0,0.0,0.0,0.0,0.0,0.0,0.0,0.0,0.0,0.0,0.0,0.0,0.0,0.0,0.0,0.0,0.0,0.0,0.0,0.0,0.0,0.0,0.0,0.0,0.0,0.0,0.0,0.0,0.0,0.0,0.0,0.0,0.0,0.0,0.0,0.0,0.0,0.0,0.0,0.0,0.0,0.0,0.0,0.0,0.0,0.0,0.0,0.0,0.0,0.0,0.0,0.0,0.0,0.0,0.0,0.0,0.0,0.0,0.0,0.0,0.0,0.0,0.0,0.0,0.0,0.0,0.0,0.0,0.0,0.0,0.0,0.0,0.0,0.0,0.0,0.0,0.0,0.0,0.0,0.0,0.0,0.0,0.0,0.0,0.0,0.0,0.0,0.0,0.0,0.0,0.0,0.0,0.0,0.0,0.0,0.0,0.0,0.0,0.0,0.0,0.0,0.0,2.7452,2.9664,3.4585,3.5768,3.6601,3.7608,3.7643,3.6207,3.2893,3.0608,0.0,0.0,0.0,0.0,0.0,0.0,0.0,0.0,0.0,0.0,0.0,0.0,0.0,0.0,0.0,0.0,0.0,0.0,0.0,0.0,0.0,0.0,0.0,0.0,0.0,0.0,0.0,0.0,0.0,0.0,0.0,0.0,0.0,0.0,0.0,0.0,0.0,0.0,0.0,0.0,0.0,0.0,0.0,0.0,0.0,0.0,0.0,0.0,0.0,0.0,0.0,0.0,0.0,0.0,0.0,0.0,0.0,0.0,0.0,0.0,0.0,0.0,0.0,0.0,0.0,0.0,0.0,0.0,0.0,0.0,0.0,0.0,0.0,0.0,0.0,0.0,0.0,0.0,0.0,0.0,0.0,0.0,0.0,0.0,0.0,0.0,0.0,0.0,0.0,0.0,0.0,0.0,0.0,0.0,0.0,0.0,0.0,0.0,0.0,0.0,0.0,0.0,2.9704,3.1944,3.5427,3.6479,3.7364,3.8557,3.8266,3.6533,3.3093,3.0934,0.0,0.0,0.0,0.0,0.0,0.0,0.0,0.0,0.0,0.0,0.0,0.0,0.0,0.0,0.0,0.0,0.0,0.0,0.0,0.0,0.0,0.0,0.0,0.0,0.0,0.0,0.0,0.0,0.0,0.0,0.0,0.0,0.0,0.0,0.0,0.0,0.0,0.0,0.0,0.0,0.0,0.0,0.0,0.0,0.0,0.0,0.0,0.0,0.0,0.0,0.0,0.0,0.0,0.0,0.0,0.0,0.0,0.0,0.0,0.0,0.0,0.0,0.0,0.0,0.0,0.0,0.0,0.0,0.0,0.0,0.0,0.0,0.0,0.0,0.0,0.0,0.0,0.0,0.0,0.0,0.0,0.0,0.0,0.0,0.0,0.0,0.0,0.0,0.0,0.0,0.0,0.0,0.0,0.0,0.0,0.0,0.0,0.0,0.0,0.0,0.0,0.0,3.0139,3.3071,3.4558,3.6004,3.7176,3.7897,3.7987,3.6358,3.2516,3.0708,0.0,0.0,0.0,0.0,0.0,0.0,0.0,0.0,0.0,0.0,0.0,0.0,0.0,0.0,0.0,0.0,0.0,0.0,0.0,0.0,0.0,0.0,0.0,0.0,0.0,0.0,0.0,0.0,0.0,0.0,0.0,0.0,0.0,0.0,0.0,0.0,0.0,0.0,0.0,0.0,0.0,0.0,0.0,0.0,0.0,0.0,0.0,0.0,0.0,0.0,0.0,0.0,0.0,0.0,0.0,0.0,0.0,0.0,0.0,0.0,0.0,0.0,0.0,0.0,0.0,0.0,0.0,0.0,0.0,0.0,0.0,0.0,0.0,0.0,0.0,0.0,0.0,0.0,0.0,0.0,0.0,0.0,0.0,0.0,0.0,0.0,0.0,0.0,0.0,0.0,0.0,0.0,0.0,0.0,0.0,0.0,0.0,0.0,0.0,0.0,0.0,0.0,2.9878,3.295,3.5747,3.7121,3.8175,3.8967,3.8715,3.6885,3.2993,0.0,0.0,0.0,0.0,0.0,0.0,0.0,0.0,0.0,0.0,0.0,0.0,0.0,0.0,0.0,0.0,0.0,0.0,0.0,0.0,0.0,0.0,0.0,0.0,0.0,0.0,0.0,0.0,0.0,0.0,0.0,0.0,0.0,0.0,0.0,0.0,0.0,0.0,0.0,0.0,0.0,0.0,0.0,0.0,0.0,0.0,0.0,0.0,0.0,0.0,0.0,0.0,0.0,0.0,0.0,0.0,0.0,0.0,0.0,0.0,0.0,0.0,0.0,0.0,0.0,0.0,0.0,0.0,0.0,0.0,0.0,0.0,0.0,0.0,0.0,0.0,0.0,0.0,0.0,0.0,0.0,0.0,0.0,0.0,0.0,0.0,0.0,0.0,0.0,0.0,0.0,0.0,0.0,0.0,0.0,0.0,0.0,0.0,0.0,0.0,0.0,0.0,2.7566,3.0599,3.3735,3.703,3.7851,3.8718,4.009,3.9396,3.7136,3.3068,0.0,0.0,0.0,0.0,0.0,0.0,0.0,0.0,0.0,0.0,0.0,0.0,0.0,0.0,0.0,0.0,0.0,0.0,0.0,0.0,0.0,0.0,0.0,0.0,0.0,0.0,0.0,0.0,0.0,0.0,0.0,0.0,0.0,0.0,0.0,0.0,0.0,0.0,0.0,0.0,0.0,0.0,0.0,0.0,0.0,0.0,0.0,0.0,0.0,0.0,0.0,0.0,0.0,0.0,0.0,0.0,0.0,0.0,0.0,0.0,0.0,0.0,0.0,0.0,0.0,0.0,0.0,0.0,0.0,0.0,0.0,0.0,0.0,0.0,0.0,0.0,0.0,0.0,0.0,0.0,0.0,0.0,0.0,0.0,0.0,0.0,0.0,0.0,0.0,0.0,0.0,0.0,0.0,0.0,0.0,0.0,0.0,0.0,0.0,0.0,0.0,0.0,2.9033,3.2499,3.5738,3.8227,3.7965,3.8624,4.1114,3.9848,3.6985,0.0,0.0,0.0,0.0,0.0,0.0,0.0,0.0,0.0,0.0,0.0,0.0,0.0,0.0,0.0,0.0,0.0,0.0,0.0,0.0,0.0,0.0,0.0,0.0,0.0,0.0,0.0,0.0,0.0,0.0,0.0,0.0,0.0,0.0,0.0,0.0,0.0,0.0,0.0,0.0,0.0,0.0,0.0,0.0,0.0,0.0,0.0,0.0,0.0,0.0,0.0,0.0,0.0,0.0,0.0,0.0,0.0,0.0,0.0,0.0,0.0,0.0,0.0,0.0,0.0,0.0,0.0,0.0,0.0,0.0,0.0,0.0,0.0,0.0,0.0,0.0,0.0,0.0,0.0,0.0,0.0,0.0,0.0,0.0,0.0,0.0,0.0,0.0,0.0,0.0,0.0,0.0,0.0,0.0,0.0,0.0,0.0,0.0,0.0,0.0,0.0,0.0,0.0,2.9312,3.2649,3.5738,3.8169,3.8584,3.9423,4.1164,4.0526,3.814,3.3671,0.0,0.0,0.0,0.0,0.0,0.0,0.0,0.0,0.0,0.0,0.0,0.0,0.0,0.0,0.0,0.0,0.0,0.0,0.0,0.0,0.0,0.0,0.0,0.0,0.0,0.0,0.0,0.0,0.0,0.0,0.0,0.0,0.0,0.0,0.0,0.0,0.0,0.0,0.0,0.0,0.0,0.0,0.0,0.0,0.0,0.0,0.0,0.0,0.0,0.0,0.0,0.0,0.0,0.0,0.0,0.0,0.0,0.0,0.0,0.0,0.0,0.0,0.0,0.0,0.0,0.0,0.0,0.0,0.0,0.0,0.0,0.0,0.0,0.0,0.0,0.0,0.0,0.0,0.0,0.0,0.0,0.0,0.0,0.0,0.0,0.0,0.0,0.0,0.0,0.0,0.0,0.0,0.0,0.0,0.0,0.0,0.0,0.0,0.0,0.0,0.0,0.0,3.0052,3.3434,3.6529,3.9058,3.9226,3.9917,4.1813,4.1279,3.9145,3.5127,0.0,0.0,0.0,0.0,0.0,0.0,0.0,0.0,0.0,0.0,0.0,0.0,0.0,0.0,0.0,0.0,0.0,0.0,0.0,0.0,0.0,0.0,0.0,0.0,0.0,0.0,0.0,0.0,0.0,0.0,0.0,0.0,0.0,0.0,0.0,0.0,0.0,0.0,0.0,0.0,0.0,0.0,0.0,0.0,0.0,0.0,0.0,0.0,0.0,0.0,0.0,0.0,0.0,0.0,0.0,0.0,0.0,0.0,0.0,0.0,0.0,0.0,0.0,0.0,0.0,0.0,0.0,0.0,0.0,0.0,0.0,0.0,0.0,0.0,0.0,0.0,0.0,0.0,0.0,0.0,0.0,0.0,0.0,0.0,0.0,0.0,0.0,0.0,0.0,0.0,0.0,0.0,0.0,0.0,0.0,0.0,0.0,0.0,0.0,0.0,0.0,0.0,3.112,3.4689,3.7953,4.0441,3.9965,4.0433,4.2943,4.2133,4.0124,3.6933,0.0,0.0,0.0,0.0,0.0,0.0,0.0,0.0,0.0,0.0,0.0,0.0,0.0,0.0,0.0,0.0,0.0,0.0,0.0,0.0,0.0,0.0,0.0,0.0,0.0,0.0,0.0,0.0,0.0,0.0,0.0,0.0,0.0,0.0,0.0,0.0,0.0,0.0,0.0,0.0,0.0,0.0,0.0,0.0,0.0,0.0,0.0,0.0,0.0,0.0,0.0,0.0,0.0,0.0,0.0,0.0,0.0,0.0,0.0,0.0,2.416,2.2229,0.0,0.0,0.0,0.0,0.0,0.0,0.0,0.0,0.0,0.0,0.0,0.0,0.0,0.0,0.0,0.0,0.0,0.0,0.0,0.0,0.0,0.0,0.0,0.0,0.0,0.0,0.0,0.0,0.0,0.0,0.0,0.0,0.0,0.0,0.0,0.0,0.0,0.0,0.0,0.0,3.1554,3.5678,3.9001,4.0502,4.1516,4.2611,4.4152,4.3263,4.158,3.9145,3.7186,0.0,0.0,0.0,0.0,0.0,0.0,0.0,0.0,0.0,0.0,0.0,0.0,0.0,0.0,0.0,0.0,0.0,0.0,0.0,0.0,0.0,0.0,0.0,0.0,0.0,0.0,0.0,0.0,0.0,0.0,0.0,0.0,0.0,0.0,0.0,0.0,0.0,0.0,0.0,0.0,0.0,0.0,0.0,0.0,0.0,0.0,0.0,0.0,0.0,0.0,0.0,0.0,0.0,0.0,0.0,0.0,0.0,0.0,0.0,2.6602,2.5341,0.0,0.0,0.0,0.0,0.0,0.0,0.0,0.0,0.0,0.0,0.0,0.0,0.0,0.0,0.0,0.0,0.0,0.0,0.0,0.0,0.0,0.0,0.0,0.0,0.0,0.0,0.0,0.0,0.0,0.0,0.0,0.0,0.0,0.0,0.0,0.0,0.0,0.0,0.0,0.0,3.2416,3.6646,3.9936,4.1296,4.2404,4.3636,4.4903,4.4267,4.3162,4.1756,3.9346,0.0,0.0,0.0,0.0,0.0,0.0,0.0,0.0,0.0,0.0,0.0,0.0,0.0,0.0,0.0,0.0,0.0,0.0,0.0,0.0,0.0,0.0,0.0,0.0,0.0,0.0,0.0,0.0,0.0,0.0,0.0,0.0,0.0,0.0,0.0,0.0,0.0,0.0,0.0,0.0,0.0,0.0,0.0,0.0,0.0,0.0,0.0,0.0,0.0,0.0,0.0,0.0,0.0,2.9062,2.9785,3.0684,3.0625,3.1035,3.1641,2.9117,2.8706,2.957,2.6671,0.0,0.0,0.0,0.0,0.0,0.0,0.0,0.0,0.0,0.0,0.0,0.0,0.0,0.0,0.0,0.0,0.0,0.0,0.0,0.0,0.0,0.0,3.4213,3.5977,3.8312,3.9388,3.6598,0.0,0.0,0.0,0.0,0.0,0.0,0.0,0.0,0.0,0.0,0.0,3.3822,3.7898,4.1075,4.2414,4.335,4.4377,4.5563,4.5095,4.4593,4.4116,4.143,3.9396,0.0,0.0,0.0,0.0,0.0,0.0,0.0,0.0,0.0,0.0,0.0,0.0,0.0,0.0,0.0,0.0,0.0,0.0,0.0,0.0,0.0,0.0,0.0,0.0,0.0,0.0,0.0,0.0,0.0,0.0,0.0,0.0,2.4348,2.3997,0.0,0.0,0.0,0.0,0.0,0.0,0.0,0.0,0.0,0.0,0.0,0.0,0.0,2.6717,2.8398,3.0019,3.1269,3.2129,3.293,3.3965,3.5156,3.4785,3.4883,3.5293,3.4837,0.0,3.0702,3.0122,0.0,0.0,0.0,0.0,0.0,0.0,0.0,0.0,0.0,0.0,0.0,0.0,0.0,0.0,0.0,0.0,0.0,0.0,0.0,0.0,0.0,0.0,3.8348,3.9673,4.1199,4.2511,4.3116,3.9582,3.5565,3.3036,3.1798,3.0193,0.0,0.0,0.0,0.0,0.0,0.0,3.6459,3.9859,4.2454,4.3879,4.5147,4.602,4.62,4.5698,4.5347,4.5271,4.4392,4.2534,3.9597,3.8668,0.0,0.0,0.0,0.0,0.0,0.0,0.0,0.0,0.0,0.0,0.0,0.0,0.0,0.0,0.0,0.0,0.0,0.0,0.0,0.0,0.0,0.0,0.0,0.0,0.0,0.0,0.0,0.0,0.0,2.4355,2.5625,2.5005,2.4089,2.2797,0.0,0.0,0.0,0.0,0.0,0.0,0.0,0.0,0.0,2.6162,2.7298,2.8864,3.0907,3.1884,3.326,3.498,3.5351,3.5957,3.6719,3.6309,3.6211,3.6367,3.6377,3.5323,3.3615,3.2814,3.1933,3.095,0.0,0.0,0.0,0.0,3.0465,3.0702,3.2272,3.2884,3.2897,3.2096,0.0,0.0,0.0,0.0,0.0,0.0,0.0,3.2499,3.4113,3.7071,3.9914,4.1227,4.3187,4.4713,4.4508,4.2662,4.0026,3.6595,3.5048,3.2942,2.8752,2.8876,0.0,0.0,0.0,3.4395,3.7505,4.04,4.2706,4.4127,4.5464,4.6301,4.6301,4.6075,4.5949,4.5949,4.5422,4.4468,4.3011,4.1204,3.8693,0.0,0.0,0.0,0.0,0.0,0.0,0.0,0.0,0.0,0.0,0.0,0.0,0.0,0.0,0.0,0.0,0.0,0.0,0.0,0.0,0.0,0.0,0.0,0.0,0.0,0.0,0.0,0.0,2.5723,2.6801,2.6195,2.5546,2.4512,0.0,0.0,0.0,0.0,0.0,0.0,2.5587,2.7035,2.7776,2.7541,2.9332,3.1149,3.2924,3.3755,3.5111,3.6992,3.6875,3.7109,3.7617,3.7187,3.7051,3.7219,3.7191,3.6907,3.6261,3.514,3.4487,3.4044,3.3151,3.2574,3.2379,3.3425,3.3708,3.3844,3.5542,3.6121,3.5955,3.515,3.4758,3.4341,3.2744,0.0,0.0,0.0,0.0,3.3989,3.5687,3.8149,4.0562,4.2046,4.3945,4.5282,4.4822,4.441,4.3003,3.9295,3.7836,3.57,3.112,3.1505,0.0,3.1485,3.341,3.599,3.8856,4.1063,4.3105,4.4839,4.6055,4.6652,4.6527,4.6527,4.6451,4.6326,4.5924,4.5623,4.5497,4.3489,4.148,3.9546,0.0,0.0,0.0,0.0,0.0,0.0,0.0,0.0,0.0,0.0,0.0,0.0,0.0,0.0,0.0,0.0,0.0,0.0,0.0,0.0,0.0,0.0,0.0,0.0,0.0,0.0,0.0,0.0,0.0,2.8228,2.6844,0.0,0.0,0.0,0.0,2.3618,2.4093,2.43,2.4238,2.7425,2.9059,2.8519,3.2053,3.3991,3.4116,3.6112,3.7351,3.7851,3.7461,3.7695,3.8496,3.8066,3.8086,3.853,3.8406,3.8114,3.7689,3.7077,3.6042,3.4881,3.5129,3.4674,3.4134,3.548,3.5956,3.6142,3.755,3.8046,3.8046,3.7984,3.7094,3.5997,3.5894,3.4962,0.0,0.0,3.5914,3.6266,3.7674,3.9126,4.0668,4.2628,4.3065,4.3589,4.5326,4.4648,4.2935,4.0559,4.0038,3.8957,3.5644,0.0,3.5211,3.5148,3.5293,3.6997,4.1393,4.2591,4.4048,4.6711,4.7469,4.7631,4.7068,4.7043,4.6878,4.6351,4.6276,4.6024,4.5522,4.5347,4.3991,4.12,4.0074,0.0,0.0,0.0,0.0,0.0,0.0,0.0,0.0,0.0,0.0,0.0,0.0,0.0,0.0,0.0,0.0,0.0,0.0,0.0,0.0,0.0,0.0,0.0,0.0,0.0,0.0,0.0,0.0,2.942,2.8737,0.0,2.7633,2.6517,2.657,2.8429,2.8639,2.9093,3.0139,3.1667,3.1511,2.9305,3.0802,3.1749,3.1983,3.381,3.5394,3.6844,3.775,3.8281,3.8574,3.8418,3.8418,3.8574,3.8563,3.8465,3.8224,3.7699,3.7017,3.633,3.6656,3.6667,3.6442,3.6914,3.7229,3.7508,3.7739,3.7971,3.8233,3.8523,3.8481,3.8316,3.8316,3.7984,3.7695,3.8171,3.8523,3.8812,3.8999,4.0248,4.1815,4.3183,4.3399,4.3575,4.4282,4.3344,4.1815,4.01,4.0485,4.0168,3.727,3.7488,3.7777,3.6887,3.8313,4.0345,4.2837,4.4191,4.5613,4.7445,4.7807,4.7832,4.7657,4.7631,4.7556,4.7355,4.618,4.5847,4.6491,4.5365,4.4491,4.4041,4.3614,4.0927,0.0,0.0,0.0,0.0,0.0,0.0,0.0,0.0,0.0,0.0,0.0,0.0,0.0,0.0,0.0,0.0,0.0,0.0,0.0,0.0,0.0,0.0,0.0,0.0,0.0,2.8633,2.9787,3.0548,3.055,3.0284,2.9837,2.9183,2.9461,3.1185,3.0409,3.031,3.1483,3.196,3.1284,2.9236,3.01,3.0684,3.0982,3.315,3.4928,3.6238,3.7824,3.8574,3.8574,3.8574,3.8652,3.8789,3.8789,3.8779,3.8701,3.8425,3.7916,3.7379,3.7556,3.7638,3.7658,3.7821,3.8085,3.8444,3.8288,3.8424,3.8688,3.891,3.922,3.9468,3.9468,3.9468,3.9468,3.9468,3.9868,4.0137,3.9827,4.0646,4.1852,4.3152,4.2929,4.2705,4.3557,4.2628,4.1358,4.0638,4.0694,4.0295,3.847,3.8937,3.9117,3.8109,3.9643,4.159,4.3314,4.4635,4.6167,4.7996,4.836,4.841,4.8209,4.7458,4.7059,4.717,4.573,4.5289,4.6341,4.5086,4.459,4.492,4.492,4.2459,3.7439,0.0,0.0,0.0,0.0,0.0,0.0,0.0,0.0,0.0,0.0,0.0,0.0,0.0,0.0,0.0,0.0,0.0,0.0,0.0,0.0,0.0,0.0,0.0,2.9783,3.1152,3.2029,3.162,3.2185,3.2776,3.3212,3.0943,2.9981,3.1347,2.9049,2.7584,2.7599,2.8186,2.8447,2.8447,3.0253,3.1255,3.1255,3.4429,3.609,3.6182,3.777,3.8594,3.8613,3.8613,3.8828,3.9219,3.9219,3.9219,3.9219,3.9199,3.8711,3.7923,3.7758,3.7694,3.7734,3.8196,3.8636,3.9053,3.9399,3.9488,3.9488,3.9488,3.9509,3.9509,3.9509,3.9509,3.9509,3.9509,3.9889,4.022,4.022,4.0241,4.0717,4.2683,4.1699,4.0912,4.3339,4.2627,4.1731,4.2239,4.082,3.955,3.9599,3.953,3.9364,3.891,3.9288,0.0,4.286,4.4055,4.5715,4.8507,4.9238,4.9364,4.8812,4.6581,4.5435,4.5862,4.49,4.4477,4.4855,4.4713,4.4352,4.3915,4.379,4.2961,4.1275,0.0,0.0,0.0,0.0,0.0,0.0,0.0,0.0,0.0,0.0,0.0,0.0,0.0,0.0,0.0,0.0,0.0,0.0,0.0,0.0,0.0,3.0859,3.2383,3.1973,3.2226,3.2488,3.2524,3.2319,3.1789,3.0741,3.0267,3.0255,3.094,3.0324,2.9971,3.0219,3.0421,2.9992,2.8769,2.9308,2.9586,2.9586,3.1638,3.3433,3.4924,3.6511,3.8064,3.9531,3.9531,3.959,3.9707,3.9707,3.9707,3.9668,3.9336,3.8887,3.8412,3.8292,3.8087,3.7828,3.7878,3.8197,3.8615,3.8983,3.9556,4.0034,4.0034,4.0261,4.051,4.051,4.051,4.051,4.051,4.0841,4.1193,4.1193,4.1193,4.1656,4.3565,4.2563,4.177,4.381,4.3116,4.2177,4.2302,4.1855,4.14,4.1069,4.0737,4.0468,4.0344,4.1319,4.2707,4.4366,4.5802,4.7196,4.8621,4.8912,4.8937,4.8786,4.7228,4.6415,4.6944,4.4421,4.3417,4.4523,4.4167,4.4645,4.6165,4.384,4.2183,0.0,0.0,0.0,0.0,0.0,0.0,0.0,0.0,0.0,0.0,0.0,0.0,0.0,0.0,0.0,0.0,0.0,0.0,0.0,0.0,0.0,0.0,3.3184,3.4551,3.4668,3.3868,3.3381,3.3714,3.3036,3.2171,3.1146,3.082,3.0747,3.1014,3.0344,3.0054,3.0253,3.0268,2.9881,2.8964,2.8886,2.8959,2.909,3.0717,3.2194,3.3548,3.5846,3.7611,3.8861,3.9581,4.0,4.0156,4.0156,4.0254,4.043,4.0332,3.9941,3.9316,0.0,0.0,0.0,0.0,3.8946,3.9129,4.0045,4.0555,4.0781,4.1018,4.1255,4.1462,4.1462,4.1462,4.1462,4.1462,4.1917,4.2373,4.2186,4.2269,4.2657,4.3562,4.2805,4.2251,4.3477,4.3089,4.26,4.2787,4.2663,0.0,4.2435,4.1876,4.14,4.1193,4.2107,4.348,4.5325,4.6512,4.7844,4.9646,4.9816,4.9556,4.892,4.7167,0.0,0.0,0.0,4.2951,4.423,4.3782,0.0,0.0,0.0,4.3714,4.4091,4.2785,0.0,0.0,3.9923,3.927,0.0,0.0,0.0,0.0,0.0,0.0,0.0,0.0,0.0,0.0,0.0,0.0,0.0,0.0,0.0,0.0,3.5312,3.6445,3.7246,3.5444,3.4197,3.4631,3.3769,3.3031,3.2658,3.1674,3.1024,3.1024,2.9726,2.8886,2.8886,2.893,0.0,0.0,0.0,2.9134,2.9427,3.0836,3.1874,3.2444,3.5556,3.7217,3.7503,3.9242,4.0273,4.0664,4.0664,4.0918,4.1348,4.166,4.1289,4.041,3.9199,3.8496,3.8314,3.9812,4.0184,4.0097,4.1588,0.0,0.0,4.2101,4.2175,4.2175,4.2175,4.2249,4.2322,4.2322,4.2828,4.3366,4.3014,4.318,4.3387,4.3077,4.2663,4.2456,4.289,4.2994,4.3118,4.3532,4.3284,4.3118,4.3532,4.287,4.2219,4.1835,4.2136,4.3252,4.5894,4.6541,4.7956,5.0905,5.1197,0.0,4.8916,4.6742,4.5004,4.3889,4.3032,4.3085,4.4254,4.3907,4.4354,4.5849,4.5799,4.6476,4.7908,4.7908,4.7908,4.7782,4.2384,4.1204,0.0,0.0,0.0,0.0,0.0,0.0,0.0,0.0,0.0,0.0,0.0,0.0,0.0,0.0,0.0,3.4961,3.6211,3.7226,3.7734,3.523,3.3366,3.3453,3.3558,3.2574,2.993,2.9464,2.9353,2.9353,2.9042,2.8886,2.8886,2.9134,2.9281,2.9281,2.9544,2.9705,2.9764,3.0085,3.1117,3.2809,3.4852,0.0,3.8406,4.0104,4.1152,4.1543,4.1543,4.1797,4.2168,4.1914,4.1289,4.0469,3.9863,3.959,3.9531,3.9857,4.0121,4.042,4.1096,4.1211,4.1211,4.1583,4.1731,4.1731,4.1731,4.2027,0.0,4.2322,4.2393,4.258,4.2849,4.2725,4.2683,4.3325,4.3118,4.2911,4.3387,4.347,4.3511,4.3594,4.3532,4.3511,4.3594,4.287,4.2476,4.3118,4.2663,4.3486,4.6735,4.6954,4.7745,5.029,5.0569,4.995,4.8363,4.6746,4.5387,4.432,4.3818,4.415,4.5504,4.5794,4.667,4.8134,4.7682,4.7581,4.7908,4.7908,4.7908,4.7883,4.6702,4.6451,0.0,0.0,0.0,0.0,0.0,0.0,0.0,0.0,0.0,0.0,0.0,3.1973,3.3496,0.0,3.541,3.6484,3.7187,3.7468,3.7077,3.5631,3.4373,3.346,3.2195,3.0639,2.9042,2.8886,2.8886,2.8886,2.9047,2.9134,2.9134,2.9442,2.9617,2.9617,2.9778,2.9939,3.0181,3.0181,3.0751,3.1869,3.3645,3.5587,3.7641,3.9374,4.0794,4.1797,4.1797,4.1914,4.209,4.1894,4.1543,4.1113,4.0703,4.0273,3.9922,4.0344,4.0499,4.0594,4.1646,4.1877,4.1802,4.2406,4.2631,4.2631,4.2631,4.2782,4.2932,4.2932,4.3097,4.3284,4.3263,4.3284,4.3325,4.3553,4.3615,4.3677,4.3905,4.4132,4.4298,4.4298,4.4298,4.4381,4.4608,4.3884,4.3366,4.3573,4.3221,4.4167,4.7417,4.7666,4.8568,5.1337,5.1674,5.0678,4.8402,4.5845,4.4171,4.3699,4.3273,4.4003,4.6263,4.6283,4.7293,4.9525,4.9038,4.8761,4.8761,4.9038,4.9163,4.9163,4.9464,4.8987,0.0,0.0,0.0,0.0,0.0,0.0,0.0,3.0957,3.1133,3.3144,3.3613,3.4121,3.5605,3.6152,3.6758,3.7871,3.8047,3.7586,3.6349,3.5941,3.5103,3.3449,3.0947,2.9275,2.8964,2.8886,2.8915,2.8973,2.9222,2.9398,2.9471,2.9778,3.0035,3.0035,3.0012,3.0173,3.0437,3.0437,3.0568,3.0817,3.2541,3.449,3.6624,3.8446,4.0208,4.1914,4.1914,4.1875,4.1797,4.1797,4.1758,4.1641,4.1308,4.0801,4.0369,4.0929,4.0991,4.0974,4.239,4.2648,4.2554,4.3249,4.348,4.348,4.3556,4.3654,4.3731,4.3884,4.4153,4.436,4.3967,4.4153,4.4339,4.3967,4.4174,4.4443,4.4443,4.4733,4.5002,4.5002,4.5002,4.5105,4.5478,4.494,4.4339,4.4049,4.378,4.4654,4.7598,4.8186,4.9343,5.2189,5.2698,5.1607,4.8552,4.507,4.3056,4.3056,4.2918,4.3945,4.6365,4.6495,4.7593,5.0083,5.0012,4.9916,4.9916,5.0469,5.0745,5.0745,5.1348,5.0519,3.1797,3.0801,3.0586,3.1681,3.1582,3.2012,0.0,3.4726,3.4531,3.5957,3.6543,3.6973,3.7539,3.7676,3.7891,3.8418,3.8496,3.7986,3.6386,3.4954,3.3373,3.1791,3.1255,3.05,2.9042,2.8886,2.9017,2.9295,2.9354,2.95,2.9793,3.0196,3.0372,3.0372,3.0568,3.0729,3.0773,3.0773,3.0788,3.0817,3.2541,3.449,3.6624,3.8446,4.0358,4.2363,4.2363,4.2148,4.1797,4.1797,4.1582,4.123,4.1191,4.1348,4.1543,4.1289,4.1426,4.1739,4.2249,4.2428,4.2445,4.3002,4.3161,4.324,4.3537,4.3952,4.4287,4.4758,4.4877,4.4898,4.4857,4.4877,4.4898,4.4857,4.4877,4.4919,4.4919,4.496,4.5002,4.5002,4.5002,4.5022,4.5064,4.4981,4.5043,4.5395,4.4401,4.4348,4.6526,4.7659,4.8984,5.0646,5.2119,5.1607,4.8552,4.5372,4.3532,4.3532,4.4326,4.4909,4.5274,4.7423,4.8711,4.9053,5.0404,5.1096,5.1096,5.1649,5.1925,5.1925,5.2477,5.2076,3.4922,3.4062,3.3476,3.4531,3.4844,3.5273,3.6777,3.666,3.6582,3.7871,3.8086,3.8086,3.8262,3.8301,3.8359,3.8555,3.8574,3.7658,3.5103,3.4128,3.2766,3.0191,3.0063,2.9949,2.9257,2.9178,2.931,2.9632,2.9837,2.9998,3.0225,3.0451,3.0539,3.0431,3.0656,3.0817,3.0817,3.1007,3.1198,3.1388,3.2134,3.4123,3.7293,3.804,3.9832,4.2422,4.2168,4.1816,4.1484,4.1973,4.1914,4.1562,4.1816,4.2012,4.2109,4.1699,4.1973,4.2619,4.302,4.3317,4.3591,4.4402,4.4563,4.4644,4.5127,4.5367,4.5486,4.5378,4.5581,4.5726,4.5457,4.5395,4.5395,4.5395,4.5395,4.5395,4.5395,4.5602,4.5788,4.5788,4.5788,4.5788,4.5788,4.5561,4.5457,4.5643,4.4733,4.4579,4.6018,4.664,4.7575,4.938,4.9355,4.8814,4.7775,4.5669,4.4298,4.4029,4.4411,4.4913,4.5557,4.7151,4.8473,4.9424,5.0659,5.1272,5.1272,5.1825,5.2277,5.2603,5.313,5.3306,3.6152,3.5918,3.5625,3.6601,3.7246,3.7734,3.8027,3.7949,3.8086,3.9004,3.8965,3.875,3.875,3.8652,3.8574,3.8574,3.8574,3.7438,3.4186,3.3761,3.261,2.9409,2.931,2.9544,2.9632,2.9559,2.9647,2.9968,3.0299,3.0393,3.0481,3.07,3.0759,3.0612,3.0846,3.1007,3.1095,3.1329,3.1563,3.1798,3.1798,3.3886,3.7841,3.8658,4.0353,4.2578,4.2031,4.1699,4.1562,4.2168,4.2246,4.2012,4.2305,4.25,4.2578,4.2402,4.2715,4.3343,4.3746,4.4143,4.4581,4.5243,4.5573,4.5819,4.6229,4.6393,4.6453,4.6182,4.6368,4.6616,4.6161,4.614,4.6202,4.6078,4.6057,4.6016,4.5892,4.6119,4.6266,4.6266,4.6266,4.6266,4.6266,4.6078,4.583,4.5705,4.5105,4.4934,4.576,4.6355,4.7383,4.9296,4.7951,4.7127,4.7476,4.5962,4.4857,4.4505,4.4381,4.467,4.5406,4.6878,4.8212,4.9391,5.0949,5.1724,5.1724,5.2277,5.2754,5.3155,5.3858,5.431,3.416,3.4766,3.5703,3.6973,3.791,3.8535,3.8555,3.8867,3.916,3.9199,3.9199,3.918,3.918,3.8848,3.8574,3.8574,3.8574,3.7438,3.4186,3.3983,3.2989,2.975,2.9647,2.9968,3.0372,3.0123,2.9983,3.0387,3.0431,3.0481,3.0788,3.0817,3.0964,3.1271,3.1285,3.1446,3.1768,3.1783,3.1783,3.1798,3.1798,3.3886,3.7925,4.0878,4.2576,4.3008,4.2168,4.2031,4.2402,4.2422,4.2422,4.2402,4.2422,4.2695,4.3105,4.3496,4.3672,4.375,4.4199,4.4629,4.498,4.498,4.53,4.5808,4.6249,4.6753,4.7069,4.6948,4.732,4.7548,4.7113,4.732,4.7506,4.7092,4.6989,4.6885,4.6349,4.6246,4.6266,4.6266,4.6266,4.6266,4.6266,4.6246,4.6182,4.5747,4.5664,4.5643,4.5702,4.7389,4.9204,5.0762,4.9174,4.8,4.8,4.6152,4.4981,4.4981,4.4546,4.4298,4.4354,4.6899,4.8312,4.8312,5.1279,5.2879,5.2879,5.3406,5.3658,5.3708,5.4813,5.5064,3.5976,3.6836,3.7812,3.9121,3.9883,4.0293,4.0293,4.041,4.043,4.0137,3.9863,3.957,3.9258,3.8867,3.8574,3.8574,3.8574,3.7533,3.4457,3.4154,3.3088,3.0061,3.0064,3.0313,3.0416,3.0328,3.032,3.0642,3.0671,3.0803,3.1124,3.1154,3.1198,3.13,3.1315,3.1461,3.1798,3.1798,3.2017,3.2441,3.3633,3.5569,3.8134,4.0472,4.2036,4.3066,4.2773,4.2558,4.2441,4.2734,4.2851,4.2891,4.3164,4.3555,4.4004,4.4414,4.4766,4.5039,4.5195,4.5527,4.5879,4.6225,4.6378,4.6723,4.7496,4.7837,4.7991,4.7961,4.8252,4.85,4.8045,4.8024,4.8024,4.7568,4.7237,4.6824,4.637,4.6266,4.6266,4.6266,4.6266,4.6266,4.6266,4.6266,4.6409,4.6554,4.5809,4.5229,4.5229,4.5807,4.6675,4.7746,4.7029,4.6795,4.7722,4.6629,4.6016,4.6326,4.5643,4.5084,4.4774,4.6301,4.7506,4.8263,5.0293,5.1886,5.2929,5.3457,5.3909,5.4285,5.5039,5.5491,3.709,3.8047,3.8926,4.0391,4.0976,4.1172,4.1172,4.1172,4.1094,4.082,4.0156,3.9609,3.9473,3.8848,3.8496,3.8965,3.8506,3.7259,3.4968,3.4205,3.292,3.0336,3.032,3.0525,3.0525,3.0525,3.0598,3.0803,3.0817,3.0964,3.13,3.1315,3.1417,3.1651,3.1549,3.1637,3.1973,3.1973,3.2237,3.2852,3.4669,3.653,3.8512,4.0198,4.1955,4.3535,4.3379,4.3144,4.291,4.3183,4.3301,4.334,4.3789,4.4141,4.4473,4.5039,4.543,4.5703,4.584,4.6074,4.6396,4.6658,4.6832,4.7181,4.7941,4.8286,4.8442,4.8415,4.8707,4.8955,4.85,4.85,4.8459,4.7838,4.7465,4.7092,4.639,4.639,4.6514,4.6514,4.672,4.6782,4.6616,4.637,4.637,4.6659,4.6037,4.5602,4.5912,4.5954,4.6182,4.6761,4.643,4.6513,4.7382,4.6927,4.6638,4.701,4.6492,4.6037,4.5747,4.6798,4.7866,4.9089,5.0624,5.2156,5.3808,5.4135,5.4612,5.5164,5.5717,5.6068,3.7402,3.832,3.9101,4.0762,4.1172,4.1172,4.1172,4.1172,4.1152,4.1094,4.0059,3.9277,3.9609,3.8691,3.8281,3.9492,3.8292,3.6772,3.5581,3.4292,3.2632,3.0654,3.0642,3.0817,3.0817,3.0817,3.0832,3.0846,3.0846,3.0993,3.1315,3.1344,3.1651,3.228,3.1973,3.1959,3.228,3.228,3.2441,3.2837,3.4581,3.6573,3.8959,4.0292,4.2246,4.4414,4.3965,4.3769,4.373,4.3711,4.3711,4.375,4.4219,4.4433,4.457,4.541,4.5742,4.584,4.623,4.6348,4.6308,4.6328,4.659,4.7094,4.7588,4.8088,4.8397,4.8519,4.879,4.9038,4.8603,4.879,4.8873,4.7962,4.7734,4.7486,4.6596,4.6679,4.7072,4.7072,4.7403,4.7548,4.7113,4.6597,4.6287,4.6266,4.6266,4.6658,4.7506,4.761,4.7631,4.7651,4.7258,4.701,4.7072,4.703,4.701,4.7072,4.703,4.701,4.701,4.7987,4.915,5.0331,5.1915,5.3594,5.5271,5.5465,5.5742,5.6269,5.6821,5.6796,3.8164,3.9434,4.0625,4.1055,4.1172,4.1172,4.1172,4.1172,4.0898,3.9902,3.918,3.8281,3.6816,3.7051,3.7363,3.7051,3.7958,3.7821,3.5279,3.4869,3.3823,3.1002,3.0773,3.0817,3.0817,3.0817,3.092,3.1168,3.1183,3.1329,3.1651,3.19,3.2222,3.2632,3.209,3.1959,3.228,3.228,3.2324,3.2412,3.3324,3.5586,3.8907,3.9808,4.1956,4.4863,4.4746,4.4512,4.4199,4.3848,4.3711,4.375,4.4219,4.4785,4.541,4.5937,4.6543,4.7109,4.7207,4.6836,4.6348,4.666,4.665,4.6776,4.8222,4.8554,4.8594,4.9584,4.999,5.0052,4.9928,4.9742,4.9431,4.8852,4.8459,4.8045,4.7465,4.7444,4.7527,4.7527,4.761,4.7548,4.7113,4.6947,4.6659,4.6308,4.6266,4.6349,4.6658,4.6699,4.6823,4.7175,4.6803,4.6803,4.7465,4.6906,4.6803,4.7486,4.6885,4.6452,4.6452,4.6793,4.7437,4.8565,5.0673,5.2481,5.4079,5.5781,5.6696,5.6846,5.7424,5.76,3.8984,4.0137,4.1172,4.1172,4.1172,4.1016,4.0449,4.0312,3.9883,3.8398,3.7598,3.6619,3.4662,3.5636,3.6321,3.5116,3.6312,3.6713,3.4752,3.3953,3.289,3.0984,3.0817,3.0817,3.0817,3.0949,3.111,3.13,3.1315,3.152,3.1988,3.2178,3.2427,3.2763,3.228,3.2032,3.2076,3.2076,3.2222,3.25,3.2997,3.5393,3.9387,3.9816,4.1954,4.5293,4.5117,4.4785,4.4375,4.4121,4.4004,4.4082,4.4902,4.5527,4.6035,4.6641,4.7168,4.7578,4.7578,4.7266,4.6894,4.7129,4.7051,4.713,4.8602,4.8707,4.8601,4.979,4.999,4.9825,4.9825,4.9638,4.9328,4.8873,4.8562,4.8252,4.7775,4.7838,4.8045,4.8252,4.8127,4.79,4.7672,4.7444,4.7237,4.6968,4.6927,4.6927,4.6927,4.6596,4.637,4.6617,4.6432,4.6554,4.7051,4.6823,4.6865,4.7361,4.7113,4.6927,4.6927,4.6927,4.743,4.8676,5.0646,5.241,5.4035,5.6029,5.7298,5.7775,5.8102,5.8378,3.9687,4.0527,4.1172,4.1172,4.1172,4.082,3.9512,3.916,3.8594,3.6719,3.5684,3.4677,3.2993,3.4213,3.5092,3.3727,3.4435,3.4899,3.4045,3.2541,3.1391,3.0861,3.0861,3.089,3.089,3.1183,3.1388,3.1432,3.1446,3.1695,3.2251,3.2324,3.2456,3.2705,3.2383,3.209,3.1798,3.1798,3.2105,3.2705,3.3115,3.5447,3.958,3.995,4.2064,4.5377,4.5207,4.4883,4.4492,4.4492,4.4453,4.4512,4.5742,4.6289,4.6484,4.7285,4.7656,4.7754,4.7754,4.7754,4.7734,4.7676,4.7617,4.7777,4.8792,4.8799,4.8614,4.9579,4.9552,4.9242,4.9328,4.9287,4.9142,4.8748,4.8603,4.8438,4.7962,4.8189,4.8583,4.8997,4.8748,4.8438,4.8396,4.8045,4.7755,4.7693,4.7693,4.7693,4.7693,4.701,4.6533,4.6533,4.639,4.6349,4.6349,4.674,4.6947,4.6947,4.7299,4.7506,4.7506,4.7568,4.8145,4.9161,5.1097,5.2868,5.4358,5.6227,5.765,5.8604,5.8604,5.8702,3.9863,4.0527,4.1172,4.1172,4.1172,4.082,3.9512,3.8926,3.7891,3.5098,3.4121,3.3238,3.1576,3.2174,3.2918,3.2918,3.4045,3.4491,3.3177,3.3006,3.252,3.0998,3.1066,3.1227,3.1227,3.152,3.1827,3.209,3.212,3.2163,3.228,3.2544,3.2588,3.2368,3.2046,3.1856,3.1798,3.1798,3.1988,3.2383,3.3232,3.4849,3.7281,3.9385,4.1655,4.39,4.503,4.5312,4.4922,4.4922,4.4707,4.4492,4.543,4.6211,4.6875,4.7383,4.8027,4.8633,4.8633,4.8633,4.8574,4.8223,4.7871,4.7805,4.9148,4.925,4.9092,5.0058,5.0264,5.0292,5.0668,5.0466,5.0156,5.0094,4.9783,4.939,4.8935,4.8893,4.8976,4.9059,4.8997,4.8831,4.8438,4.8314,4.8127,4.7734,4.7693,4.7693,4.7693,4.7548,4.7444,4.7444,4.7134,4.6927,4.6927,4.6555,4.639,4.639,4.6533,4.6575,4.6575,4.6947,4.7195,4.744,5.0899,5.2852,5.3144,5.6238,5.7851,5.8052,5.8052,5.737,3.9902,4.0527,4.1172,4.1172,4.1172,4.0605,3.8379,3.7734,3.6601,3.3125,3.2246,3.1597,2.9887,3.0736,3.1504,3.0737,3.2109,3.2916,3.171,3.1833,3.1715,3.09,3.111,3.1315,3.1315,3.1754,3.212,3.2266,3.2441,3.2529,3.2529,3.269,3.2705,3.2544,3.2222,3.2046,3.2046,3.2046,3.2222,3.2544,3.3349,3.4789,3.6919,3.9429,4.1581,4.3442,4.4808,4.5351,4.5351,4.5117,4.5039,4.5156,4.5996,4.6582,4.7012,4.7656,4.8164,4.8555,4.8789,4.8867,4.8789,4.834,4.8223,4.8372,4.9116,4.8969,4.8792,4.951,4.9344,4.9088,4.9594,4.9702,4.9749,4.9676,4.9556,4.9328,4.9121,4.9059,4.9059,4.9059,4.9059,4.8997,4.8769,4.8728,4.8666,4.8438,4.8396,4.8396,4.8396,4.8396,4.821,4.7734,4.7506,4.7279,4.7051,4.6762,4.6514,4.6287,4.6266,4.6266,4.6266,4.6473,4.6678,4.6678,4.9308,5.1165,5.2028,5.452,5.6302,5.7449,5.7449,5.7149,3.9902,4.0527,4.1172,4.1172,4.1172,4.0391,3.7363,3.6601,3.543,3.1543,3.0684,3.02,2.8896,2.9495,2.9965,2.913,3.0028,3.0761,3.0462,3.0568,3.0744,3.0817,3.1168,3.1417,3.1417,3.2002,3.2383,3.2383,3.2632,3.2778,3.2778,3.2778,3.2807,3.2866,3.2559,3.2427,3.2485,3.2427,3.2515,3.2778,3.3422,3.4652,3.6427,3.9282,4.1294,4.2889,4.4415,4.5351,4.5644,4.5312,4.5371,4.5742,4.6504,4.657,4.6369,4.7495,4.7774,4.7694,4.8502,4.8789,4.8769,4.7766,4.8085,4.8744,4.8776,4.8472,4.8206,4.8742,4.8358,4.7929,4.8428,4.8928,4.9369,4.9345,4.9204,4.9059,4.9059,4.9059,4.9059,4.9059,4.9059,4.9059,4.9059,4.9059,4.9059,4.9059,4.9059,4.9059,4.9059,4.9059,4.879,4.8065,4.79,4.7693,4.7341,4.7237,4.703,4.6658,4.6637,4.6514,4.6411,4.6411,4.637,4.6266,4.797,4.9607,5.1293,5.2897,5.4791,5.6872,5.6872,5.6874,3.9902,4.0527,4.1172,4.1172,4.1172,4.0391,3.7363,3.6367,3.498,3.1094,2.998,2.9687,2.9517,2.8165,2.7781,2.9916,2.8935,2.8515,3.0181,3.046,3.0495,3.0788,3.1373,3.1754,3.1754,3.2339,3.2719,3.2719,3.2749,3.2778,3.2778,3.2778,3.2895,3.3188,3.2895,3.2866,3.3158,3.2866,3.2749,3.2778,3.3422,3.3835,3.4152,3.8548,4.0571,4.0916,4.4197,4.5644,4.5664,4.5625,4.5644,4.5723,4.6191,4.5484,4.4445,4.6369,4.6438,4.5779,4.7603,4.8535,4.8434,4.583,4.6508,4.8262,4.8314,4.8001,4.7758,4.8206,4.8313,4.8372,4.8897,4.9661,5.0254,5.0301,4.9659,4.9059,4.9059,4.9059,4.9059,4.9059,4.9059,4.9059,4.9059,4.9059,4.9059,4.9059,4.9059,4.9059,4.9059,4.9059,4.9038,4.8955,4.8562,4.8293,4.8252,4.7858,4.761,4.7568,4.7568,4.7382,4.6989,4.6968,4.6782,4.6266,4.797,4.9607,5.1293,5.2897,5.462,5.6294,5.6294,5.546,3.9902,4.0527,4.1172,4.1172,4.0781,3.9687,3.6914,3.5527,3.3887,3.0527,2.9492,2.9336,2.9844,2.7984,2.721,2.975,2.8326,2.7437,2.8973,2.9529,2.9881,3.0203,3.0993,3.1578,3.1783,3.2383,3.2778,3.2778,3.2778,3.2778,3.2778,3.2954,3.3115,3.3246,3.3129,3.3115,3.3246,3.2924,3.2778,3.2778,3.3232,3.3539,3.3835,3.696,3.9191,4.0645,4.2968,4.4739,4.6035,4.5781,4.582,4.6074,4.623,4.5948,4.5395,4.5177,4.5569,4.6271,4.6136,4.7002,4.7897,4.6446,4.6658,4.7153,4.6034,4.6389,4.7187,4.7366,4.7493,4.7614,4.8137,4.8954,4.9742,5.0301,4.9721,4.9059,4.9059,4.9059,4.9059,4.9059,4.9059,4.9059,4.9059,4.9059,4.9059,4.9059,4.9059,4.9059,4.9059,4.9059,4.9059,4.9059,4.8893,4.8686,4.8396,4.821,4.7982,4.7693,4.7693,4.761,4.7424,4.7424,4.7217,4.67,4.7391,4.8408,4.9819,5.1447,5.3124,5.4745,5.5754,5.5827,3.9824,4.0028,4.0356,4.1055,4.0124,3.8586,3.6463,3.5019,3.3223,3.0195,2.9219,2.9101,2.9707,2.8116,2.7453,2.9872,2.8308,2.7398,2.9017,2.9256,2.9383,2.9807,3.0627,3.13,3.1622,3.2339,3.2778,3.2778,3.2778,3.2807,3.291,3.3217,3.3393,3.3393,3.3393,3.3393,3.3393,3.3071,3.2866,3.2778,3.31,3.3273,3.3597,3.6046,3.8268,4.049,4.2226,4.4228,4.6289,4.5976,4.6035,4.6308,4.6308,4.5939,4.5431,4.49,4.5267,4.5955,4.5521,4.6343,4.741,4.6427,4.647,4.654,4.4476,4.5172,4.6777,4.6894,4.7061,4.7394,4.7949,4.8662,4.9431,5.0073,4.9742,4.9224,4.91,4.9059,4.9059,4.9059,4.9059,4.9059,4.9059,4.9059,4.9059,4.9059,4.9059,4.9059,4.9059,4.9059,4.9059,4.9059,4.9059,4.8935,4.8603,4.8583,4.8438,4.8107,4.8086,4.8024,4.79,4.79,4.7672,4.7237,4.7237,4.8093,4.9949,5.1207,5.2834,5.4985,5.6153,5.6153,3.9668,3.8936,3.8461,4.0666,3.9239,3.7109,3.6186,3.5019,3.3223,3.0195,2.9219,2.8926,2.8926,2.8313,2.8458,3.0638,2.9109,2.8395,3.0814,2.9881,2.9134,2.9793,3.0437,3.0964,3.1285,3.2193,3.2778,3.2778,3.2778,3.291,3.3217,3.3554,3.3729,3.3729,3.3729,3.3729,3.3729,3.3407,3.3085,3.2778,3.31,3.3246,3.3261,3.5937,3.8121,4.0129,4.2388,4.4473,4.6308,4.6289,4.6289,4.6308,4.6308,4.5109,4.3656,4.5568,4.5287,4.4265,4.6203,4.7226,4.723,4.4845,4.5361,4.6481,4.416,4.4757,4.6387,4.6816,4.7236,4.7889,4.8836,4.9481,4.9829,4.9763,4.9763,4.9704,4.9162,4.9059,4.9059,4.9059,4.9059,4.9059,4.9059,4.9059,4.9059,4.9059,4.9059,4.9059,4.9059,4.9059,4.9059,4.9059,4.9059,4.9059,4.9059,4.9059,4.9059,4.9059,4.9059,4.8852,4.8396,4.8376,4.8148,4.7693,4.7672,4.9364,5.2809,5.2786,5.4538,5.7876,5.7876,5.6054,3.8047,3.7587,3.7184,3.8267,3.6755,3.49,3.4727,3.3457,3.1797,2.9998,2.8984,2.8574,2.8867,2.8067,2.8297,3.1057,3.0258,2.9672,3.0873,3.101,3.0711,2.9968,3.1022,3.1959,3.228,3.2588,3.2778,3.2778,3.2778,3.291,3.3232,3.3554,3.3729,3.3729,3.3729,3.3627,3.3407,3.3085,3.2866,3.2778,3.288,3.3158,3.3583,3.441,3.6917,4.0777,4.1535,4.3703,4.6738,4.6738,4.6562,4.6308,4.6308,4.5939,4.5304,4.458,4.4832,4.5496,4.4768,4.5484,4.6591,4.5818,4.5956,4.6377,4.5607,4.5851,4.6416,4.6815,4.728,4.7889,4.8856,4.9168,4.9369,4.968,4.9763,4.9721,4.9576,4.9783,4.9908,4.9597,4.9535,4.9431,4.9121,4.9059,4.9059,4.9059,4.9059,4.9059,4.9059,4.9059,4.9059,4.9059,4.9059,4.9059,4.9059,4.9059,4.9059,4.9059,4.9059,4.8997,4.8852,4.8852,4.8624,4.8169,4.8148,4.8567,4.9282,5.1693,5.4561,5.7901,5.7901,5.7348,3.6601,3.5796,3.5121,3.6209,3.47,3.3019,3.3227,3.2498,3.1348,2.9883,2.9023,2.8613,2.8867,2.8437,2.8973,3.154,3.1117,3.0717,3.1408,3.1473,3.1183,3.0373,3.1329,3.2222,3.2559,3.2705,3.2778,3.2778,3.288,3.3085,3.3407,3.3744,3.3919,3.3919,3.3802,3.3568,3.3156,3.2924,3.2778,3.2778,3.2778,3.3041,3.3554,3.3671,3.6339,4.0932,4.1223,4.356,0.0,4.7168,4.6914,4.6523,4.6367,4.6308,4.6114,4.4933,4.5304,4.6114,4.4933,4.5304,4.6308,4.6308,4.6308,4.6308,4.6308,4.6308,4.6396,4.6658,4.73,4.811,4.8722,4.9369,4.9866,4.997,5.0135,5.0218,5.0052,5.0218,5.028,4.9845,4.9763,4.9618,4.9142,4.9059,4.9059,4.9059,4.9059,4.9059,4.9059,4.9059,4.9059,4.9059,4.9059,4.9059,4.9059,4.9059,4.9059,4.9059,4.9059,4.9059,4.9059,4.9059,4.8935,4.8645,4.8645,4.8817,4.9257,5.2636,5.5782,5.8504,5.8504,5.8174,0.0,3.3798,3.2293,3.4319,3.2914,3.1185,3.1727,3.1992,0.0,2.9961,2.9258,2.8984,2.9043,2.9394,3.0254,3.215,3.1917,3.1799,3.2488,3.1703,3.1028,3.0895,3.1546,3.2131,3.2324,3.2602,3.2778,3.2778,3.3071,3.3393,3.3715,3.4036,3.4212,3.4212,3.3905,3.3568,3.3156,3.2924,3.2778,3.2778,3.2778,3.2954,3.329,3.3673,3.6412,4.0748,4.1597,4.4142,4.7578,4.7578,4.7324,4.6894,4.6465,4.6308,4.6308,4.6308,4.6308,4.6308,4.6308,4.6308,4.6308,4.6308,4.6308,4.6308,4.6308,4.6308,4.6308,4.6308,4.7304,4.8345,4.8365,4.9678,5.0833,5.0508,5.0777,5.0984,5.057,5.0487,5.0384,4.9887,4.9825,4.968,4.9162,4.91,4.91,4.908,4.9059,4.9059,4.9059,4.9059,4.9059,4.9059,4.9059,4.9059,4.9059,4.9059,4.9059,4.9059,4.9059,4.9059,4.9059,4.9059,4.9059,4.9059,4.9059,4.9955,5.1682,5.4928,5.7455,5.9328,5.9328,5.8525,3.2441,0.0,3.0261,3.112,3.0077,2.9107,0.0,3.0702,3.0976,3.0215,2.9707,2.9629,3.0293,3.0508,3.1465,3.4199,3.4793,3.5054,3.5665,3.5192,3.4067,3.2141,3.3254,3.3833,3.3043,3.2866,3.2778,3.2778,3.3071,3.3393,3.3715,3.4036,3.4212,3.4212,3.3905,3.3568,3.3156,3.2924,3.2778,3.2778,3.2778,3.3071,3.3612,3.5195,3.7792,4.1109,4.3174,4.5349,4.7578,4.7578,4.7324,4.6894,4.6465,4.6308,4.6308,4.6308,4.6308,4.6308,4.6308,4.6308,4.6308,4.6308,4.6308,4.6308,4.6308,4.6308,4.6308,4.6308,4.6824,4.7507,4.8197,4.8946,4.9676,5.0275,5.0777,5.1087,5.0963,5.1232,5.1232,5.0425,5.0549,5.0425,4.9266,4.9369,4.9473,4.9121,4.9059,4.9059,4.9059,4.9059,4.9059,4.9059,4.9059,4.9059,4.9059,4.9059,4.9059,4.9059,4.9059,4.9059,4.9059,4.9059,4.9059,4.9059,4.9059,4.9955,5.1682,5.2492,5.4522,5.7534,5.7534,5.8031,3.123,3.0792,3.0183,2.9821,2.9651,2.9499,2.9155,3.0121,3.0996,3.0332,3.0019,3.0,3.0488,3.0898,3.1894,3.4121,3.5351,3.6393,3.7456,3.6523,3.5265,3.3981,3.4006,3.3837,3.3087,3.288,3.2778,3.2778,3.3071,3.3393,3.3715,3.4036,3.4285,3.4432,3.3978,3.3568,3.3156,3.2924,3.2778,3.2778,3.291,3.368,3.506,3.6267,3.8976,4.2792,4.4124,4.6011,4.8144,4.7734,4.7441,4.7168,4.6543,4.6308,4.6308,4.6308,4.6308,4.6308,4.6308,4.6308,4.6308,4.6308,4.6308,4.6308,4.6308,4.6308,4.6308,4.6308,4.6796,4.7491,4.8458,4.9141,4.9957,5.0854,5.1253,5.1419,5.1419,5.1626,5.1584,5.088,5.0943,5.0736,4.9576,4.9597,4.9597,4.9142,4.9059,4.9059,4.9059,4.9059,4.9059,4.9059,4.9059,4.9059,4.9059,4.9059,4.9059,4.9059,4.9059,4.9059,4.9059,4.9059,4.9059,4.9059,4.9059,4.9955,5.1682,5.1682,5.346,5.6876,5.6876,5.7873,3.1113,3.1484,3.135,2.9297,2.9942,3.0628,2.8639,2.9867,3.1211,3.0449,3.0351,3.0488,3.0742,3.1406,3.2383,3.3867,3.5527,3.6923,3.7993,3.6941,3.5838,3.5257,3.415,3.3294,3.2851,3.2793,3.2778,3.2778,3.3115,3.3436,3.3715,3.4095,3.4417,3.4695,3.4124,3.3732,3.3664,3.3383,3.3205,3.3205,3.3784,3.5083,3.7006,3.7704,4.0407,4.4581,4.5019,4.6473,4.8613,4.7871,4.7539,4.7402,4.6601,4.6308,4.6308,4.6308,4.6308,4.6308,4.6308,4.6308,4.6308,4.6308,4.6308,4.6308,4.6308,4.6308,4.6308,4.6308,4.6914,4.7837,4.8699,4.9587,5.0572,5.1494,5.175,5.1791,5.1791,5.1791,5.1667,5.1191,5.117,5.0922,5.0011,4.9908,4.9783,4.9245,4.9183,4.9142,4.908,4.9059,4.9059,4.9059,4.9059,4.923,4.9486,4.9465,4.9465,4.9465,4.923,4.9059,4.9059,4.9059,4.9059,4.9059,4.9059,4.9806,5.1263,5.1263,5.3071,5.6479,5.6479,5.7613,3.2109,3.335,3.3043,2.8447,2.8879,2.9803,2.7721,2.9182,3.0937,3.082,3.1074,3.1758,3.3203,3.3594,3.4453,3.6855,3.8398,3.8519,3.6219,3.74,3.7139,3.3308,3.392,3.4237,3.3204,3.2924,3.2778,3.2778,3.3319,3.3685,3.3729,3.43,3.4651,3.471,3.4344,3.4696,3.5942,3.5404,3.509,3.5106,3.7069,3.8396,3.9032,4.109,4.2798,4.4177,4.6304,4.7366,4.7773,4.7637,4.7363,4.6973,4.6484,4.6308,4.6308,4.6308,4.6308,4.6308,4.6308,4.6308,4.6308,4.6308,4.6308,4.6308,4.6308,4.6308,4.6308,4.6308,4.6697,4.7292,4.8257,4.9141,5.0012,5.1019,5.1522,5.1791,5.1791,5.1791,5.1667,5.1191,5.1419,5.1398,5.0487,5.0653,5.0611,4.9783,4.9659,4.9514,4.9121,4.9059,4.9059,4.9059,4.9059,4.9721,5.1179,5.1263,5.1263,5.1263,4.9891,4.9059,4.9059,4.9059,4.9059,4.9059,4.9059,4.923,4.9465,4.9465,5.1263,5.4685,5.4685,5.6399,3.125,3.2344,3.2705,3.0093,3.1598,3.3199,3.115,3.1851,3.2891,3.2656,3.2773,3.3203,3.4219,3.5,3.6328,3.8906,4.0039,4.0241,3.9337,3.9648,3.886,3.5811,3.5517,3.4818,3.3146,3.2851,3.2837,3.3012,3.3305,3.405,3.547,3.481,3.497,3.6235,3.5899,3.6002,3.6453,3.8053,3.8202,3.6966,3.8489,3.9809,4.098,4.2469,4.4179,4.5991,4.7121,4.7715,4.7891,4.7676,4.7324,4.6894,4.6465,4.6308,4.6308,4.6308,4.6308,4.6308,4.6308,4.6308,4.6308,4.6308,4.6308,4.6308,4.6308,4.6308,4.6308,4.6308,4.6658,4.7253,4.8438,4.9202,4.9971,5.1225,5.1646,5.1791,5.1791,5.1605,5.1439,5.1481,5.146,5.1294,5.086,5.0963,5.088,5.0218,4.9908,4.968,4.9473,4.9224,4.9059,4.9059,4.9059,4.9806,5.1514,5.1682,5.1682,5.1682,5.004,4.9059,4.9059,4.9059,4.9059,4.9059,4.9059,4.9059,4.9059,4.9059,5.0864,5.4278,5.4278,5.6159,3.0801,3.1621,3.2409,3.2286,3.3945,3.5307,3.4009,3.4079,3.4375,3.4238,3.4375,3.4648,3.5078,3.6406,3.8066,4.0059,4.082,4.123,4.1455,4.061,3.9267,3.7538,3.6057,3.4595,3.297,3.2778,3.2895,3.3217,3.3664,3.4923,3.7019,3.6158,3.6236,3.7575,3.7762,3.7727,3.7298,4.0262,4.0818,3.8974,4.0191,4.1539,4.3161,4.3783,4.5331,4.7422,4.7422,4.7617,4.7891,4.7558,4.7168,4.6758,4.6426,4.6308,4.6308,4.6308,4.6308,4.6308,4.6308,4.6308,4.6308,4.6308,4.6308,4.6308,4.6308,4.6308,4.6308,4.6308,4.6745,4.7427,4.8418,4.921,4.9984,5.106,5.1398,5.1481,5.1481,5.1191,5.1046,5.1419,5.1191,5.0984,5.1087,5.1108,5.0984,5.0632,5.0301,5.0032,4.9928,4.9514,4.9224,4.9224,4.9549,5.0379,5.216,5.2658,5.2575,5.1765,5.004,4.9059,4.9059,4.9059,4.9059,4.9059,4.9059,4.9059,4.9059,4.9465,5.1263,5.4278,5.4685,5.6558,3.2168,3.2969,3.3472,3.4264,3.3472,3.2676,3.3308,3.3481,3.373,3.4492,3.5312,3.6016,3.6445,3.8242,3.9726,3.9902,4.0625,4.0626,3.9114,3.7958,3.6626,3.4863,3.369,3.297,3.2778,3.2778,3.2895,3.3217,3.5191,3.6596,3.7035,3.8993,3.9283,3.7667,3.9374,4.0095,3.9631,4.128,4.1855,4.1367,4.3576,4.4892,4.5472,4.5919,4.6367,4.6973,4.6973,4.6992,4.7012,4.6992,4.6719,4.6348,4.6308,4.6308,4.6308,4.6308,4.6308,4.6308,4.6308,4.6308,4.6308,4.6308,4.6308,4.6308,4.6308,4.6308,4.6308,4.6308,4.692,4.7635,4.7782,4.88,4.9825,4.9887,5.0218,5.0529,5.0529,5.0487,5.0466,5.0508,5.0487,5.0611,5.1025,5.1108,5.1108,5.1067,5.1025,5.086,5.0425,4.999,4.9787,4.9787,5.0804,5.2243,5.3952,5.5574,5.5171,5.1932,5.004,4.9059,4.9059,4.9059,4.9059,4.9059,4.9059,4.9059,4.9059,5.0696,5.2492,5.436,5.5999,5.7692,3.0996,3.209,3.3301,3.4414,3.4434,3.4381,3.5229,3.6062,3.6719,3.7051,3.7383,3.7656,3.7832,3.8984,3.998,4.0234,4.0781,4.1016,4.0275,3.9344,3.8035,3.6208,3.6093,3.5249,3.3029,3.3792,3.418,3.36,3.4276,3.609,3.9067,3.8869,3.9482,4.1113,4.1941,4.1461,3.959,4.2444,4.3262,4.2045,4.4051,4.5254,4.5683,4.6113,4.6523,4.6933,4.6933,4.6933,4.6933,4.6933,4.668,4.6308,4.6308,4.6308,4.6308,4.6308,4.6308,4.6308,4.6308,4.6308,4.6308,4.6308,4.6308,4.6308,4.6308,4.6308,4.6396,4.6658,4.7181,4.7782,4.8043,4.8943,4.9825,5.0094,5.0301,5.0425,5.0425,5.0197,5.0094,5.0363,5.0197,5.0239,5.0984,5.1108,5.1212,5.1501,5.1046,5.0611,5.0446,5.0032,4.9725,4.9435,5.1707,5.3019,5.2295,5.39,5.3681,5.1032,5.0771,5.021,4.9144,4.879,4.8645,4.8645,4.8355,4.8924,5.0246,5.0891,5.2839,5.5919,5.6558,5.7873,3.1055,3.1992,3.334,3.4766,3.5039,3.5351,3.6738,3.7734,3.8496,3.8906,3.8867,3.8809,3.8965,3.9492,4.0039,4.0449,4.0879,4.1172,4.1172,3.9844,3.8365,3.7124,3.669,3.551,3.3029,3.3968,3.4418,3.3776,3.426,3.6318,4.0265,3.9846,4.0662,4.33,4.403,4.2794,3.9645,4.3222,4.4205,4.2555,4.4205,4.5332,4.5879,4.6172,4.6465,4.6738,4.6738,4.6738,4.6738,4.6738,4.6562,4.6308,4.6308,4.6308,4.6308,4.6308,4.6308,4.6308,4.6308,4.6308,4.6308,4.6308,4.6308,4.6308,4.6308,4.6308,4.6396,4.6832,4.7354,4.7782,4.8258,4.9015,4.9618,4.9928,4.999,4.999,4.999,4.9763,4.9618,4.9928,4.9742,4.9783,5.0549,5.0798,5.1005,5.1315,5.0943,5.0591,5.0446,5.0032,4.9836,4.9933,5.2708,5.3601,5.1169,5.3118,5.297,4.9691,5.0604,5.0496,4.8709,4.8334,4.8148,4.8148,4.7838,4.8546,5.0155,5.1268,5.3287,5.6079,5.7218,5.8344,3.2891,3.3105,3.3848,3.5586,3.5059,3.4805,3.7363,3.793,3.832,3.9629,3.9531,3.9355,3.9805,3.9902,4.0039,4.0449,4.0879,4.1172,4.1172,3.8797,3.6975,3.6975,3.4494,3.2852,3.2778,3.2852,3.3041,3.3685,3.5496,3.7745,4.0356,4.23,4.3389,4.3389,4.5304,4.4285,4.0005,4.3285,4.4253,4.2854,4.4339,4.5488,4.6308,4.6308,4.6308,4.6308,4.6308,4.6308,4.6308,4.6308,4.6308,4.6308,4.6308,4.6308,4.6308,4.6308,4.6308,4.6308,4.6308,4.6308,4.6308,4.6308,4.6308,4.6308,4.6308,4.6308,4.6396,4.6832,4.7354,4.7788,4.8286,4.8716,4.9059,4.9059,4.9059,4.9059,4.9059,4.9059,4.9059,4.9059,4.9059,4.9204,4.9767,5.0115,5.0425,5.0425,5.0798,5.0943,5.0466,5.0032,5.0246,5.158,5.3686,5.3882,5.1191,5.4161,5.377,4.8025,4.9343,4.9506,4.7755,4.7672,4.7672,4.7672,4.7672,4.79,4.8439,5.1901,5.3854,5.4441,5.7873,5.9483,3.1016,3.2617,3.4453,3.4961,3.6641,3.8281,3.873,3.8828,3.9121,4.0117,4.0234,4.0078,3.9922,4.0137,4.0371,4.0508,4.0879,4.1172,4.1172,3.8797,3.6975,3.6975,3.5596,3.4231,3.294,3.3983,3.4433,3.3776,3.426,3.6333,4.0265,4.104,4.2568,4.5392,4.6026,4.4134,3.9698,4.2178,4.244,4.0491,4.2821,4.4705,4.6308,4.6308,4.6465,4.6719,4.6426,4.6465,4.6719,4.6426,4.6308,4.6308,4.6308,4.6308,4.6308,4.6308,4.6308,4.6308,4.6308,4.6308,4.6308,4.6308,4.6308,4.6308,4.6308,4.6308,4.6483,4.7268,4.7615,4.7874,4.8716,4.8973,4.9059,4.9059,4.9059,4.9059,4.9059,4.9059,4.9059,4.9059,4.9059,4.9204,4.9767,4.9866,5.0052,5.0363,5.0259,5.0115,4.997,4.9556,4.9711,5.071,5.3025,5.3026,4.9469,5.2097,5.1854,4.7027,4.7208,4.7583,4.7651,4.7382,4.7237,4.7237,4.6906,4.752,4.9248,5.1795,5.3985,5.5692,5.8249,5.9483,3.3113,3.472,3.6396,3.7121,3.8066,3.8965,3.9375,3.9609,3.9922,4.0625,4.0644,4.0547,4.0644,4.0586,4.0625,4.0976,4.1113,4.1172,4.1172,3.9362,3.8035,3.8035,3.72,3.5858,3.4071,3.4828,3.502,3.3762,3.4441,3.6499,4.0265,4.1203,4.3122,4.6221,4.6308,4.4447,4.0683,4.2863,4.2863,4.0596,4.3121,4.5045,4.6308,4.6484,4.6601,4.666,4.6406,4.6445,4.666,4.6406,4.6308,4.6308,4.6308,4.6308,4.6308,4.6308,4.6308,4.6308,4.6308,4.6308,4.6308,4.6308,4.6308,4.6308,4.6308,4.6308,4.6483,4.7441,4.7701,4.7961,4.8908,4.9059,4.9059,4.9059,4.9059,4.9059,4.9059,4.9059,4.9059,4.9059,4.9059,4.9162,4.9431,4.9638,4.9783,4.9866,4.9659,4.9473,4.9473,4.939,4.9473,4.9845,5.2189,5.2231,4.8421,5.0589,5.0447,4.6571,4.6266,4.6596,4.7134,4.6906,4.6679,4.6679,4.6411,4.7041,4.8597,5.1445,5.3673,5.5217,5.8175,5.9483,3.684,3.7845,3.8938,4.0582,3.9219,3.7949,3.9531,4.0195,4.0605,4.1074,4.0879,4.0859,4.1601,4.1133,4.0879,4.1621,4.1426,4.1172,4.1172,4.0325,3.9677,3.9677,3.8786,3.7569,3.5993,3.5613,3.5197,3.4336,3.5692,3.7835,4.0627,4.2479,4.4296,4.6221,4.6308,4.499,4.2284,4.4415,4.4415,4.2284,4.4472,4.5783,4.6308,4.6699,4.666,4.6308,4.6348,4.6328,4.6308,4.6308,4.6308,4.6308,4.6308,4.6308,4.6308,4.6308,4.6308,4.6308,4.6308,4.6308,4.6308,4.6308,4.6308,4.6308,4.6308,4.6308,4.6483,4.7441,4.7701,4.7961,4.8908,4.9059,4.9059,4.9059,4.9059,4.9059,4.9059,4.9059,4.9059,4.9059,4.9059,4.9059,4.9059,4.9411,4.9556,4.9121,4.9059,4.9059,4.9059,4.9431,4.9621,4.942,5.1659,5.1741,4.8296,4.9937,4.9838,4.6573,4.6287,4.6287,4.6328,4.6287,4.6287,4.6328,4.6287,4.6514,4.7092,5.0988,5.3118,5.3704,5.7683,5.9483,3.2281,3.4981,3.8255,3.8975,3.9238,3.9434,3.9805,3.9961,4.0254,4.1016,4.1367,4.1484,4.1328,4.1426,4.1484,4.1328,4.123,4.1172,4.1172,4.0325,3.9677,3.9677,3.8786,3.8186,3.8129,3.6524,3.6346,3.8479,3.733,3.8373,4.2532,4.3211,4.4296,4.6221,4.6308,4.499,4.2284,4.3352,4.3352,4.2302,4.3686,4.5072,4.6308,4.6387,4.6387,4.6328,4.6641,4.6601,4.6308,4.6308,4.6308,4.6308,4.6308,4.6308,4.6308,4.6308,4.6308,4.6308,4.6308,4.6308,4.6308,4.6308,4.6308,4.6308,4.6308,4.6308,4.6483,4.7441,4.7701,4.7961,4.8908,4.9059,4.9059,4.9059,4.9059,4.9059,4.9059,4.9059,4.9059,4.9059,4.9059,4.9059,4.9059,4.9142,4.9183,4.908,4.9059,4.9059,4.9059,4.9162,4.9887,5.1571,5.3081,5.3049,5.0461,5.1684,5.0916,4.709,4.6473,4.6432,4.6783,4.6452,4.6432,4.6885,4.6452,4.674,4.7548,5.1144,5.3118,5.3704,5.7683,5.9483,3.2708,3.5175,3.7598,3.8926,3.9551,3.9902,3.9902,3.9902,4.0137,4.0996,4.1504,4.1738,4.1523,4.166,4.1719,4.1504,4.1308,4.1172,4.1172,4.1062,4.1014,4.1014,4.0888,4.062,3.9987,3.8803,3.8562,3.9662,3.9488,4.0508,4.3264,4.4296,4.5216,4.6308,4.6308,4.5638,4.4201,4.4636,4.4636,4.4201,4.4864,4.5515,4.6308,4.6308,4.6308,4.6308,4.6543,4.6504,4.6308,4.6308,4.6308,4.6308,4.6308,4.6308,4.6308,4.6308,4.6308,4.6308,4.6308,4.6308,4.6308,4.6308,4.6308,4.6308,4.6308,4.6308,4.6483,4.7441,4.7701,4.7961,4.8908,4.9059,4.9059,4.9059,4.9059,4.9059,4.9059,4.9059,4.9059,4.9059,4.8893,4.881,4.9017,4.9059,4.9059,4.9059,4.9059,4.9059,4.9059,4.9806,5.0803,5.1947,5.3596,5.3601,5.0922,5.1908,5.1032,4.7257,4.701,4.701,4.703,4.6514,4.639,4.6617,4.6678,4.6906,4.7382,5.1322,5.3348,5.3704,5.7683,5.9483,3.3386,3.5445,3.7064,3.9404,4.0,4.0,4.0,4.0,4.0234,4.1016,4.1562,4.1855,4.1719,4.1816,4.1855,4.1719,4.1406,4.1172,4.1172,4.1894,4.2422,4.2422,4.3183,4.3151,4.1686,4.121,4.0808,4.0368,4.1152,4.2312,4.3593,4.4976,4.5822,4.6191,4.6269,4.6308,4.6308,4.6367,4.6367,4.6308,4.6308,4.6308,4.6308,4.6308,4.6308,4.6308,4.6308,4.6308,4.6308,4.6308,4.6308,4.6308,4.6308,4.6308,4.6308,4.6308,4.6308,4.6308,4.6308,4.6308,4.6308,4.6308,4.6308,4.6308,4.6308,4.6308,4.6483,4.7441,4.7701,4.7961,4.8908,4.9059,4.9059,4.9059,4.9059,4.9059,4.9059,4.9059,4.9059,4.9059,4.8686,4.85,4.8873,4.8955,4.8976,4.9059,4.9059,4.9059,4.9059,5.0611,5.1849,5.2077,5.3671,5.3706,5.1087,5.1691,5.0712,4.732,4.7486,4.7486,4.7051,4.6514,4.6308,4.639,4.6762,4.7319,4.7774,5.1729,5.3807,5.4221,5.781,5.9483,2.767,3.1791,3.6918,3.9732,4.0447,4.043,4.043,4.043,4.0586,4.1074,4.1797,4.2129,4.1387,4.1855,4.2109,4.1367,4.1211,4.1172,4.1172,4.1894,4.2422,4.2422,4.3183,4.3784,4.3923,4.2153,4.1928,4.407,4.1247,4.0901,4.4558,4.3846,4.4121,4.5762,4.6113,4.6308,4.6308,4.666,4.666,4.6308,4.6308,4.6308,4.6308,4.6308,4.6308,4.6308,4.6308,4.6308,4.6308,4.6308,4.6308,4.6308,4.6308,4.6308,4.6308,4.6308,4.6308,4.6308,4.6308,4.6308,4.6308,4.6308,4.6308,4.6308,4.6308,4.6308,4.6483,4.7441,4.7701,4.7961,4.8908,4.9059,4.9059,4.9059,4.9059,4.9059,4.9059,4.9059,4.9059,4.9059,4.8686,4.8396,4.8459,4.8459,4.8603,4.8997,4.9059,4.9059,4.9059,5.0611,5.2243,5.3788,5.3876,5.3635,5.3188,5.1908,5.013,4.7797,4.7651,4.7486,4.7051,4.6514,4.6452,4.6947,4.701,4.8335,5.1065,5.2791,5.4554,5.6542,5.8554,5.9483,2.8393,3.2771,3.7052,3.9851,4.0488,4.0527,4.0527,4.0527,4.0644,4.1074,4.166,4.1894,4.1289,4.166,4.1875,4.1269,4.1172,4.1172,4.1172,4.1894,4.2422,4.2422,4.3183,4.3789,4.3984,4.3061,4.3112,4.4544,4.2999,4.2819,4.4915,4.4405,4.4617,4.5664,4.5859,4.6289,4.7012,4.6953,4.6836,4.6641,4.6426,4.6308,4.6308,4.6308,4.6308,4.6308,4.6308,4.6308,4.6308,4.6308,4.6308,4.6308,4.6308,4.6308,4.6308,4.6308,4.6308,4.6308,4.6308,4.6308,4.6308,4.6308,4.6308,4.6308,4.6308,4.6308,4.6483,4.7441,4.7701,4.7961,4.8908,4.9059,4.9059,4.9059,4.9059,4.9059,4.9059,4.9059,4.8914,4.8396,4.8127,4.79,4.7672,4.8045,4.8438,4.8645,4.8893,4.9059,4.9059,5.1431,5.346,5.4197,5.4961,5.485,5.3336,5.2094,5.0195,4.7465,4.7796,4.7755,4.7072,4.7072,4.7668,4.8819,4.8819,4.9657,5.1349,5.4073,5.5922,5.6956,5.8681,5.9483,2.9213,3.2936,3.5837,3.9193,4.0039,4.0137,4.0586,4.0684,4.0781,4.1113,4.1426,4.1543,4.123,4.1523,4.166,4.125,4.1172,4.1172,4.1172,4.1894,4.2422,4.2422,4.3183,4.3711,4.3711,4.3711,4.3848,4.4199,4.38,4.3852,4.4583,4.4361,4.4489,4.5332,4.5449,4.6113,4.7402,4.7207,4.7051,4.6933,4.6504,4.6308,4.6308,4.6308,4.6308,4.6308,4.6308,4.6308,4.6308,4.6308,4.6308,4.6308,4.6308,4.6308,4.6308,4.6308,4.6308,4.6308,4.6308,4.6308,4.6308,4.6308,4.6308,4.6308,4.6308,4.6308,4.6483,4.7441,4.7701,4.7961,4.8908,4.9059,4.9059,4.9059,4.9059,4.9038,4.8914,4.8893,4.8624,4.7693,4.7527,4.7444,4.7237,4.7755,4.8272,4.8521,4.8852,4.9059,4.9059,5.1765,5.3788,5.4278,5.4973,5.4761,5.3197,5.1729,4.9718,4.7195,4.7879,4.7982,4.7072,4.7444,4.8626,5.0393,5.0881,5.1611,5.251,5.5466,5.7138,5.7613,5.8915,5.9483,2.758,2.9744,3.1993,3.7352,3.8672,3.9101,4.0762,4.1133,4.1152,4.1172,4.1191,4.1191,4.1172,4.1523,4.166,4.125,4.1172,4.1172,4.1172,4.1894,4.2422,4.2422,4.3183,4.3711,4.3711,4.3711,4.3711,4.373,4.2132,4.1965,4.3687,4.2528,4.2584,4.4369,4.4844,4.5664,4.6953,4.7344,4.7344,4.6933,4.6504,4.6308,4.6308,4.6308,4.6308,4.6308,4.6308,4.6308,4.6308,4.6308,4.6308,4.6308,4.6308,4.6308,4.6308,4.6308,4.6308,4.6308,4.6308,4.6308,4.6308,4.6308,4.6308,4.6308,4.6308,4.6308,4.6483,4.7441,4.7701,4.7961,4.8908,4.9059,4.9059,4.9059,4.9059,4.8955,4.85,4.8417,4.8148,4.7258,4.7072,4.7196,4.7589,4.7693,4.8024,4.8893,4.9059,4.9059,4.9059,5.0696,5.2492,5.4115,5.2481,5.1923,5.3394,5.0487,4.8087,4.7092,4.7879,4.7982,4.7072,4.7444,4.8774,5.0895,5.2588,5.4451,5.659,5.6797,5.777,5.9328,5.9483,5.9483,2.7393,2.9343,3.1239,3.5142,3.7129,3.8398,3.9297,4.0371,4.1172,4.1172,4.1172,4.1172,4.1172,4.1308,4.1348,4.1191,4.1172,4.1172,4.1172,4.166,4.2129,4.2402,4.2695,4.3105,4.3652,4.3457,4.3418,4.3691,4.3112,4.3029,4.3711,4.3247,4.3395,4.4394,4.4551,4.5234,4.6504,4.6953,4.709,4.6933,4.6504,4.6308,4.6308,4.6308,4.6308,4.6308,4.6308,4.6308,4.6308,4.6308,4.6308,4.6308,4.6308,4.6308,4.6269,4.5996,4.5898,4.5898,4.5898,4.5898,4.5937,4.6211,4.6308,4.6308,4.6308,4.6483,4.692,4.7528,4.7961,4.8286,4.8887,4.9059,4.9059,4.9059,4.9059,4.8935,4.8479,4.8148,4.7838,4.7506,4.6989,4.674,4.7196,4.7506,4.79,4.8521,4.8873,4.9059,4.9059,5.0611,5.2326,5.4115,5.2584,5.1899,5.3027,4.9929,4.7548,4.6658,4.7175,4.7237,4.6616,4.7589,4.9441,5.2181,5.3439,5.4984,5.6876,5.8031,5.8915,5.9483,5.9483,5.9483,2.668,2.844,3.0354,3.35,3.5137,3.6523,3.8555,3.9687,4.0469,4.1055,4.1172,4.1172,4.1172,4.1172,4.1172,4.1172,4.1289,4.1328,4.1191,4.1543,4.1953,4.2383,4.2422,4.2715,4.3418,4.3242,4.3183,4.3476,4.3633,4.3711,4.3711,4.3711,4.3926,4.4375,4.4668,4.5234,4.6094,4.6641,4.6855,4.6719,4.6426,4.6308,4.6308,4.6308,4.6308,4.6308,4.6308,4.6308,4.6308,4.6308,4.6308,4.6289,4.6152,4.6094,4.6035,4.5605,4.5449,4.5449,4.5449,4.5547,4.5723,4.5996,4.6191,4.6308,4.6308,4.6658,4.7094,4.7528,4.8027,4.8544,4.8973,4.9059,4.9059,4.9059,4.9059,4.8976,4.8666,4.8127,4.7631,4.7506,4.6865,4.6411,4.6947,4.7403,4.7838,4.8314,4.8769,4.9059,4.9059,5.0125,5.1682,5.4033,5.2243,5.1437,5.3027,4.9778,4.7361,4.6535,4.6865,4.6968,4.6803,4.8379,5.0565,5.3291,5.4603,5.5999,5.7795,5.8915,5.9483,5.9508,5.8915,5.8603,0.0,0.0,0.0,3.2422,3.2695,3.3476,3.8516,3.9043,3.8984,4.0742,4.1094,4.1113,4.1172,4.1191,4.1191,4.1191,4.1543,4.166,4.125,4.1543,4.1953,4.2363,4.2402,4.2578,4.3027,4.3086,4.3086,4.3105,4.3476,4.3711,4.3711,4.3711,4.3926,4.4375,4.5215,4.5664,4.5683,4.6504,4.6699,4.6308,4.6308,4.6308,4.6308,4.6308,4.6308,4.6308,4.6308,4.6308,4.6308,4.6308,4.6308,4.6269,4.584,4.5683,4.5625,4.5176,4.5,4.5,4.5,4.5293,4.5644,4.5664,4.5957,4.6289,4.6289,4.6658,4.7094,4.7528,4.8027,4.8544,4.8973,4.9059,4.9059,4.9059,4.9059,4.9059,4.9059,4.8355,4.7568,4.7134,4.6597,4.6411,4.6947,4.7382,4.7817,4.8314,4.8748,4.9059,4.9059,4.9059,5.0464,5.387,5.1179,5.0272,5.3244,4.995,4.7506,4.7072,4.703,4.7196,4.7631,4.9793,5.2041,5.4232,5.5975,5.777,5.9483,5.9483,5.9483,5.9483,5.7692,5.6956,2.5965,0.0,0.0,0.0,0.0,0.0,3.3906,3.5332,3.6855,3.8867,3.9297,3.9668,4.0937,4.1426,4.1621,4.1621,4.1719,4.1758,4.1641,4.1719,4.1836,4.1953,4.1973,4.2266,4.3008,4.3086,4.3203,0.0,4.3633,4.3711,4.3711,4.3711,4.3926,4.4375,4.4922,4.5351,4.5664,4.6211,4.6426,4.6308,4.6308,4.6308,4.6308,4.6308,4.6308,4.6308,4.6308,4.6308,4.6308,4.6308,4.6308,4.6269,4.584,4.5683,4.5586,4.4844,4.457,4.457,4.457,4.4648,4.4844,4.5469,4.5762,4.5898,4.6211,4.6658,4.7094,4.7528,4.8027,4.8544,4.8973,4.9059,4.9059,4.9059,4.9059,4.9059,4.9059,4.8603,4.8045,4.7589,4.6885,4.6411,4.6947,4.7134,4.7486,4.8252,4.8479,4.8686,4.9017,4.9059,4.9976,5.216,5.0464,4.9765,5.1558,4.923,4.7506,4.7072,4.6638,4.6514,4.672,4.9128,5.1375,5.3279,5.57,5.777,5.9483,5.9483,5.9483,5.9483,5.7692,5.7534,2.6878,2.7598,2.8359,2.8672,0.0,0.0,3.3496,3.4746,3.6211,3.9062,3.9668,3.9961,4.0996,4.1367,4.166,4.2012,4.207,4.207,4.207,4.1914,4.1855,4.2031,4.1914,4.1992,4.25,4.2871,4.3105,4.3164,4.3496,4.3711,4.3711,4.3711,4.4004,4.4629,4.4902,4.5312,4.5937,4.6191,4.6308,4.6308,4.6308,4.6308,4.6308,4.6308,4.6308,4.6308,4.6308,4.6308,4.6308,4.6308,4.6308,4.6269,4.584,4.5566,4.5332,4.4648,4.4277,4.4101,4.4101,4.4355,4.4746,4.5234,4.5644,4.5976,4.623,4.6658,4.7094,4.7528,4.822,4.8716,4.9059,4.9059,4.9059,4.9059,4.9059,4.9059,4.9059,4.8541,4.8003,4.7734,4.7113,4.6576,4.6659,4.6824,4.7279,4.7982,4.8252,4.8541,4.9017,4.9059,4.9806,5.1514,5.0125,4.9701,5.1205,4.9109,4.7568,4.732,4.6699,4.6349,4.6555,4.8785,5.0997,5.3164,5.5439,5.755,5.9483,5.9483,5.9173,5.8344,5.6638,5.6717,2.7949,2.8105,2.8691,2.9709,2.957,0.0,3.4726,3.5293,3.5918,3.9512,4.0273,4.0371,4.0566,4.0644,4.0918,4.166,4.2031,4.2285,4.248,4.2187,4.2051,4.2324,4.207,4.1875,4.1875,4.2598,4.293,4.2598,4.3281,4.3711,4.3711,4.3711,4.4121,4.5,4.5019,4.543,4.6289,4.6308,4.6308,4.6308,4.6308,4.6308,4.6308,4.6308,4.6308,4.6308,4.6308,4.6308,4.6308,4.6308,4.6308,4.6269,4.584,4.541,4.498,4.4551,4.4101,4.3711,4.3711,4.4219,4.4902,4.5,4.5547,4.6172,4.6269,4.6658,4.7094,4.7615,4.8392,4.9059,4.9059,4.9059,4.9059,4.9059,4.9059,4.9059,4.8997,4.8334,4.7734,4.7631,4.7258,4.6823,4.6328,4.674,4.7196,4.761,4.8086,4.8541,4.9017,4.9059,4.9721,5.1263,5.004,4.9721,5.1263,4.9153,4.7734,4.7693,4.6885,4.6493,4.6947,4.8656,5.0739,5.3188,5.5241,5.7384,5.9483,5.9483,5.8681,5.7138,5.5171,5.5332,2.8984,2.8984,2.9219,2.8789,2.959,0.0,3.0019,3.0879,3.2285,3.4062,3.4707,3.5371,3.6777,3.7305,3.7598,3.7773,3.9531,4.1367,4.2754,4.2871,4.2598,4.1992,4.2148,4.2305,4.2305,4.2773,4.3183,4.3437,4.3613,4.3711,4.3711,4.3711,4.4121,4.5,4.5019,4.543,4.6289,4.6308,4.6308,4.6308,4.6308,4.6308,4.6308,4.6308,4.6308,4.6308,4.6308,4.6308,4.6308,4.6308,4.6308,4.6269,4.584,4.541,4.498,4.4551,4.4101,4.3711,4.3711,4.3808,4.4082,4.4785,4.5137,4.541,4.6094,4.6658,4.7181,4.8027,4.863,4.9059,4.9059,4.9059,4.9059,4.9059,4.9059,4.8955,4.8583,4.8376,4.8024,4.7299,4.6803,4.637,4.6287,4.674,4.7196,4.761,4.8086,4.8541,4.9017,4.9059,4.923,4.9551,4.9315,4.923,4.9551,4.8795,4.8086,4.7713,4.7196,4.6782,4.6411,4.8463,5.0044,5.0918,5.477,5.7673,5.9483,5.9483,5.9328,5.8915,5.5758,5.5999,2.9609,2.9394,2.957,2.959,3.0078,0.0,0.0,3.1211,3.207,3.4004,3.4219,3.4394,3.5508,3.5879,3.6094,3.6309,3.8516,4.0195,4.0195,4.1855,4.293,4.25,4.2422,4.2422,4.2422,4.2812,4.3262,4.3672,4.3711,4.3711,4.3711,4.3711,4.4121,4.5,4.5019,4.543,4.6289,4.6308,4.6308,4.6308,4.6308,4.6308,4.6308,4.6308,4.6308,4.6308,4.6308,4.6308,4.6308,4.6308,4.6308,4.6289,4.6074,4.5586,4.5,4.4785,4.4277,4.3711,4.3711,4.3848,4.416,4.4805,4.5176,4.5469,4.6113,4.6832,4.7528,4.8199,4.8716,4.9059,4.9059,4.9059,4.9059,4.9059,4.9059,4.8935,4.8479,4.8189,4.7838,4.7175,4.6576,4.6349,4.6576,4.6803,4.7258,4.792,4.8231,4.8541,4.9017,4.9059,4.9059,4.9059,4.9059,4.9059,4.9059,4.8645,4.8189,4.7713,4.7279,4.6823,4.6287,4.7343,4.9118,5.1568,5.4877,5.738,5.9106,5.9357,5.9095,5.8187,5.6399,5.6079,3.0488,3.0078,3.0195,3.0762,3.0742,3.0937,0.0,0.0,0.0,3.4355,3.4277,3.3926,3.4219,0.0,0.0,0.0,0.0,0.0,0.0,3.9687,0.0,4.1953,4.2305,4.2383,4.1973,4.2266,4.2812,4.3633,4.332,4.3262,4.3691,4.3711,4.4121,4.5,4.5019,4.543,4.6289,4.6308,4.6308,4.6308,4.6308,4.6308,4.6308,4.6308,4.6308,4.6308,4.6308,4.6308,4.6308,4.6308,4.6308,4.6308,4.6308,4.5781,4.5019,4.5019,4.4473,4.3711,4.3711,4.3945,4.4336,4.4766,4.5339,4.5915,4.6433,4.7181,4.7961,4.8372,4.8802,4.9059,4.9059,4.9059,4.9059,4.9059,4.9059,4.8914,4.8355,4.7941,4.7527,4.701,4.6514,4.6411,4.6947,4.7113,4.7444,4.8252,4.8459,4.8645,4.9017,4.9059,4.9059,4.9059,4.9059,4.9059,4.9059,4.8728,4.8314,4.7838,4.7403,4.6947,4.6411,4.639,4.8506,5.2786,5.4721,5.6726,5.888,5.9282,5.8554,5.6732,5.6828,5.6159,3.2539,3.1875,3.1719,3.1055,3.1426,3.1601,3.0293,0.0,3.041,3.0312,0.0,3.0605,3.0293,0.0,0.0,0.0,0.0,0.0,3.3945,3.623,3.7949,3.7949,4.0937,4.2266,4.0371,4.0234,4.1211,4.3535,4.1953,4.1699,4.3613,4.3711,4.4121,4.5,4.5019,4.543,4.6289,4.6308,4.6308,4.6308,4.6308,4.6308,4.6308,4.6308,4.6308,4.6308,4.6308,4.6308,4.6308,4.6308,4.6308,4.6308,4.6308,4.5781,4.5019,4.5019,4.4473,4.3711,4.3711,4.373,4.3867,4.4316,4.5274,4.6432,4.7301,4.7961,4.8458,4.8887,4.9059,4.9059,4.9059,4.9059,4.9059,4.9059,4.9059,4.8831,4.7962,4.7713,4.7444,4.6596,4.6308,4.6411,4.6947,4.7361,4.7775,4.8293,4.8728,4.9017,4.9059,4.9059,4.9059,4.9059,4.9059,4.9059,4.9059,4.9017,4.879,4.8334,4.7858,4.7424,4.6968,4.6886,4.8768,5.2786,5.3587,5.5668,5.9408,5.9458,5.8356,5.6203,5.666,5.6797,3.2285,3.2324,3.2637,3.1523,3.1894,3.2148,3.0684,3.0078,2.9922,3.0273,0.0,0.0,0.0,0.0,0.0,0.0,3.168,0.0,0.0,0.0,3.6738,0.0,0.0,0.0,0.0,4.0117,4.1211,4.3535,4.1719,4.1445,4.3594,4.3711,4.4004,4.4648,4.4902,4.5312,4.5937,4.6191,4.6308,4.6308,4.6308,4.6308,4.6308,4.6308,4.6308,4.6308,4.6308,4.6308,4.6308,4.6308,4.6308,4.6308,4.6308,4.5781,4.5019,4.5019,4.4473,4.3711,4.3711,4.3711,4.3828,4.4531,4.5431,4.6518,4.7388,4.8047,4.8544,4.8973,4.9059,4.9059,4.9059,4.9059,4.9059,4.9059,4.9059,4.881,4.7879,4.7693,4.7424,4.6513,4.6266,4.6411,4.6947,4.7403,4.7838,4.8314,4.8769,4.9059,4.9059,4.9059,4.9059,4.9059,4.9059,4.9059,4.9059,4.9059,4.8873,4.8396,4.7693,4.7113,4.6576,4.6555,4.8532,5.2786,5.3072,5.4633,5.7565,5.7883,5.6295,5.3141,5.6715,5.7297,3.3027,3.3262,3.3574,3.1934,3.1894,3.1992,3.0937,3.0117,2.9785,3.0547,3.0195,0.0,0.0,0.0,0.0,0.0,0.0,3.0976,0.0,0.0,0.0,0.0,0.0,0.0,0.0,0.0,0.0,0.0,0.0,4.082,4.3555,4.3711,4.3926,4.4375,4.4805,4.5234,4.5664,4.6094,4.6308,4.6308,4.6308,4.6308,4.6308,4.6308,4.6308,4.6308,4.6308,4.6308,4.6308,4.6308,4.6308,4.6308,4.6308,4.5781,4.5019,4.5019,4.4473,4.3711,4.3711,4.3711,4.3848,4.4746,4.5576,4.653,4.7434,4.8113,4.863,4.8973,4.9059,4.9059,4.9059,4.9059,4.9059,4.9059,4.8976,4.8666,4.7858,4.7589,4.7279,4.6492,4.6266,4.637,4.6721,4.732,4.7838,4.8314,4.8769,4.9059,4.9059,4.9059,4.9059,4.9059,4.9059,4.9059,4.9059,4.9059,4.881,4.8231,4.7568,4.6947,4.6287,4.6266,4.8115,5.1946,5.2082,5.3277,5.5454,5.5898,5.4661,5.1982,5.6629,5.7218,3.5957,3.5293,3.4726,3.2148,3.123,3.082,3.0332,2.9883,2.9687,3.0137,3.0195,2.9922,2.9101,2.8945,0.0,0.0,0.0,0.0,0.0,0.0,0.0,0.0,0.0,0.0,0.0,0.0,0.0,0.0,0.0,0.0,4.3476,4.3711,4.3926,4.4375,4.4805,4.5234,4.5664,4.6094,4.6308,4.6308,4.6308,4.6308,4.6308,4.6308,4.6308,4.6308,4.6308,4.6308,4.6308,4.6308,4.6308,4.6308,4.6308,4.5781,4.5019,4.5019,4.4473,4.3711,4.3711,4.3711,4.3848,4.4746,4.5614,4.6534,4.744,4.8392,4.9059,4.9059,4.9059,4.9059,4.9059,4.9059,4.9059,4.9059,4.8728,4.8272,4.7775,4.7361,4.6927,4.6349,4.6266,4.6266,4.6287,4.7092,4.7838,4.8314,4.8769,4.9059,4.9059,4.9059,4.9059,4.9059,4.9059,4.9059,4.9059,4.9059,4.8686,4.7755,4.7672,4.7258,4.6308,4.6266,4.7343,4.9621,5.0161,5.1492,5.3681,5.4107,5.436,5.4255,5.6135,5.5999,3.7734,3.793,3.7617,3.4414,3.3516,3.2851,3.0684,3.0332,3.0312,2.9863,3.0469,3.0723,2.957,2.9355,0.0,0.0,0.0,0.0,0.0,0.0,0.0,0.0,0.0,0.0,0.0,0.0,0.0,0.0,0.0,0.0,4.3555,4.3711,4.3769,4.3926,4.4375,4.4824,4.5234,4.5664,4.6035,4.6308,4.6308,4.6308,4.6308,4.6308,4.6308,4.6308,4.6308,4.6308,4.6308,4.6308,4.6308,4.6308,4.6308,4.5957,4.543,4.5137,4.4473,4.3711,4.3711,4.3876,4.4344,4.5213,4.6101,4.702,4.7935,4.863,4.9059,4.9059,4.9059,4.9059,4.9059,4.9059,4.9059,4.9059,4.8707,4.8252,4.7775,4.7341,4.6906,4.6349,4.6266,4.637,4.674,4.7299,4.7734,4.79,4.8583,4.9059,4.9059,4.9059,4.9059,4.9059,4.9059,4.9059,4.9059,4.9059,4.8666,4.7734,4.7693,4.7279,4.6308,4.6266,4.7343,4.9519,5.0059,5.0866,5.1923,5.233,5.2015,5.0948,5.3788,5.5493,3.9394,3.9687,3.9394,3.6387,3.5625,3.4922,3.2187,3.1914,3.209,3.1504,3.1465,3.1641,3.2031,3.0586,0.0,0.0,0.0,0.0,0.0,2.7578,0.0,0.0,0.0,0.0,0.0,0.0,0.0,0.0,0.0,0.0,0.0,4.3711,4.3711,4.3711,4.416,4.459,4.5019,4.5449,4.5879,4.6308,4.6308,4.6308,4.6308,4.6308,4.6308,4.6308,4.6308,4.6308,4.6308,4.6308,4.6308,4.6308,4.6308,4.6055,4.5644,4.5371,4.4805,4.418,4.4327,4.4577,4.5028,4.5912,4.6659,4.7476,4.8147,4.8716,4.91,4.9266,4.9183,4.91,4.9266,4.9183,4.9059,4.9059,4.8583,4.8045,4.7755,4.7217,4.6617,4.6328,4.6266,4.6411,4.6947,4.7403,4.7734,4.79,4.8583,4.9059,4.9059,4.9059,4.9059,4.9059,4.9059,4.9059,4.9059,4.9059,4.8666,4.7734,4.7693,4.7279,4.6308,4.6266,4.702,4.8677,4.9128,4.9579,5.0072,5.0544,5.021,4.9144,5.2658,5.4928]}]]